[[{"header":{"parameterUnit":"m.s-1","parameterCategory":1,"la1":30.6,"la2":29.2853,"lo1":-89.7004,"lo2":-87.6739,"dy":0.0162,"dx":0.0183,"nx":112,"ny":82,"refTime":"2025-03-09T06:00:00:Z","depth":0,"parameterNumber":2,"parameterNumberName":"U-component_of_WINDS"},"data":[0.0,0.0,0.0,0.0,0.0,0.0,0.0,0.0,0.0,0.0,0.0,0.0,0.0,0.0,0.0,0.0,0.0,0.0,0.0,0.0,0.0,0.0,0.0,0.0,0.0,0.0,0.0,0.0,0.0,0.0,0.0,0.0,0.0,0.0,0.0,0.0,0.0,0.0,0.0,0.0,0.0,0.0,0.0,0.0,0.0,0.0,0.0,0.0,0.0,0.0,0.0,0.0,0.0,0.0,0.0,0.0,0.0,0.0,0.0,0.0,0.0,0.0,0.0,0.0,0.0,0.0,0.0,0.0,0.0,0.0,0.0,0.0,0.0,0.0,0.0,0.0,0.0,0.0,0.0,0.0,0.0,0.0,0.0,0.0,0.0,0.0,0.0,0.0,0.0,0.0,0.0,-4.914,-5.0466,-5.1284,-5.1047,-5.0134,-4.8432,-4.5797,0.0,0.0,0.0,0.0,0.0,0.0,0.0,0.0,0.0,0.0,0.0,0.0,0.0,0.0,0.0,0.0,0.0,0.0,0.0,0.0,0.0,0.0,0.0,0.0,0.0,0.0,0.0,0.0,0.0,0.0,0.0,0.0,0.0,0.0,0.0,0.0,0.0,0.0,0.0,0.0,0.0,0.0,0.0,0.0,0.0,0.0,0.0,0.0,0.0,0.0,0.0,0.0,0.0,0.0,0.0,0.0,0.0,0.0,0.0,0.0,0.0,0.0,0.0,0.0,0.0,0.0,0.0,0.0,0.0,0.0,0.0,0.0,0.0,0.0,0.0,0.0,0.0,0.0,0.0,0.0,0.0,0.0,0.0,0.0,0.0,0.0,0.0,0.0,0.0,0.0,0.0,0.0,0.0,0.0,0.0,0.0,0.0,0.0,0.0,0.0,0.0,0.0,0.0,0.0,-4.7807,-5.0679,-5.1135,-5.1211,-5.1163,-4.9541,-4.7743,-4.5882,0.0,0.0,0.0,0.0,0.0,0.0,0.0,0.0,0.0,0.0,0.0,0.0,0.0,0.0,0.0,0.0,0.0,0.0,0.0,0.0,0.0,0.0,0.0,0.0,0.0,0.0,0.0,0.0,0.0,0.0,0.0,0.0,0.0,0.0,0.0,0.0,0.0,0.0,0.0,0.0,0.0,0.0,0.0,0.0,0.0,0.0,0.0,0.0,0.0,0.0,0.0,0.0,0.0,0.0,0.0,0.0,0.0,0.0,0.0,0.0,0.0,0.0,0.0,0.0,0.0,0.0,0.0,0.0,0.0,0.0,0.0,0.0,0.0,0.0,0.0,0.0,0.0,0.0,0.0,0.0,0.0,0.0,0.0,0.0,0.0,0.0,0.0,0.0,0.0,0.0,0.0,0.0,0.0,0.0,0.0,0.0,0.0,0.0,0.0,0.0,0.0,0.0,0.0,-4.6933,-4.8077,-5.108,-5.1355,-5.1284,-5.1207,-4.9482,-4.7663,-4.5898,-4.4349,0.0,0.0,0.0,0.0,0.0,0.0,0.0,0.0,0.0,0.0,0.0,0.0,0.0,0.0,0.0,0.0,0.0,0.0,0.0,0.0,0.0,0.0,0.0,0.0,0.0,0.0,0.0,0.0,0.0,0.0,0.0,0.0,0.0,0.0,0.0,0.0,0.0,0.0,0.0,0.0,0.0,0.0,0.0,0.0,0.0,0.0,0.0,0.0,0.0,0.0,0.0,0.0,0.0,0.0,0.0,0.0,0.0,0.0,0.0,0.0,0.0,0.0,0.0,0.0,0.0,0.0,0.0,0.0,0.0,0.0,0.0,0.0,0.0,0.0,0.0,0.0,0.0,0.0,0.0,0.0,0.0,0.0,0.0,0.0,0.0,0.0,0.0,0.0,0.0,0.0,0.0,0.0,0.0,0.0,0.0,0.0,0.0,0.0,0.0,0.0,0.0,0.0,-4.7906,-4.8804,-5.1144,-5.1398,-5.1286,-5.0959,-4.9097,-4.7153,-4.5357,-4.272,0.0,0.0,0.0,0.0,0.0,0.0,0.0,0.0,0.0,0.0,0.0,0.0,0.0,0.0,0.0,0.0,0.0,0.0,0.0,0.0,0.0,0.0,0.0,0.0,0.0,0.0,0.0,0.0,0.0,0.0,0.0,0.0,0.0,0.0,0.0,0.0,0.0,0.0,0.0,0.0,0.0,0.0,0.0,0.0,0.0,0.0,0.0,0.0,0.0,0.0,0.0,0.0,0.0,0.0,0.0,0.0,0.0,0.0,0.0,0.0,0.0,0.0,0.0,0.0,0.0,0.0,0.0,0.0,0.0,0.0,0.0,0.0,0.0,0.0,0.0,0.0,0.0,0.0,0.0,0.0,0.0,0.0,0.0,0.0,0.0,0.0,0.0,0.0,0.0,0.0,0.0,0.0,0.0,0.0,0.0,0.0,0.0,0.0,0.0,0.0,0.0,0.0,-4.7332,-4.9461,-5.1214,-5.1408,-5.1071,-5.0256,-4.7772,-4.55,-4.3675,-4.105,0.0,0.0,0.0,0.0,0.0,0.0,0.0,0.0,0.0,0.0,0.0,0.0,0.0,0.0,0.0,0.0,0.0,0.0,0.0,0.0,0.0,0.0,0.0,0.0,0.0,0.0,0.0,0.0,0.0,0.0,0.0,0.0,0.0,0.0,0.0,0.0,0.0,0.0,0.0,0.0,0.0,0.0,0.0,0.0,0.0,0.0,0.0,0.0,0.0,0.0,0.0,0.0,0.0,0.0,0.0,0.0,0.0,0.0,0.0,0.0,0.0,0.0,0.0,0.0,0.0,0.0,0.0,0.0,0.0,0.0,0.0,0.0,0.0,0.0,0.0,0.0,0.0,0.0,0.0,0.0,0.0,0.0,0.0,0.0,0.0,0.0,0.0,0.0,0.0,0.0,0.0,0.0,0.0,0.0,0.0,0.0,0.0,0.0,0.0,0.0,0.0,0.0,-4.6808,-4.8722,0.0,-5.0591,-5.0235,-4.9353,-4.7335,-4.5336,-4.3514,0.0,0.0,0.0,0.0,0.0,0.0,0.0,0.0,0.0,0.0,0.0,0.0,0.0,0.0,0.0,0.0,0.0,0.0,0.0,0.0,0.0,0.0,0.0,0.0,0.0,0.0,0.0,0.0,0.0,0.0,0.0,0.0,0.0,0.0,0.0,0.0,0.0,0.0,0.0,0.0,0.0,0.0,0.0,0.0,0.0,0.0,0.0,0.0,0.0,0.0,0.0,0.0,0.0,0.0,0.0,0.0,0.0,0.0,0.0,0.0,0.0,0.0,0.0,0.0,0.0,0.0,0.0,0.0,0.0,0.0,0.0,0.0,0.0,0.0,0.0,0.0,0.0,0.0,0.0,0.0,0.0,0.0,0.0,0.0,0.0,0.0,0.0,0.0,0.0,0.0,0.0,0.0,0.0,0.0,0.0,0.0,0.0,0.0,0.0,0.0,0.0,0.0,-4.3842,-4.6187,-4.8141,0.0,-4.9718,-4.9363,-4.8499,-4.6535,-4.4458,-4.2362,0.0,0.0,0.0,0.0,0.0,0.0,0.0,0.0,0.0,0.0,0.0,0.0,0.0,0.0,0.0,0.0,0.0,0.0,0.0,0.0,0.0,0.0,0.0,0.0,0.0,0.0,0.0,0.0,0.0,0.0,0.0,0.0,0.0,0.0,0.0,0.0,0.0,0.0,0.0,0.0,0.0,0.0,0.0,0.0,0.0,0.0,0.0,0.0,0.0,0.0,0.0,0.0,0.0,0.0,0.0,0.0,0.0,0.0,0.0,0.0,0.0,0.0,0.0,0.0,0.0,0.0,0.0,0.0,0.0,0.0,0.0,0.0,0.0,0.0,0.0,0.0,0.0,0.0,0.0,0.0,0.0,0.0,0.0,0.0,0.0,0.0,0.0,0.0,0.0,0.0,0.0,0.0,0.0,0.0,0.0,0.0,0.0,0.0,0.0,0.0,0.0,0.0,-4.2304,-4.5449,-4.7929,-4.8788,-4.8885,-4.8531,-4.7659,-4.5199,-4.255,0.0,0.0,0.0,0.0,0.0,0.0,0.0,0.0,0.0,0.0,0.0,0.0,0.0,0.0,0.0,0.0,0.0,0.0,0.0,0.0,0.0,0.0,0.0,0.0,0.0,0.0,0.0,0.0,0.0,0.0,0.0,0.0,0.0,0.0,0.0,0.0,0.0,0.0,0.0,0.0,0.0,0.0,0.0,0.0,0.0,0.0,0.0,0.0,0.0,0.0,0.0,0.0,0.0,0.0,0.0,0.0,0.0,0.0,0.0,0.0,0.0,0.0,0.0,0.0,0.0,0.0,0.0,0.0,0.0,0.0,0.0,0.0,0.0,0.0,0.0,0.0,0.0,0.0,0.0,0.0,0.0,0.0,0.0,0.0,0.0,0.0,0.0,0.0,0.0,0.0,0.0,0.0,0.0,0.0,0.0,0.0,0.0,0.0,0.0,0.0,0.0,0.0,0.0,-4.2226,-4.5449,-4.7695,-4.7969,-4.7987,-4.738,-4.5894,-4.4504,-4.2285,-3.8997,0.0,0.0,0.0,0.0,0.0,0.0,0.0,0.0,0.0,0.0,0.0,0.0,0.0,0.0,0.0,0.0,0.0,0.0,0.0,0.0,0.0,0.0,0.0,0.0,0.0,0.0,0.0,0.0,0.0,0.0,0.0,0.0,0.0,0.0,0.0,0.0,0.0,0.0,0.0,0.0,0.0,0.0,0.0,0.0,0.0,0.0,0.0,0.0,0.0,0.0,0.0,0.0,0.0,0.0,0.0,0.0,0.0,0.0,0.0,0.0,0.0,0.0,0.0,0.0,0.0,0.0,0.0,0.0,0.0,0.0,0.0,0.0,0.0,0.0,0.0,0.0,0.0,0.0,0.0,0.0,0.0,0.0,0.0,0.0,0.0,0.0,0.0,0.0,0.0,0.0,0.0,0.0,0.0,0.0,0.0,0.0,0.0,0.0,0.0,0.0,0.0,0.0,-4.1699,-4.4648,-4.6699,-4.7031,-4.6777,-4.6132,-4.5096,-4.3882,-4.1686,-3.8188,0.0,0.0,0.0,0.0,0.0,0.0,0.0,0.0,0.0,0.0,0.0,0.0,0.0,0.0,0.0,0.0,0.0,0.0,0.0,0.0,0.0,0.0,0.0,0.0,0.0,0.0,0.0,0.0,0.0,0.0,0.0,0.0,0.0,0.0,0.0,0.0,0.0,0.0,0.0,0.0,0.0,0.0,0.0,0.0,0.0,0.0,0.0,0.0,0.0,0.0,0.0,0.0,0.0,0.0,0.0,0.0,0.0,0.0,0.0,0.0,0.0,0.0,0.0,0.0,0.0,0.0,0.0,0.0,0.0,0.0,0.0,0.0,0.0,0.0,0.0,0.0,0.0,0.0,0.0,0.0,0.0,0.0,0.0,0.0,0.0,0.0,0.0,0.0,0.0,0.0,0.0,0.0,0.0,0.0,0.0,0.0,0.0,0.0,0.0,0.0,0.0,0.0,-4.0859,-4.3301,-4.5176,-4.5976,-4.5273,-4.4765,-4.4764,-4.3239,-4.0853,-3.7511,0.0,0.0,0.0,0.0,0.0,0.0,0.0,0.0,0.0,0.0,0.0,0.0,0.0,0.0,0.0,0.0,0.0,0.0,0.0,0.0,0.0,0.0,0.0,0.0,0.0,0.0,0.0,0.0,0.0,0.0,0.0,0.0,0.0,0.0,0.0,0.0,0.0,0.0,0.0,0.0,0.0,0.0,0.0,0.0,0.0,0.0,0.0,0.0,0.0,0.0,0.0,0.0,0.0,0.0,0.0,0.0,0.0,0.0,0.0,0.0,-5.127,0.0,0.0,0.0,0.0,0.0,0.0,0.0,0.0,0.0,0.0,0.0,0.0,0.0,0.0,0.0,0.0,0.0,0.0,0.0,0.0,0.0,0.0,0.0,0.0,0.0,0.0,0.0,0.0,0.0,0.0,0.0,0.0,0.0,0.0,0.0,0.0,0.0,0.0,0.0,0.0,0.0,-3.9941,-4.2402,-4.4043,-4.4238,-4.3476,-4.2949,-4.2949,-4.2031,-4.0273,-3.7478,-3.6477,0.0,0.0,0.0,0.0,0.0,0.0,0.0,0.0,0.0,0.0,0.0,0.0,0.0,0.0,0.0,0.0,0.0,0.0,0.0,0.0,0.0,0.0,0.0,0.0,0.0,0.0,0.0,0.0,0.0,0.0,0.0,0.0,0.0,0.0,0.0,0.0,0.0,0.0,0.0,0.0,0.0,0.0,0.0,0.0,0.0,0.0,0.0,0.0,0.0,0.0,0.0,0.0,0.0,0.0,0.0,0.0,0.0,0.0,0.0,0.0,-5.0531,0.0,0.0,0.0,0.0,0.0,0.0,0.0,0.0,0.0,0.0,0.0,0.0,0.0,0.0,0.0,0.0,0.0,0.0,0.0,0.0,0.0,0.0,0.0,0.0,0.0,0.0,0.0,0.0,0.0,0.0,0.0,0.0,0.0,0.0,0.0,0.0,0.0,0.0,0.0,0.0,-3.9531,-4.1657,-4.299,-4.3021,-4.2279,-4.1794,-4.1816,-4.1054,-3.9648,-3.744,-3.6872,0.0,0.0,0.0,0.0,0.0,0.0,0.0,0.0,0.0,0.0,0.0,0.0,0.0,0.0,0.0,0.0,0.0,0.0,0.0,0.0,0.0,0.0,0.0,0.0,0.0,0.0,0.0,0.0,0.0,0.0,0.0,0.0,0.0,0.0,0.0,0.0,0.0,0.0,0.0,0.0,0.0,0.0,0.0,0.0,0.0,0.0,0.0,0.0,0.0,0.0,0.0,0.0,0.0,-5.2237,-5.2561,-5.2408,-5.269,-5.2805,-5.2713,-5.0933,-5.0527,-5.1048,0.0,0.0,0.0,0.0,0.0,0.0,0.0,0.0,0.0,0.0,0.0,0.0,0.0,0.0,0.0,0.0,0.0,0.0,0.0,0.0,0.0,0.0,0.0,0.0,0.0,-4.2457,-4.2752,0.0,0.0,0.0,0.0,0.0,0.0,0.0,0.0,0.0,0.0,0.0,0.0,-3.9143,-4.0796,-4.1772,-4.1817,-4.0963,-4.0545,-4.0914,-4.0156,-3.9043,-3.7598,-3.7381,-3.5874,0.0,0.0,0.0,0.0,0.0,0.0,0.0,0.0,0.0,0.0,0.0,0.0,0.0,0.0,0.0,0.0,0.0,0.0,0.0,0.0,0.0,0.0,0.0,0.0,0.0,0.0,0.0,0.0,0.0,0.0,0.0,0.0,-5.4509,-5.376,0.0,0.0,0.0,0.0,0.0,0.0,0.0,0.0,0.0,0.0,0.0,0.0,0.0,-5.1471,-5.2066,-5.2935,-5.2992,-5.2256,-5.3126,-5.3126,-5.2408,-5.2448,-5.2462,-5.2443,-5.2171,0.0,-5.1929,-5.1837,0.0,0.0,0.0,0.0,0.0,0.0,0.0,0.0,0.0,0.0,0.0,0.0,0.0,0.0,0.0,0.0,0.0,0.0,0.0,0.0,0.0,0.0,-4.4166,-4.3342,-4.3337,-4.3383,0.0,-4.0619,-3.8004,-3.6038,-3.5139,0.0,0.0,0.0,0.0,0.0,0.0,0.0,-3.824,-3.9337,-3.9954,-3.9958,-3.8558,-3.8235,-3.9775,-3.9148,-3.8598,-3.8361,-3.7695,-3.6424,-3.4431,-3.2907,0.0,0.0,0.0,0.0,0.0,0.0,0.0,0.0,0.0,0.0,0.0,0.0,0.0,0.0,0.0,0.0,0.0,0.0,0.0,0.0,0.0,0.0,0.0,0.0,0.0,0.0,0.0,0.0,0.0,-5.3763,-5.3386,-5.3046,-5.2673,-5.2073,0.0,0.0,0.0,0.0,0.0,0.0,0.0,0.0,0.0,-5.1917,-5.1968,-5.2153,-5.251,-5.3337,-5.3353,-5.2529,-5.3355,-5.3562,-5.3186,-5.3381,-5.3474,-5.3436,-5.3177,-5.2747,-5.2146,-5.1399,-5.0394,-4.924,0.0,0.0,0.0,0.0,-4.7222,-4.7214,-4.733,-4.7349,0.0,0.0,0.0,0.0,0.0,0.0,0.0,0.0,0.0,0.0,0.0,0.0,0.0,-4.46,-4.438,-4.3939,-4.3435,-4.2144,-4.0465,0.0,-3.7621,-3.6372,-3.3222,0.0,0.0,0.0,0.0,0.0,-3.7307,-3.8218,-3.8578,-3.8134,-3.7439,-3.7502,-3.8799,-3.818,-3.7905,-3.8368,-3.764,-3.6411,-3.4704,-3.3904,-3.3066,0.0,0.0,0.0,0.0,0.0,0.0,0.0,0.0,0.0,0.0,0.0,0.0,0.0,0.0,0.0,0.0,0.0,0.0,0.0,0.0,0.0,0.0,0.0,0.0,0.0,0.0,0.0,0.0,-5.3088,-5.3013,-5.2586,-5.3087,-5.266,0.0,0.0,0.0,0.0,0.0,0.0,-5.1881,-5.1936,-5.2326,-5.3105,-5.2957,-5.2976,-5.3199,-5.3608,-5.3497,-5.2921,-5.3515,-5.3813,-5.3813,-5.4054,-5.4047,-5.384,-5.3505,-5.273,-5.1699,-5.0856,-4.9908,-4.8947,-4.8625,-4.8381,-4.8169,-4.8279,-4.8431,-4.8662,-4.9067,-4.9337,-4.9144,-4.7042,0.0,-4.4747,-4.1391,0.0,0.0,0.0,0.0,-4.3397,-4.4207,-4.3829,-4.3508,-4.4762,-4.4608,-4.399,-4.3334,-4.3018,-4.2207,0.0,-3.9539,-3.8325,-3.4477,0.0,0.0,0.0,0.0,-3.5875,-3.6678,-3.734,-3.7514,-3.6933,-3.6679,-3.6909,-3.7849,-3.7374,-3.7302,-3.7921,-3.741,-3.6436,-3.4971,-3.4698,-3.3991,-3.2754,0.0,0.0,0.0,0.0,0.0,0.0,0.0,0.0,0.0,0.0,0.0,0.0,0.0,0.0,0.0,0.0,0.0,0.0,0.0,0.0,0.0,0.0,0.0,0.0,0.0,0.0,0.0,0.0,0.0,-5.2503,-5.433,0.0,0.0,0.0,0.0,-5.2187,-5.2187,-5.2538,-5.3351,-5.3407,-5.3758,-5.457,-5.3913,-5.3954,-5.4788,-5.4126,-5.3775,-5.3738,-5.3775,-5.3813,-5.3813,-5.3813,-5.3404,-5.268,-5.2661,-5.175,-5.0332,-5.0851,-5.0107,-4.8644,-4.8955,-4.8544,-4.7855,-4.8169,-4.8778,-4.9337,-4.8604,-4.8855,-4.9356,-4.8458,-4.6491,-4.4284,-4.3319,-4.2471,0.0,0.0,-4.3134,-4.3392,-4.428,-4.3855,-4.3219,-4.3315,-4.3296,-4.3257,-4.3219,-4.2552,-4.145,0.0,-3.9405,-3.8575,-3.5926,0.0,-3.5219,-3.4295,-3.4924,-3.5797,-3.661,-3.6738,-3.6771,-3.6793,-3.6055,-3.592,-3.6806,-3.6889,-3.6944,-3.7055,-3.7081,-3.6699,-3.5777,-3.4934,-3.4495,-3.4479,-3.2916,0.0,0.0,0.0,0.0,0.0,0.0,0.0,0.0,0.0,0.0,0.0,0.0,0.0,0.0,0.0,0.0,0.0,0.0,0.0,0.0,0.0,0.0,0.0,0.0,0.0,0.0,0.0,0.0,-5.3924,-5.5048,0.0,-5.2851,-5.2907,-5.3295,-5.3811,-5.3848,-5.4199,-5.4993,-5.503,-5.5177,-5.5454,-5.5219,-5.4981,-5.4779,-5.4505,-5.4118,-5.3619,-5.3619,-5.3638,-5.3716,-5.3101,-5.2751,-5.2512,-5.0879,-4.9858,-4.9298,-4.8477,-4.8506,-4.9131,-4.9441,-4.9346,-4.9092,-4.9227,-4.9564,-4.9906,-4.9618,-4.948,-4.9172,-4.7636,-4.5755,-4.3992,-4.3529,-4.3292,-4.3101,-4.2727,-4.3149,-4.3664,-4.3414,-4.2696,-4.2178,-4.2734,-4.2571,-4.2255,-4.2089,-4.1929,-4.1493,-4.0334,-3.9687,-3.8679,-3.6657,-3.6311,-3.5823,-3.4411,-3.4943,-3.5591,-3.5885,-3.5923,-3.5949,-3.5963,-3.5694,-3.5835,-3.6676,-3.6273,-3.6238,-3.6824,-3.6408,-3.6018,-3.5741,-3.545,-3.4792,-3.3778,-3.3212,-3.2114,0.0,0.0,0.0,0.0,0.0,0.0,0.0,0.0,0.0,0.0,0.0,0.0,0.0,0.0,0.0,0.0,0.0,0.0,0.0,0.0,0.0,0.0,0.0,0.0,0.0,0.0,-5.4635,-5.4594,-5.5791,-5.5865,-5.3986,-5.4299,-5.4812,-5.5367,-5.5423,-5.5754,-5.6565,-5.6344,-5.6197,-5.6197,-5.5705,-5.5173,-5.464,-5.4402,-5.4016,-5.3499,-5.3222,-5.3133,-5.321,-5.2301,-5.1656,-5.1158,-4.9454,-4.8453,-4.7913,-4.6871,-4.7187,-4.8399,-4.8706,-4.8985,-4.9244,-4.9359,-4.9689,-4.9979,-4.942,-4.8684,-4.7712,-4.605,-4.4605,-4.346,-4.3194,-4.3247,-4.3251,-4.2526,-4.2661,-4.2884,-4.2302,-4.151,-4.1015,-4.1578,-4.1428,-4.1083,-4.0911,-4.1073,-4.0995,-4.014,-3.9611,-3.8834,-3.7392,-3.6885,-3.6231,-3.4853,-3.5135,-3.55,-3.55,-3.55,-3.55,-3.55,-3.55,-3.5712,-3.625,-3.5534,-3.5303,-3.5881,-3.5181,-3.4745,-3.4788,-3.4793,-3.4305,-3.3281,-3.3078,-3.1837,-2.9522,0.0,0.0,0.0,0.0,0.0,0.0,0.0,0.0,0.0,0.0,0.0,0.0,0.0,0.0,0.0,0.0,0.0,0.0,0.0,0.0,0.0,0.0,0.0,-5.2175,-5.3573,-5.4562,-5.4509,-5.6583,-5.7079,-5.473,-5.5923,-5.684,-5.684,-5.684,-5.7171,-5.7923,-5.7226,-5.6785,-5.673,-5.526,-5.446,-5.4423,-5.3752,-5.3425,-5.3407,-5.2631,-5.2262,-5.2225,-5.1395,-5.0139,-4.8605,-4.8513,-4.759,-4.6168,-4.6215,-4.6231,-4.6264,-4.6716,-4.7372,-4.813,-4.8445,-4.9045,-4.9481,-4.7801,-4.6309,-4.4968,-4.3893,-4.3142,-4.2639,-4.2446,-4.2379,-4.2379,-4.236,-4.1742,-4.1086,-4.1067,-4.0423,-3.9786,-3.9786,-3.9797,-3.9797,-3.9786,-3.9983,-3.99,-3.905,-3.9046,-3.8923,-3.8104,-3.7238,-3.6404,-3.5615,-3.55,0.0,-3.55,-3.55,-3.55,-3.55,-3.55,-3.55,-3.55,-3.4699,-3.4199,-3.4192,-3.3441,-3.2997,-3.3006,-3.3006,-3.3044,-3.3153,-3.2437,-3.124,-2.9609,0.0,0.0,0.0,0.0,0.0,0.0,0.0,0.0,0.0,0.0,0.0,0.0,0.0,0.0,0.0,0.0,0.0,0.0,0.0,0.0,0.0,0.0,-5.3101,-5.3689,-5.5159,-5.6385,-5.6932,-5.7593,-5.774,-5.706,-5.7409,-5.7666,-5.7666,-5.7666,-5.7519,-5.7152,-5.6932,-5.6271,-5.5097,-5.4072,-5.3285,-5.27,-5.193,-5.1546,-5.1546,-5.1305,-5.1235,-5.1222,-4.9764,-4.89,-4.8495,-4.6651,-4.5655,-4.5281,-4.4707,-4.4484,-4.4628,-4.6041,-4.7106,-4.783,-4.7909,-4.7834,-4.7486,-4.6051,-4.4896,-4.3863,-4.2799,-4.2335,-4.2146,-4.19,-4.1967,-4.1952,-4.1162,-4.0916,-4.074,-4.0094,-3.9762,-3.9573,-3.9573,-3.9694,-3.9742,-3.9549,-3.9222,-3.8883,-3.8593,-3.762,-3.6889,-3.7033,-3.6365,-3.575,-3.5538,-3.55,0.0,-3.55,-3.55,-3.55,-3.55,-3.55,-3.55,-3.55,-3.4699,-3.4205,-3.4199,-3.341,-3.2941,-3.2997,-3.2997,-3.2766,-3.2268,-3.144,-3.0518,0.0,0.0,0.0,0.0,0.0,0.0,0.0,0.0,0.0,0.0,0.0,0.0,0.0,0.0,0.0,0.0,0.0,0.0,0.0,0.0,0.0,0.0,-5.317,-5.4491,-5.5299,-5.6216,-5.7097,-5.7905,-5.7997,-5.7997,-5.7997,-5.7997,-5.7997,-5.7997,-5.7685,-5.7299,-5.6822,-5.6161,-5.5207,-5.394,-5.3133,-5.2307,-5.1499,-5.1041,-5.0802,-5.0802,-5.0453,-5.0126,-4.978,-4.8399,-4.7481,0.0,-4.5403,-4.4612,-4.4349,-4.3887,-4.3719,0.0,0.0,0.0,0.0,0.0,-4.6345,-4.5028,-4.3898,-4.3007,-4.2208,-4.1121,-4.0864,-4.0903,-4.0631,-4.0654,-4.0651,-4.003,-3.9978,-4.0006,-3.9602,-3.9514,-3.952,-3.9609,-3.943,-3.9199,-3.9053,-3.8463,-3.7835,-3.7422,-3.6656,0.0,-3.6012,-3.5603,-3.532,-3.5405,-3.5446,-3.546,-3.546,-3.5474,-3.55,-3.55,-3.55,-3.55,-3.55,-3.4372,0.0,0.0,0.0,-3.1878,-3.1921,-3.1914,0.0,0.0,0.0,0.0,0.0,0.0,0.0,0.0,-3.1074,-3.1386,0.0,0.0,0.0,0.0,0.0,0.0,0.0,0.0,0.0,0.0,0.0,0.0,0.0,0.0,0.0,0.0,-5.473,-5.6014,-5.6822,-5.695,-5.7207,-5.7923,-5.7997,-5.7997,-5.7997,-5.7997,-5.796,-5.7868,-5.7207,-5.673,-5.6547,0.0,0.0,0.0,0.0,-5.1389,-5.0674,-5.0563,-5.0472,-5.038,-4.9646,-4.8857,-4.8012,-4.7186,-4.6049,-4.4691,-4.4617,-4.4158,-4.3496,-4.3565,-4.3582,-4.3617,-4.3847,-4.4796,-4.6027,-4.6147,-4.4695,-4.2526,-4.1709,0.0,0.0,-3.9393,-3.9245,-3.9401,-3.9183,-3.9101,-3.9101,-3.9101,-3.9129,-3.9173,-3.9327,-3.9376,-3.9411,-3.9496,-3.8929,-3.8345,-3.8334,-3.767,-3.6826,-3.6039,-3.6006,-3.5864,-3.5132,-3.5006,-3.5094,-3.5266,-3.5357,-3.5398,-3.5398,-3.5446,-3.5486,-3.5493,0.0,0.0,-3.55,-3.3987,-3.3006,-3.291,-3.1423,-3.0596,-3.0673,-3.0593,-3.0611,-3.072,-3.0629,-3.1001,-3.184,-3.1938,-3.2472,-3.337,-3.2652,-3.2715,0.0,0.0,0.0,0.0,0.0,0.0,0.0,0.0,0.0,0.0,0.0,0.0,0.0,0.0,0.0,-5.4858,-5.5941,-5.6859,-5.7648,-5.7776,-5.7831,-5.7978,-5.7997,-5.7997,-5.7997,-5.7997,-5.7721,-5.7079,-5.6895,-5.6235,-5.4932,-5.3959,-5.3059,-5.2252,-5.0822,-4.9996,-4.9831,-4.9132,-4.8452,-4.781,0.0,0.0,-4.6342,-4.5517,-4.4984,-4.4672,-4.4011,-4.3626,-4.3515,-4.3496,-4.3513,-4.3604,-4.4438,-4.4578,-4.4297,-4.4313,-4.3204,-4.1558,-4.0692,-3.9885,-3.9225,-3.9077,-3.9064,-3.9106,-3.9101,-3.9101,0.0,-3.9101,-3.9259,-3.9271,-3.862,-3.8618,-3.8593,-3.7864,-3.7559,-3.7432,-3.7393,-3.6731,-3.608,-3.5788,-3.5268,-3.4854,-3.4908,-3.5105,-3.5251,-3.5281,-3.5315,-3.5323,-3.5323,-3.5323,-3.5364,-3.5412,-3.542,-3.5446,-3.55,-3.4545,-3.3641,-3.2949,-3.1987,-3.1737,-3.2391,-3.1786,-3.1449,-3.1496,-3.0853,-3.064,-3.0862,-3.1576,-3.2402,-3.3314,-3.3214,-3.3254,0.0,0.0,0.0,0.0,0.0,0.0,0.0,0.0,0.0,0.0,0.0,-5.1775,-5.2968,0.0,-5.4763,-5.5907,-5.6786,-5.7423,-5.7737,-5.7792,-5.7857,-5.7973,-5.7997,-5.7973,-5.7904,-5.7537,-5.7116,-5.6731,-5.5962,-5.5177,-5.4436,-5.3261,-5.2234,-5.1426,-5.0235,-4.939,-4.8948,-4.8122,-4.7498,-4.7094,-4.6691,-4.6085,-4.5296,-4.4892,-4.4488,-4.4085,-4.3663,-4.3515,-4.3478,-4.3057,-4.2892,-4.2909,-4.3011,-4.282,-4.25,-4.2567,-4.1567,-4.0074,-3.9649,-3.9243,-3.8925,-3.8983,-3.8993,-3.9007,-3.9073,-3.9101,-3.9027,-3.8599,-3.8669,-3.8688,-3.7939,-3.7919,-3.8023,-3.7679,-3.7241,-3.6881,-3.6853,-3.6082,-3.5375,-3.5317,-3.4977,-3.4743,-3.487,-3.5088,-3.5246,-3.5246,-3.5289,-3.5297,-3.5297,-3.5293,-3.5315,-3.5357,-3.5357,-3.5364,-3.5405,-3.462,-3.3615,-3.2327,-3.1898,-3.1679,-3.1654,-3.1268,-3.1055,-3.1053,-3.0645,-3.0693,-3.1197,-3.2043,-3.2936,-3.3867,-3.4306,-3.4547,0.0,0.0,0.0,0.0,0.0,0.0,0.0,0.0,-5.1738,-5.2527,-5.2692,-5.3133,-5.4601,-5.5368,-5.6021,-5.6712,-5.7366,-5.7721,-5.7625,-5.7601,-5.7673,-5.7904,-5.7815,-5.775,-5.7768,-5.6835,-5.6241,-5.6314,-5.4898,-5.3975,-5.3897,-5.2546,-5.1389,-5.0582,-4.9756,-4.893,-4.8086,-4.7424,-4.6947,-4.6636,-4.5993,-4.5241,-4.447,-4.447,-4.4103,-4.3515,-4.3515,-4.3423,-4.3222,-4.2561,-4.2213,-4.1992,-4.1185,-4.0887,-4.0967,-4.1064,-4.0139,-3.8866,-3.8866,-3.8866,-3.8881,-3.8939,-3.8964,-3.8993,-3.9045,-3.8976,-3.8743,-3.8128,-3.7985,-3.7898,-3.7285,-3.7261,-3.7436,-3.7482,-3.6903,-3.6351,-3.6351,-3.5618,-3.4964,-3.4982,-3.4973,-3.4964,-3.4964,-3.5089,-3.5209,-3.5209,-3.5253,-3.5277,-3.5277,-3.5289,-3.5285,-3.5293,-3.53,-3.53,-3.5308,-3.4405,-3.3332,-3.216,-3.1827,-3.1442,-3.0904,-3.0731,-3.0646,-3.0656,-3.0483,-3.0769,-3.1535,-3.2519,-3.3385,-3.4153,-3.5137,-3.5705,-5.4597,-5.3345,0.0,-5.1769,-5.1983,-5.2717,0.0,0.0,-5.4234,-5.5023,-5.521,-5.5464,-5.6381,-5.6511,-5.6749,-5.7536,-5.7642,-5.7625,-5.7601,-5.7601,-5.7625,-5.7649,-5.7177,-5.7033,-5.7559,-5.5931,-5.496,-5.533,-5.4132,-5.3007,-5.2136,-5.1346,-5.0563,-4.9757,-4.8893,-4.8067,-4.7241,-4.7131,-4.6379,-4.4966,-4.4892,-4.4415,-4.3626,-4.3626,-4.3589,-4.3515,-4.3515,-4.3075,-4.2433,-4.2341,-4.1882,-4.115,-4.0341,-4.0044,-4.0044,-4.006,-3.9509,-3.8719,-3.8719,-3.8719,-3.8719,-3.8792,-3.8848,-3.8921,-3.8979,-3.8544,-3.8059,-3.8147,-3.7796,-3.7258,-3.6671,-3.6648,-3.6606,-3.5881,-3.5575,-3.5442,-3.5442,-3.5307,-3.5185,-3.5245,-3.5201,-3.5176,-3.5176,-3.5193,-3.5209,-3.5209,-3.5209,-3.5209,-3.5209,-3.5218,-3.5234,-3.5293,-3.5293,-3.5289,-3.5308,-3.3858,-3.3208,-3.378,-3.243,-3.1904,-3.2583,-3.1929,-3.1545,-3.1551,-3.0794,-3.0446,-3.0557,-3.2195,-3.3047,-3.3208,-3.4831,-3.5717,-5.5957,0.0,0.0,0.0,-5.4272,-5.495,-5.4967,-5.5032,-5.5317,-5.6124,-5.6308,-5.6547,-5.7354,-5.7386,-5.7384,0.0,-5.7577,-5.7455,-5.7363,-5.7381,-5.72,-5.6727,-5.6142,-5.5891,-5.627,-5.4786,-5.369,-5.3432,-5.2794,-5.2078,-5.1316,-5.09,-5.0356,-4.9629,-4.8306,-4.7443,-4.7094,-4.6159,-4.537,-4.4691,-4.4232,-4.3828,-4.3515,-4.3515,-4.3515,-4.3478,-4.3002,-4.2598,-4.2231,-4.1295,-4.0708,-4.0322,-3.9515,-3.9203,-3.9203,-3.9203,-3.9001,-3.8707,-3.8707,-3.8707,-3.8723,-3.8777,-3.8538,-3.8223,-3.828,-3.7789,-3.7147,-3.6885,-3.671,-3.6453,-3.5848,-3.5845,-3.5904,-3.5537,-3.5412,-3.5364,-3.5364,-3.5304,-3.5269,-3.5285,-3.5253,-3.5209,-3.5209,-3.5209,-3.5209,-3.5209,-3.5209,-3.5209,-3.5209,-3.5209,-3.5209,-3.5234,-3.5277,-3.5093,-3.4596,-3.391,-3.3243,-3.2683,-3.1988,-3.1552,-3.1442,-3.1115,-3.0942,-3.0942,-3.0596,-3.039,-3.0402,-3.164,-3.2479,-3.2973,-3.4208,-3.5126,-5.6071,0.0,0.0,-5.5384,-5.6289,-5.694,-5.6015,-5.6123,-5.6558,-5.7028,-5.7134,-5.7317,-5.7886,-5.7886,-5.7745,-5.7625,-5.7504,-5.7338,-5.7213,-5.7007,-5.6645,-5.6066,-5.5279,-5.4732,-5.4675,-5.3575,-5.2747,-5.2563,-5.1883,-5.1263,-5.0733,-5.0426,-4.9927,-4.9163,-4.7827,-4.6965,-4.6727,-4.5388,-4.4599,-4.436,-4.3773,-4.3515,-4.3496,-4.3276,-4.3167,-4.3112,-4.2323,-4.1846,-4.1552,-4.0377,-3.9772,-3.9515,-3.8927,-3.8707,-3.8707,-3.8707,-3.856,-3.8377,-3.8377,-3.8212,-3.8062,-3.8133,-3.7825,-3.7451,-3.7475,-3.6989,-3.6366,-3.5995,-3.5828,-3.5695,-3.537,-3.5403,-3.55,-3.55,-3.5453,-3.5405,-3.542,-3.5361,-3.5308,-3.5324,-3.5266,-3.5223,-3.5223,-3.5223,-3.5223,-3.5223,-3.5023,-3.495,-3.5171,-3.5218,-3.5226,-3.5226,-3.5058,-3.4684,-3.4052,-3.3586,-3.2819,-3.1678,-3.136,-3.0995,-3.0423,-3.0404,-3.0404,-3.0404,-3.0404,-3.0404,-3.0404,-3.1269,-3.2102,-3.291,-3.3801,-3.4693,0.0,0.0,-5.5594,-5.6358,-5.7496,-5.8332,-5.7917,-5.818,-5.8424,-5.8056,-5.796,-5.796,-5.7997,-5.7886,-5.7745,-5.7625,-5.7504,-5.7338,-5.7213,-5.6518,-5.6029,-5.5993,-5.4768,-5.3662,0.0,-5.2306,-5.2422,-5.3574,-5.1784,-5.0507,-5.0239,-4.9708,-4.9025,-4.8085,-4.7439,-4.669,-4.5846,-4.5077,-4.4305,-4.3551,-4.3515,-4.3515,-4.3478,-4.269,-4.2341,-4.2286,-4.148,-4.0689,-3.9955,-3.9918,-3.9441,-3.8726,-3.8707,-3.8707,-3.8707,-3.8707,-3.8212,-3.7547,-3.7547,-3.7033,-3.6372,-3.6444,-3.6631,-3.6808,-3.6676,-3.6261,-3.5863,-3.6049,-3.5533,-3.502,-3.5395,-3.55,-3.55,-3.55,-3.5453,-3.5412,-3.5474,-3.5379,-3.5315,-3.5379,-3.533,-3.5308,-3.5308,-3.5308,-3.5308,-3.5308,-3.4588,-3.432,-3.5095,-3.5261,-3.5304,-3.5304,-3.4546,-3.4033,-3.3995,-3.2515,-3.1574,-3.1602,-3.0804,-3.0355,-3.0404,-3.0404,-3.0404,-3.0404,-3.0404,-3.0404,-3.0404,-3.1269,-3.2102,-3.291,-3.3801,-3.4667,0.0,0.0,-5.7256,-5.8058,-5.8824,-5.9322,-5.9188,-5.8878,-5.8566,-5.8434,-5.7763,-5.7207,-5.7207,-5.6676,-5.6337,-5.675,-5.6697,-5.6558,-5.6416,-5.6627,-5.621,-5.4653,-5.4519,0.0,0.0,0.0,0.0,-5.0915,-5.0154,-4.9442,-4.8906,-4.9113,-4.8634,-4.7262,-4.6615,-4.5883,-4.5004,-4.427,-4.3754,-4.3515,-4.3515,-4.3515,-4.3478,-4.2671,-4.2304,-4.2231,-4.0873,-4.0139,-3.9845,-3.9313,-3.8946,-3.8707,-3.8707,-3.8377,-3.7915,-3.7915,-3.7019,-3.6009,-3.7125,-3.7007,-3.637,-3.6384,-3.6244,-3.6047,-3.6024,-3.5642,-3.5238,-3.5455,-3.5299,-3.5149,-3.5432,-3.55,-3.55,-3.55,-3.5474,-3.5467,-3.55,-3.542,-3.5372,-3.5405,-3.5354,-3.5308,-3.5308,-3.5308,-3.4914,-3.3813,-3.3882,-3.3963,-3.3643,-3.3664,-3.3693,-3.3645,-3.3417,-3.3034,-3.2455,-3.1888,-3.134,-3.0765,-3.0452,-3.0336,-3.0404,-3.0404,-3.0404,-3.0404,-3.0404,-3.0404,-3.0404,-3.0692,-3.1538,-3.291,-3.3199,-3.4103,0.0,-5.6632,-5.7695,-5.8822,-5.9545,-5.9988,-5.9842,-5.9396,-5.8875,-5.8297,-5.754,-5.6875,-5.644,-5.5874,-5.5692,-5.6312,-5.6321,-5.6316,-5.6398,-5.6391,-5.5812,-5.4309,-5.4092,0.0,0.0,0.0,0.0,-5.0175,-4.9764,-4.9205,-4.8502,-4.8381,-4.7842,-4.6724,-4.59,-4.5169,-4.4547,-4.3831,-4.3515,-4.3515,-4.3515,-4.3349,-4.3039,-4.2249,-4.1717,-4.1368,-4.0047,-3.946,-3.9423,-3.8909,-3.8707,-3.867,-3.8377,-3.797,-3.7474,-3.718,-3.6193,-3.5151,-3.6295,-3.6154,-3.5542,-3.5671,-3.5559,-3.5386,-3.5407,-3.5218,-3.5037,-3.5157,-3.5209,-3.5242,-3.5446,-3.55,-3.55,-3.55,-3.55,-3.55,-3.55,-3.546,-3.5446,-3.5446,-3.5403,-3.5373,-3.5373,-3.5373,-3.4779,-3.3086,-3.3318,-3.3369,-3.2483,-3.2678,-3.2883,-3.2844,-3.2601,-3.2217,-3.1647,-3.1321,-3.09,-3.0343,-3.0316,-3.0367,-3.0404,-3.0404,-3.0404,-3.0404,-3.0404,-3.0404,-3.0404,-3.0712,-3.1558,-3.291,-3.3218,-3.4122,-5.6045,-5.669,-5.7065,-5.8689,-5.972,-6.0242,-5.9906,-5.9788,-5.9286,-5.7711,-5.7289,-5.6848,0.0,0.0,-5.5617,-5.6184,-5.6325,-5.6539,-5.7075,-5.5884,-5.4943,0.0,0.0,0.0,0.0,0.0,0.0,-5.1176,0.0,-4.9637,-4.8873,-4.7541,-4.6688,-4.645,-4.5314,-4.4583,-4.4345,-4.3795,-4.3515,-4.3515,-4.346,-4.3039,-4.2268,-4.1423,-4.0616,-3.9845,-3.9056,-3.8707,-3.8707,-3.867,-3.8634,-3.856,-3.7749,-3.7419,-3.729,-3.6505,-3.5665,-3.4963,-3.5101,-3.4607,-3.3985,-3.4363,-3.4639,-3.4822,-3.4908,-3.5054,-3.5218,-3.5218,-3.5218,-3.5258,-3.5446,-3.55,-3.55,-3.55,-3.55,-3.55,-3.55,-3.55,-3.55,-3.55,-3.55,-3.55,-3.55,-3.5462,-3.4852,-3.3153,-3.2872,-3.2513,-3.1642,-3.2269,-3.2762,-3.2762,-3.2026,-3.1519,-3.1532,-3.0791,-3.0311,-3.0304,-3.0348,-3.0404,-3.0404,-3.0404,-3.0404,-3.0404,-3.0404,-3.0404,-3.0404,-3.1269,-3.2102,-3.291,-3.3801,-3.4667,-5.637,-5.713,-5.781,-5.8842,-5.9281,-5.9559,-6.0118,-5.9505,-5.8549,-5.7538,-5.5901,-5.4368,0.0,0.0,0.0,-5.4568,-5.5167,0.0,-5.6364,-5.6031,0.0,0.0,0.0,-5.315,-5.2552,-5.1574,0.0,0.0,-4.9112,-4.8224,-4.8025,-4.7189,-4.6392,-4.5617,-4.4965,-4.4254,-4.3506,-4.3502,-4.3515,-4.3496,-4.2892,-4.2506,-4.2249,-4.0855,-4.0084,-3.9845,-3.9056,-3.8707,-3.8652,-3.8046,-3.7823,-3.7731,-3.6923,-3.6211,-3.561,-3.5408,-3.4802,-3.4132,-3.4252,-3.4266,-3.4206,-3.4318,-3.4685,-3.5107,-3.5115,-3.5258,-3.5424,-3.5424,-3.5424,-3.5432,-3.5493,-3.55,-3.55,-3.55,-3.55,-3.55,-3.55,-3.55,-3.55,-3.55,-3.546,-3.5439,-3.5439,-3.4889,-3.4108,-3.3071,-3.2346,-3.1629,-3.0733,-3.0829,-3.0957,-3.0957,-3.0753,-3.0637,-3.0631,-3.0433,-3.0298,-3.0304,-3.0348,-3.0404,-3.0404,-3.0404,-3.0404,-3.0404,-3.0404,-3.0404,-3.0404,-3.1269,-3.2102,-3.291,-3.3801,-3.468,-5.6522,-5.7054,-5.7467,-5.79,-5.8555,-5.9052,-5.8784,-5.8487,-5.7741,-5.6034,-5.4474,0.0,0.0,0.0,0.0,0.0,0.0,0.0,-5.5594,-5.5269,-5.4671,0.0,-5.3385,0.0,-5.2045,-5.1249,-5.0434,0.0,-4.8749,-4.8058,-4.7735,-4.6733,-4.59,-4.5309,-4.449,-4.3833,-4.334,-4.3427,-4.3331,-4.2965,-4.2525,-4.1937,-4.1222,-4.0304,-3.9698,-3.935,0.0,-3.8505,-3.8138,-3.7694,-3.729,-3.6905,-3.6064,-3.5426,-3.4968,-3.4601,-3.4206,-3.3842,-3.3934,-3.4208,-3.4529,-3.4551,-3.4851,-3.5218,-3.5297,-3.5417,-3.55,-3.55,-3.55,-3.55,-3.55,-3.55,-3.55,-3.55,-3.55,-3.55,-3.55,-3.55,-3.55,-3.55,-3.5467,-3.5434,-3.5434,-3.503,-3.4429,-3.3603,-3.3051,-3.2295,-3.1078,-3.0554,-3.0452,-3.0836,-3.0842,-3.0848,-3.0861,-3.1187,-3.1252,-3.0887,-3.1257,-3.1346,-3.0981,-3.0962,-3.0962,-3.0962,-3.0596,-3.0769,-3.15,-3.1987,-3.266,-3.3487,-3.4353,-3.5065,-5.6767,-5.6783,-5.6575,-5.6741,-5.7785,-5.8435,-5.7078,-5.7179,-5.6788,-5.4069,0.0,0.0,-5.1262,0.0,-5.1981,-5.2727,0.0,-5.4128,-5.4904,-5.4259,-5.3717,-5.3693,-5.2987,-5.2172,-5.1375,-5.056,-4.9764,-4.8945,-4.88,-4.8438,-4.7732,-4.6277,-4.5337,-4.5022,-4.3962,-4.3411,-4.3515,-4.3515,-4.3094,-4.2304,-4.2194,-4.135,-3.99,-3.979,-3.935,-3.8707,0.0,0.0,-3.7658,-3.7547,-3.7033,-3.6211,-3.5367,-3.4949,-3.4766,-3.4077,-3.3873,-3.3908,-3.3959,-3.4337,-3.4821,-3.486,-3.5054,-3.5266,-3.5439,-3.55,-3.55,-3.55,-3.55,-3.55,-3.55,-3.55,-3.55,-3.55,-3.55,-3.55,-3.55,-3.55,-3.55,-3.55,-3.55,-3.55,-3.55,-3.55,-3.5192,-3.434,-3.418,-3.3615,-3.2058,-3.1143,-3.0887,-3.1532,-3.1639,-3.1682,-3.1741,-3.2387,-3.2492,-3.1802,-3.2487,-3.2545,-3.1737,-3.1795,-3.1756,-3.1525,-3.1,-3.1385,-3.2737,-3.2968,-3.3462,-3.4231,-3.511,-3.5559,-5.7716,-5.6863,-5.6043,-5.7417,-5.7424,-5.722,-5.7594,-5.6721,0.0,0.0,0.0,-5.1087,-4.9868,-5.0033,0.0,-5.1961,0.0,0.0,0.0,0.0,-5.3756,0.0,0.0,0.0,0.0,0.0,0.0,0.0,0.0,-4.7862,-4.7717,-4.6198,-4.4791,-4.3615,-4.336,-4.3322,-4.3515,-4.3515,-4.3094,-4.2286,-4.1627,-4.0818,-3.9879,-3.9203,-3.8836,-3.8707,-3.8707,0.0,-3.8432,-3.7768,-3.7033,-3.6225,-3.5459,-3.4692,-3.4004,-3.3976,-3.3934,-3.3947,-3.4281,-3.4567,-3.4793,-3.4803,-3.5096,-3.5446,-3.5493,-3.55,-3.55,-3.55,-3.55,-3.55,-3.55,-3.55,-3.55,-3.55,-3.55,-3.55,-3.55,-3.55,-3.55,-3.55,-3.55,-3.55,-3.55,-3.55,-3.5192,-3.434,-3.416,-3.3774,-3.2807,-3.2551,-3.2224,-3.1666,-3.2182,-3.2548,-3.2512,-3.2685,-3.2746,-3.26,-3.2801,-3.2545,-3.1737,-3.2333,-3.2045,-3.0654,-3.1833,-3.2275,-3.191,-3.3295,-3.4089,-3.4304,-3.5173,-3.5684,-5.7662,-5.689,-5.6402,-5.7186,-5.7065,-5.6632,-5.6091,0.0,0.0,0.0,0.0,-5.0236,-4.966,0.0,0.0,0.0,0.0,0.0,0.0,0.0,0.0,0.0,0.0,0.0,0.0,0.0,0.0,0.0,0.0,-4.7717,-4.7717,-4.6178,-4.4664,-4.3233,-4.3214,-4.3304,-4.3497,-4.3075,-4.247,-4.168,-4.0855,-4.0047,-3.9258,-3.8891,-3.8707,-3.8707,-3.8707,0.0,-3.8046,-3.7658,-3.6762,-3.5605,-3.5308,-3.4641,-3.3855,-3.3959,-3.3998,-3.4049,-3.4337,-3.463,-3.487,-3.4973,-3.5234,-3.55,-3.55,-3.55,-3.55,-3.55,-3.55,-3.55,-3.55,-3.55,-3.55,-3.55,-3.55,-3.55,-3.55,-3.55,-3.55,-3.55,-3.55,-3.55,-3.55,-3.55,-3.5365,-3.4949,-3.4859,-3.4537,-3.3679,-3.3961,-3.3902,-3.3003,-3.325,-3.3465,-3.3424,-3.387,-3.3964,-3.3503,-3.3973,-3.3891,-3.3045,-3.3372,-3.3199,-3.2391,-3.2718,-3.316,-3.3673,-3.4057,-3.4494,-3.4993,-3.5432,-3.5733,-5.757,-5.7194,-5.7182,-5.7124,-5.6832,-5.6194,-5.48,-5.4049,0.0,0.0,0.0,-4.9903,-4.9798,0.0,0.0,0.0,0.0,0.0,0.0,0.0,0.0,0.0,0.0,0.0,0.0,0.0,0.0,0.0,0.0,0.0,-4.721,-4.5816,-4.4463,-4.3233,-4.3196,-4.3304,-4.348,-4.2873,-4.2066,-4.1095,-4.0469,-3.9643,-3.8707,-3.8707,-3.8707,-3.8707,-3.8707,0.0,0.0,-3.7768,-3.6886,-3.5546,-3.5501,-3.4939,-3.4205,-3.4148,-3.4161,-3.4215,-3.4486,-3.4744,-3.5001,-3.5201,-3.5369,-3.55,-3.55,-3.55,-3.55,-3.55,-3.55,-3.55,-3.55,-3.55,-3.55,-3.55,-3.55,-3.55,-3.55,-3.55,-3.55,-3.55,-3.55,-3.55,-3.55,-3.55,-3.55,-3.55,-3.55,-3.525,-3.4564,-3.5084,-3.521,-3.4489,-3.4398,-3.4371,-3.4357,-3.5007,-3.5098,-3.4414,-3.5076,-3.5122,-3.4244,-3.4379,-3.4295,-3.3936,-3.3622,-3.4058,-3.5239,-3.4809,-3.4942,-3.567,-3.5721,-3.5801,-5.8212,-5.8173,-5.8162,-5.8104,-5.6871,-5.5658,-5.5425,0.0,0.0,0.0,-5.0278,-5.0156,-4.9857,0.0,0.0,0.0,0.0,0.0,0.0,0.0,0.0,0.0,0.0,0.0,0.0,0.0,0.0,0.0,0.0,0.0,-4.5562,-4.4693,-4.3882,-4.3123,-4.316,-4.3269,-4.3412,-4.3408,-4.2616,-4.1095,-4.1022,-4.0194,-3.8707,-3.8707,-3.8707,-3.8707,-3.8707,0.0,0.0,-3.8597,-3.811,-3.7301,-3.6634,-3.5887,-3.5121,-3.4696,-3.4506,-3.452,-3.4973,-3.5149,-3.5209,-3.541,-3.5486,-3.55,-3.55,-3.55,-3.55,-3.55,-3.55,-3.55,-3.55,-3.55,-3.55,-3.55,-3.55,-3.55,-3.55,-3.55,-3.55,-3.55,-3.55,-3.55,-3.55,-3.55,-3.55,-3.55,-3.55,-3.5462,-3.5385,-3.5442,-3.5481,-3.5378,-3.5324,-3.5256,-3.52,-3.5326,-3.5367,-3.529,-3.5422,-3.5122,-3.4244,-3.4968,-3.4635,-3.3045,-3.45,-3.4989,-3.4411,-3.5137,-3.5624,-3.5872,-3.5877,-3.5914,-5.7665,-5.7896,-5.8173,-5.7623,-5.6209,-5.4918,-5.4841,0.0,0.0,-5.0562,-5.0325,-5.0248,-5.0132,-4.983,-4.9611,0.0,0.0,0.0,0.0,0.0,0.0,0.0,0.0,0.0,0.0,0.0,0.0,0.0,0.0,0.0,-4.5345,-4.453,-4.381,-4.3178,-4.3196,-4.3286,-4.3445,-4.3003,-4.2213,-4.1095,-4.0616,-3.979,-3.8707,-3.8707,-3.8707,-3.8707,-3.8707,0.0,0.0,-3.8707,-3.8275,-3.7573,-3.7331,-3.6759,-3.602,-3.5509,-3.5604,-3.6009,-3.5939,-3.5916,-3.5968,-3.6161,-3.5885,-3.55,-3.55,-3.55,-3.55,-3.55,-3.55,-3.55,-3.55,-3.55,-3.55,-3.55,-3.55,-3.55,-3.55,-3.55,-3.55,-3.55,-3.55,-3.55,-3.55,-3.55,-3.55,-3.55,-3.55,-3.55,-3.55,-3.55,-3.55,-3.55,-3.5486,-3.5453,-3.542,-3.5434,-3.546,-3.546,-3.5493,-3.5346,-3.5007,-3.5327,-3.5194,-3.4535,-3.5204,-3.5416,-3.5141,-3.5578,-3.5817,-3.589,-3.5944,-3.5964,-5.6791,-5.7434,-5.8088,-5.7234,-5.5742,-5.4481,0.0,0.0,-5.1218,-5.0538,-5.0337,-5.0302,-5.0302,-5.0038,-4.9688,0.0,-4.9015,-4.899,0.0,0.0,0.0,0.0,0.0,0.0,0.0,0.0,0.0,0.0,0.0,0.0,0.0,-4.453,-4.381,-4.3196,-4.3196,-4.3286,-4.3463,-4.2947,-4.2139,-4.1095,-4.0524,-3.9717,-3.8707,-3.8707,-3.8707,-3.8707,0.0,0.0,0.0,-3.8707,-3.8419,-3.7985,-3.7836,-3.7514,-3.7044,-3.655,-3.6717,-3.7139,-3.6655,-3.6495,-3.6473,-3.6375,-3.5962,-3.55,-3.55,-3.55,-3.55,-3.55,-3.55,-3.55,-3.55,-3.55,-3.55,-3.55,-3.55,-3.55,-3.55,-3.55,-3.55,-3.55,-3.55,-3.55,-3.55,-3.55,-3.55,-3.55,-3.55,-3.55,-3.55,-3.5521,-3.5528,-3.5528,-3.554,-3.5547,-3.5528,-3.5528,-3.5541,-3.5559,-3.5565,-3.5565,-3.5565,-3.5565,-3.5587,-3.5635,-3.5635,-3.5669,-3.5764,-3.5844,-3.5901,-3.5921,-3.5986,-3.5994,-5.5722,-5.6973,-5.8088,-5.7234,-5.5742,-5.4481,0.0,-5.2376,-5.0489,-5.0412,-5.0337,-5.0302,-5.0302,-5.0038,-4.9688,-4.9345,-4.9015,0.0,0.0,0.0,0.0,0.0,0.0,0.0,0.0,0.0,0.0,0.0,0.0,0.0,0.0,-4.453,-4.3791,-4.3123,-4.3178,-4.3269,-4.3394,-4.3463,-4.2671,-4.1095,-4.1095,-4.0251,-3.8707,-3.8707,-3.8707,0.0,0.0,0.0,0.0,-3.8707,-3.8762,-3.8828,-3.8229,-3.8116,-3.8221,-3.7833,-3.7691,-3.7602,-3.693,-3.6692,-3.6577,-3.5769,-3.5519,-3.55,-3.55,-3.55,-3.55,-3.55,-3.55,-3.55,-3.55,-3.55,-3.55,-3.55,-3.55,-3.55,-3.55,-3.55,-3.55,-3.55,-3.55,-3.55,-3.55,-3.55,-3.55,-3.55,-3.55,-3.55,-3.55,-3.5565,-3.5607,-3.5607,-3.566,-3.5678,-3.5593,-3.5607,-3.563,-3.5689,-3.5693,-3.5693,-3.5693,-3.5693,-3.5693,-3.5693,-3.5693,-3.5767,-3.5907,-3.5909,-3.5923,-3.5995,-3.5995,-3.5995,-5.3991,-5.4838,-5.5491,-5.4626,-5.3568,-5.2712,-5.2701,-5.1553,-5.05,-5.0478,-5.0371,-5.0302,-5.0302,-5.0212,-5.0038,-4.9702,0.0,0.0,0.0,0.0,0.0,0.0,0.0,0.0,0.0,0.0,0.0,0.0,0.0,0.0,0.0,-4.4587,-4.381,-4.3196,-4.3196,-4.3286,-4.3463,-4.3497,-4.2965,-4.1919,-4.1352,-4.0561,-3.9496,-3.8946,0.0,0.0,0.0,0.0,0.0,-3.875,-3.8935,-3.916,-3.9012,-3.9106,-3.9258,-3.8728,-3.8514,-3.8426,-3.7813,-3.7199,-3.6654,-3.6404,-3.5942,-3.5507,-3.5495,-3.5508,-3.55,-3.55,-3.55,-3.55,-3.55,-3.55,-3.55,-3.55,-3.55,-3.55,-3.55,-3.5541,-3.557,-3.557,-3.5612,-3.5645,-3.5645,-3.5645,-3.562,-3.5581,-3.5618,-3.5614,-3.5575,-3.5631,-3.5666,-3.5666,-3.5683,-3.5683,-3.5678,-3.5674,-3.5687,-3.5693,-3.5698,-3.5698,-3.5698,-3.5694,-3.5748,-3.5836,-3.5844,-3.588,-3.5979,-3.5963,-3.5971,-3.5996,-3.5996,-3.5996,0.0,-5.3356,-5.3876,-5.3337,-5.2538,-5.1904,-5.1904,-5.1179,-5.05,-5.05,-5.0393,-5.0302,-5.0302,-5.0302,-5.0181,-4.9857,0.0,0.0,0.0,0.0,0.0,0.0,0.0,0.0,0.0,0.0,0.0,0.0,0.0,0.0,0.0,-4.4936,-4.4213,-4.3305,-4.3233,-4.3304,-4.3497,-4.3515,-4.3094,-4.2286,-4.148,-4.0689,-3.9863,-3.9074,0.0,0.0,0.0,0.0,0.0,-3.8859,-3.9082,-3.9324,-3.9568,-3.9791,-3.9878,-3.9276,-3.9059,-3.8961,-3.8239,-3.743,-3.6692,-3.6692,-3.6379,-3.6054,-3.6382,-3.6022,-3.5501,-3.5507,-3.55,-3.55,-3.55,-3.55,-3.5514,-3.5528,-3.5541,-3.554,-3.5564,-3.5618,-3.565,-3.565,-3.5668,-3.5694,-3.5694,-3.5698,-3.5686,-3.563,-3.567,-3.5686,-3.565,-3.5714,-3.5788,-3.5788,-3.5797,-3.5807,-3.5805,-3.5781,-3.5798,-3.5803,-3.5805,-3.5805,-3.5805,-3.5816,-3.5856,-3.5941,-3.5946,-3.596,-3.5993,-3.5995,-3.5996,-3.5996,-3.5996,-3.5996,0.0,-5.2414,-5.3029,-5.3029,-5.2404,-5.1808,-5.1808,-5.1141,0.0,-5.05,-5.0393,-5.0302,-5.0302,-5.0302,-5.02,-4.9903,0.0,0.0,0.0,0.0,0.0,0.0,0.0,0.0,0.0,0.0,0.0,0.0,0.0,0.0,0.0,-4.5395,-4.4745,-4.3448,-4.3269,-4.3322,-4.3497,-4.3515,-4.3112,-4.2378,-4.1499,-4.0726,-3.9955,-3.9093,0.0,0.0,0.0,0.0,0.0,-3.8999,-3.9203,-3.9383,-3.9899,-4.0148,-4.0155,-3.9588,-3.9304,-3.9111,-3.8354,-3.7488,-3.6712,-3.6776,-3.685,-3.7044,-3.7868,-3.6929,-3.5579,-3.5597,-3.5545,-3.5514,-3.5501,-3.5501,-3.5522,-3.5596,-3.5609,-3.5616,-3.5685,-3.5706,-3.571,-3.571,-3.5717,-3.5716,-3.5716,-3.573,-3.572,-3.5713,-3.5717,-3.572,-3.5713,-3.5824,-3.5912,-3.5912,-3.5961,-3.5992,-3.5992,-3.5932,-3.5928,-3.6009,-3.5991,-3.5991,-3.5991,-3.5991,-3.5991,-3.5991,-3.5992,-3.5993,-3.5995,-3.5996,-3.5996,-3.5996,-3.5996,-3.5996,-5.0933,0.0,-5.1279,-5.1279,-5.1125,-5.0971,0.0,-5.0768,0.0,0.0,0.0,0.0,0.0,0.0,0.0,0.0,0.0,0.0,0.0,0.0,0.0,0.0,0.0,0.0,0.0,0.0,0.0,0.0,0.0,0.0,0.0,-4.4473,-4.3652,-4.3481,-4.3394,-4.3411,-4.3515,-4.3515,-4.3423,-4.3185,-4.1791,-4.1003,-4.0781,-3.935,0.0,0.0,0.0,0.0,-3.8807,-3.9105,-3.9383,-3.963,-4.0022,-4.0286,-4.0403,-4.0269,-3.9419,-3.8373,-3.8834,-3.7988,-3.6815,-3.755,-3.7809,-3.7894,-3.8054,-3.7347,-3.6492,-3.6498,-3.6055,-3.5572,-3.5588,-3.559,-3.5596,-3.5663,-3.5683,-3.5687,-3.5705,-3.5771,-3.5841,-3.5841,-3.5894,-3.5935,-3.5935,-3.5936,-3.591,-3.5858,-3.5901,-3.591,-3.5856,-3.5934,-3.599,-3.599,-3.5994,-3.5996,-3.5996,-3.5991,-3.5987,-3.5991,-3.5991,-3.5991,-3.5991,-3.5993,-3.5994,-3.5994,-3.5995,-3.5996,-3.5996,-3.5996,-3.5996,-3.5996,-3.5996,-3.5996,-5.126,-5.0971,-5.0712,-5.0712,-5.0712,-5.0712,-5.0712,0.0,0.0,0.0,0.0,0.0,0.0,0.0,0.0,0.0,0.0,0.0,0.0,0.0,0.0,0.0,0.0,0.0,0.0,0.0,0.0,0.0,0.0,0.0,0.0,-4.4912,-4.4126,-4.3516,-4.3463,-4.3463,-4.3515,-4.3515,-4.3515,-4.3478,-4.1882,-4.1095,-4.104,-3.9426,-3.8707,0.0,0.0,0.0,-3.8947,-3.9294,-3.9614,-3.9912,-4.0223,-4.0397,-4.0458,-4.0092,-3.9381,-3.8661,-3.915,-3.8676,-3.7986,-3.8523,-3.8724,-3.8827,-3.9213,-3.8754,-3.7918,-3.7031,-3.6213,-3.5593,-3.5592,-3.5624,-3.5679,-3.5774,-3.5789,-3.5797,-3.5821,-3.5882,-3.5953,-3.5953,-3.5986,-3.5993,-3.5993,-3.5994,-3.5993,-3.5945,-3.5971,-3.5992,-3.5944,-3.5973,-3.5996,-3.5996,-3.5996,-3.5996,-3.5996,-3.5995,-3.5995,-3.5995,-3.5995,-3.5995,-3.5995,-3.5995,-3.5996,-3.5996,-3.5996,-3.5996,-3.5996,-3.5996,-3.5996,-3.5996,-3.5996,-3.5996,-5.2126,-5.1606,-5.1058,-5.0914,-5.0789,-5.0712,0.0,0.0,0.0,0.0,0.0,0.0,0.0,0.0,0.0,0.0,0.0,0.0,0.0,0.0,0.0,0.0,0.0,0.0,0.0,0.0,0.0,0.0,0.0,0.0,0.0,-4.559,-4.4857,-4.3551,-4.3515,-4.3515,-4.3515,-4.3515,-4.3515,-4.3478,-4.1882,-4.1095,-4.104,-3.9426,-3.8707,0.0,0.0,0.0,-3.9152,-3.9481,-3.9797,-4.0139,-4.0397,-4.0496,-4.0419,-3.9727,-3.9419,-3.9304,-3.9304,-3.9391,-3.9511,-3.9573,-3.9599,-3.9754,-4.0577,-4.0255,-3.9262,-3.7685,-3.657,-3.5823,-3.5836,-3.5799,-3.5764,-3.5892,-3.5921,-3.5929,-3.599,-3.5992,-3.5992,-3.5992,-3.5994,-3.5995,-3.5995,-3.5996,-3.5996,-3.5996,-3.5996,-3.5996,-3.5996,-3.5996,-3.5996,-3.5996,-3.5996,-3.5996,-3.5996,-3.5996,-3.5996,-3.5996,-3.5996,-3.5996,-3.5996,-3.5996,-3.5996,-3.5996,-3.5996,-3.5996,-3.5996,-3.5996,-3.5996,-3.5996,-3.5996,-3.5996,-5.3021,-5.2914,-5.2645,-5.1904,-5.1202,-5.0712,0.0,0.0,0.0,0.0,0.0,0.0,0.0,0.0,0.0,0.0,0.0,0.0,0.0,0.0,0.0,0.0,0.0,0.0,0.0,0.0,0.0,0.0,0.0,0.0,0.0,-4.4581,-4.3754,-4.3515,-4.3515,-4.3515,-4.3515,-4.3515,-4.3515,-4.3478,-4.1882,-4.1095,-4.104,-3.9426,-3.8707,0.0,0.0,-3.8921,-3.9292,-3.9512,-3.9829,-4.0214,-4.0425,-4.0496,-4.0496,-4.0362,-3.9881,-3.9304,-3.9295,-3.9774,-4.0414,-4.0474,-4.0546,-4.0615,-4.0819,-4.0276,-3.9546,-3.931,-3.8105,-3.688,-3.6941,-3.6407,-3.5892,-3.5973,-3.5975,-3.5995,-3.5996,-3.5996,-3.5996,-3.5996,-3.5996,-3.5996,-3.5996,-3.5996,-3.5996,-3.5996,-3.5996,-3.5996,-3.5996,-3.5996,-3.5996,-3.5996,-3.5996,-3.5996,-3.5996,-3.5996,-3.5996,-3.5996,-3.5996,-3.5996,-3.5996,-3.5996,-3.5996,-3.5996,-3.5996,-3.5996,-3.5996,-3.5996,-3.5996,-3.5996,-3.5996,-3.5996,-5.3783,-5.355,-5.3106,-5.2692,-5.1972,-5.1221,0.0,0.0,0.0,0.0,0.0,0.0,0.0,0.0,0.0,0.0,0.0,0.0,0.0,0.0,0.0,0.0,0.0,0.0,0.0,0.0,0.0,0.0,0.0,0.0,0.0,0.0,-4.3956,-4.3497,-4.3515,-4.3515,-4.3515,-4.3515,-4.3515,-4.3496,-4.2304,-4.1517,-4.1058,-3.9882,-3.9142,-3.8765,0.0,-3.9136,-3.9531,-3.9765,-4.0053,-4.0364,-4.0465,-4.0496,-4.0496,-4.0496,-4.0292,-3.9988,-3.9993,-4.0298,-4.0661,-4.0739,-4.0808,-4.0862,-4.0893,-4.0669,-4.0427,-4.0452,-3.9191,-3.7868,-3.7884,-3.7625,-3.738,-3.7402,-3.7402,-3.7285,-3.6797,-3.6699,-3.6562,-3.6094,-3.5996,-3.5996,-3.5996,-3.5996,-3.5996,-3.5996,-3.5996,-3.5996,-3.5996,-3.5996,-3.5996,-3.5996,-3.5996,-3.5996,-3.5996,-3.5996,-3.5996,-3.5996,-3.5996,-3.5996,-3.5996,-3.5996,-3.5996,-3.5996,-3.5996,-3.5996,-3.5996,-3.5996,-3.5996,-3.5996,-3.5996,-3.5996,-5.4082,-5.3849,-5.3414,-5.301,0.0,-5.151,0.0,0.0,0.0,0.0,0.0,0.0,0.0,0.0,0.0,0.0,0.0,0.0,0.0,0.0,0.0,0.0,0.0,0.0,0.0,0.0,0.0,0.0,0.0,0.0,0.0,0.0,-4.414,-4.3533,-4.3515,-4.3515,-4.3515,-4.3515,-4.3515,-4.3496,-4.2671,-4.1882,-4.1058,-4.0267,-3.9488,-3.8803,-3.9013,-3.9333,-3.972,-3.9992,-4.0269,-4.0496,-4.0496,-4.0496,-4.0496,-4.0523,-4.0565,-4.0595,-4.0626,-4.0661,-4.0707,-4.0784,-4.0859,-4.0893,-4.0915,-4.1,-4.1091,-4.1117,-4.0162,-3.9089,-3.8874,-3.8708,-3.8594,-3.8594,-3.8594,-3.8418,-3.7754,-3.7598,-3.7402,-3.6738,-3.6601,-3.6601,-3.6601,-3.6601,-3.6601,-3.6601,-3.6601,-3.6601,-3.6601,-3.6601,-3.6523,-3.6328,-3.6484,-3.6523,-3.6328,-3.6309,-3.6309,-3.6309,-3.6113,-3.5996,-3.5996,-3.5996,-3.5996,-3.5996,-3.5996,-3.5996,-3.5996,-3.5996,-3.5996,-3.5996,-3.5996,-3.5996,-5.3533,-5.3837,-5.401,-5.2404,0.0,0.0,0.0,0.0,0.0,0.0,0.0,0.0,0.0,0.0,0.0,0.0,0.0,0.0,0.0,0.0,0.0,0.0,0.0,0.0,0.0,0.0,0.0,0.0,0.0,0.0,0.0,0.0,0.0,-4.3515,-4.3515,-4.3515,-4.3515,-4.3515,-4.3515,-4.3496,-4.2671,-4.1882,-4.1058,-4.0267,-3.9488,-3.8803,-3.9013,-3.9333,-3.972,-3.9992,-4.0269,-4.0496,-4.0496,-4.0496,-4.0516,-4.0573,-4.0607,-4.0615,-4.0673,-4.0694,-4.0707,-4.0784,-4.0859,-4.0906,-4.0963,-4.1033,-4.1115,-4.117,-4.1094,-4.082,-4.0019,-3.9199,-3.8594,-3.8594,-3.8594,-3.8574,-3.8516,-3.8516,-3.8496,-3.8437,-3.8418,-3.8418,-3.8418,-3.8418,-3.8418,-3.8418,-3.8418,-3.8418,-3.8418,-3.8418,-3.8105,-3.7285,-3.793,-3.8086,-3.7285,-3.7207,-3.7207,-3.7207,-3.6445,-3.5996,-3.5996,-3.5996,-3.5996,-3.5996,-3.5996,-3.5996,-3.5996,-3.5996,-3.5996,-3.5996,-3.5996,-3.5996,-5.2463,-5.2329,-5.1972,-5.1318,0.0,0.0,0.0,0.0,0.0,0.0,0.0,0.0,0.0,0.0,0.0,0.0,0.0,0.0,0.0,0.0,0.0,0.0,0.0,0.0,0.0,0.0,0.0,0.0,0.0,0.0,0.0,0.0,0.0,-4.3496,-4.3699,-4.3716,-4.3496,-4.3515,-4.3515,-4.3515,-4.3185,-4.2359,-4.1095,-4.0765,-4.0087,-3.9124,-3.9327,-3.9634,-4.0032,-4.0258,-4.0406,-4.0496,-4.0496,-4.0531,-4.0565,-4.058,-4.0636,-4.066,-4.0687,-4.1042,-4.1525,-4.1588,-4.2014,-4.2528,-4.2595,-4.2656,-4.2615,-4.209,-4.1953,-4.1758,-4.0918,-4.0469,-4.0215,-4.0215,-4.0215,-4.0078,-3.9531,-3.9414,-3.9258,-3.8711,-3.8594,-3.8594,-3.8594,-3.8594,-3.8594,-3.8594,-3.8594,-3.8594,-3.8594,-3.8594,-3.8476,-3.8144,-3.8398,-3.8476,-3.8144,-3.8105,-3.8105,-3.8105,-3.7285,-3.6816,-3.6816,-3.6289,-3.5996,-3.5996,-3.5996,-3.5996,-3.5996,-3.5996,-3.5996,-3.5996,-3.5996,-3.5996,-5.1275,-5.1009,-5.0712,0.0,0.0,0.0,0.0,0.0,0.0,0.0,0.0,0.0,0.0,0.0,0.0,0.0,0.0,0.0,0.0,0.0,0.0,0.0,0.0,0.0,0.0,0.0,0.0,0.0,0.0,0.0,0.0,0.0,0.0,0.0,-4.383,-4.3846,-4.3496,-4.3515,-4.3515,-4.3515,-4.3599,-4.2899,-4.1479,-4.1333,-4.0674,-3.9679,-3.9731,-3.9932,-4.0223,-4.0425,-4.0496,-4.0496,-4.0496,-4.0712,-4.1012,-4.1007,-4.1205,-4.1454,-4.1196,-4.168,-4.2383,-4.2165,-4.2751,-4.3503,-4.358,-4.3646,-4.3516,-4.2656,-4.2402,-4.2207,-4.1406,-4.1191,-4.1191,-4.1191,-4.1191,-4.1035,-4.0449,-4.0312,-4.0137,-3.9531,-3.9414,-3.9414,-3.9414,-3.9414,-3.9414,-3.9414,-3.9414,-3.9414,-3.9414,-3.9414,-3.9414,-3.9414,-3.8926,-3.8711,-3.8984,-3.9004,-3.9004,-3.9004,-3.8457,-3.8008,-3.7715,-3.7148,-3.6816,-3.6816,-3.6816,-3.6816,-3.6816,-3.6816,-3.6816,-3.6816,-3.6816,-3.6816,-4.9974,-5.0067,0.0,0.0,0.0,0.0,0.0,0.0,0.0,0.0,0.0,0.0,0.0,0.0,0.0,0.0,0.0,0.0,0.0,0.0,0.0,0.0,0.0,0.0,0.0,0.0,0.0,0.0,0.0,0.0,0.0,0.0,0.0,0.0,-4.383,-4.3846,-4.3515,-4.3515,-4.3515,-4.3515,-4.3846,-4.3405,-4.2284,-4.1831,-4.1213,-4.0496,-4.0228,-4.0148,-4.0223,-4.0425,-4.0496,-4.0516,-4.0516,-4.1097,-4.1905,-4.1912,-4.2449,-4.309,-4.2286,-4.2589,-4.3176,-4.2378,-4.2751,-4.3542,-4.3619,-4.3666,-4.3535,-4.2676,-4.2422,-4.2246,-4.1426,-4.1211,-4.1211,-4.1191,-4.1191,-4.1191,-4.1191,-4.1191,-4.1191,-4.1191,-4.1191,-4.1191,-4.1191,-4.1191,-4.1191,-4.1191,-4.1191,-4.1191,-4.1191,-4.1191,-4.1191,-4.1191,-3.9668,-3.8965,-3.9844,-3.9902,-3.9902,-3.9902,-3.9902,-3.9512,-3.8652,-3.8594,-3.8594,-3.8594,-3.8594,-3.8594,-3.8594,-3.8594,-3.8594,-3.8594,-3.8594,-3.8594,-4.8053,0.0,0.0,0.0,0.0,0.0,0.0,0.0,0.0,0.0,0.0,0.0,0.0,0.0,0.0,0.0,0.0,0.0,0.0,0.0,0.0,0.0,0.0,0.0,0.0,0.0,0.0,0.0,0.0,0.0,0.0,0.0,0.0,0.0,-4.4231,-4.4132,-4.3844,-4.3615,-4.3615,-4.3862,-4.3958,-4.3494,-4.2582,-4.2721,-4.2479,-4.1882,-4.1212,-4.1093,-4.1281,-4.0723,-4.0854,-4.1412,-4.1463,-4.2029,-4.2818,-4.2804,-4.3013,-4.3233,-4.2989,-4.3524,-4.4256,-4.4059,-4.4621,-4.5412,-4.5482,-4.5507,-4.5351,-4.4473,-4.4238,-4.4023,-4.3183,-4.2969,-4.2656,-4.1484,-4.1191,-4.1191,-4.1191,-4.1191,-4.1191,-4.1191,-4.1191,-4.1191,-4.1191,-4.1191,-4.1191,-4.1191,-4.1191,-4.1191,-4.1191,-4.1191,-4.1191,-4.1191,-4.0742,-4.0527,-4.0781,-4.0801,-4.0801,-4.0801,-4.0801,-4.043,-3.9551,-3.8926,-3.8594,-3.8594,-3.8594,-3.8594,-3.8594,-3.8594,-3.8594,-3.8594,-3.8594,-3.8594,-4.8152,0.0,0.0,0.0,0.0,0.0,0.0,0.0,0.0,0.0,0.0,0.0,0.0,0.0,0.0,0.0,0.0,0.0,0.0,0.0,0.0,0.0,0.0,0.0,0.0,0.0,0.0,0.0,0.0,0.0,0.0,0.0,0.0,0.0,-4.4506,-4.4374,-4.4005,-4.3798,-4.3798,-4.4005,-4.4106,-4.3955,-4.3567,-4.3485,-4.3277,-4.2944,-4.2298,-4.2139,-4.2277,-4.1739,-4.1835,-4.2316,-4.2364,-4.293,-4.3728,-4.3726,-4.3954,-4.424,-4.3969,-4.4442,-4.5167,-4.4926,-4.5462,-4.6209,-4.6288,-4.6308,-4.6113,-4.5254,-4.5,-4.4805,-4.3926,-4.3691,-4.3457,-4.2422,-4.2187,-4.2187,-4.2187,-4.1914,-4.168,-4.168,-4.1426,-4.1191,-4.1191,-4.1191,-4.1191,-4.1191,-4.1191,-4.1191,-4.1191,-4.1191,-4.1191,-4.1191,-4.1191,-4.1191,-4.1191,-4.1191,-4.1191,-4.1191,-4.1191,-4.0957,-4.0449,-3.9902,-3.9629,-3.9629,-3.9629,-3.9629,-3.9629,-3.9629,-3.9629,-3.9629,-3.9629,-3.9629,0.0,0.0,0.0,0.0,0.0,0.0,0.0,0.0,0.0,0.0,0.0,0.0,0.0,0.0,0.0,0.0,0.0,0.0,0.0,0.0,0.0,0.0,0.0,0.0,0.0,0.0,0.0,0.0,0.0,0.0,0.0,0.0,0.0,-4.4511,-4.4688,-4.4578,-4.4079,-4.4048,-4.4048,0.0,-4.4318,-4.4612,-4.4931,-4.4197,-4.383,-4.3738,-4.3376,-4.3162,-4.3104,-4.3104,-4.3143,-4.3209,-4.3238,-4.3806,-4.4616,-4.4622,-4.5121,-4.5711,-4.5046,-4.5346,-4.5891,-4.5224,-4.5563,-4.6213,-4.6288,-4.6308,-4.6133,-4.5332,-4.5117,-4.4941,-4.4141,-4.3945,-4.3945,-4.3945,-4.3828,-4.3691,-4.3691,-4.3086,-4.2519,-4.2519,-4.1933,-4.1426,-4.1426,-4.1426,-4.1406,-4.1328,-4.125,-4.1191,-4.1191,-4.1191,-4.1191,-4.1191,-4.1191,-4.1191,-4.1191,-4.1191,-4.1191,-4.1191,-4.1191,-4.1191,-4.1191,-4.1191,-4.1191,-4.1191,-4.1191,-4.1191,-4.1191,-4.1191,-4.1191,-4.1191,-4.1191,-4.1191,0.0,0.0,0.0,0.0,0.0,0.0,0.0,0.0,0.0,0.0,0.0,0.0,0.0,0.0,0.0,0.0,0.0,0.0,0.0,0.0,0.0,0.0,0.0,0.0,0.0,0.0,0.0,0.0,0.0,0.0,0.0,0.0,0.0,-4.5136,-4.491,-4.4739,-4.4624,-4.443,-4.443,0.0,-4.4688,-4.4922,-4.5298,-4.512,-4.4729,-4.4171,-4.4079,-4.3682,-4.3104,-4.3104,-4.3495,-4.4124,-4.4172,-4.4739,-4.5529,-4.5527,-4.5645,-4.5789,-4.5745,-4.5881,-4.6052,-4.5952,-4.6083,-4.6288,-4.6308,-4.6308,-4.6269,-4.6074,-4.6016,-4.5976,-4.5781,-4.5742,-4.5742,-4.5742,-4.4707,-4.3691,-4.3691,-4.3555,-4.3418,-4.3418,-4.3281,-4.3164,-4.3164,-4.3164,-4.293,-4.2246,-4.1601,-4.1191,-4.1191,-4.1191,-4.1191,-4.1191,-4.1191,-4.1191,-4.1191,-4.1191,-4.1191,-4.1191,-4.1191,-4.1191,-4.1191,-4.1191,-4.1191,-4.1191,-4.1191,-4.1191,-4.1191,-4.1191,-4.1191,-4.1191,-4.1191,-4.1191,0.0,0.0,0.0,0.0,0.0,0.0,0.0,0.0,0.0,0.0,0.0,0.0,0.0,0.0,0.0,0.0,0.0,0.0,0.0,0.0,0.0,0.0,0.0,0.0,0.0,0.0,0.0,0.0,0.0,0.0,0.0,-4.6615,-4.5736,-4.5307,-4.5121,-4.4957,-4.48,-4.4663,-4.4663,-4.4788,-4.4825,-4.506,-4.5438,-4.5448,-4.5254,-4.4913,-4.4913,-4.4682,-4.4306,-4.4322,-4.4617,-4.5035,-4.5098,-4.5399,-4.5795,-4.5793,-4.5848,-4.5904,-4.5998,-4.6091,-4.6155,-4.6235,-4.6267,-4.6308,-4.6308,-4.6308,-4.6308,-4.6308,-4.6308,-4.6308,-4.6308,-4.6308,-4.6308,-4.6308,-4.5605,-4.4941,-4.4941,-4.4629,-4.4316,-4.4316,-4.3984,-4.3691,-4.3691,-4.3691,-4.3555,-4.3086,-4.2676,-4.2402,-4.2402,-4.2031,-4.1933,-4.2344,-4.2012,-4.1777,-4.1777,-4.1777,-4.1601,-4.1211,-4.1191,-4.1191,-4.1191,-4.1191,-4.1191,-4.1191,-4.1191,-4.1191,-4.1191,-4.1191,-4.1191,-4.1191,-4.1191,-4.1191,0.0,0.0,0.0,0.0,0.0,0.0,0.0,0.0,0.0,0.0,0.0,0.0,0.0,0.0,0.0,0.0,0.0,0.0,0.0,0.0,0.0,0.0,0.0,0.0,0.0,0.0,0.0,0.0,0.0,0.0,-4.7807,-4.6492,-4.5623,-4.5307,-4.5307,-4.5173,-4.4879,-4.4879,-4.4891,-4.4903,-4.4973,-4.518,-4.5504,-4.5513,-4.5559,-4.5594,-4.5594,-4.5594,-4.5614,-4.5665,-4.5701,-4.5698,-4.5777,-4.5788,-4.5803,-4.5793,-4.5873,-4.6017,-4.6072,-4.6142,-4.6209,-4.6288,-4.6308,-4.6308,-4.6308,-4.6308,-4.6308,-4.6308,-4.6406,-4.6484,-4.6348,-4.6406,-4.6484,-4.6348,-4.6308,-4.6308,-4.6308,-4.5723,-4.5215,-4.5215,-4.4648,-4.4141,-4.4141,-4.4023,-4.3926,-4.3926,-4.3808,-4.3691,-4.3691,-4.3066,-4.2891,-4.3613,-4.3047,-4.2617,-4.2617,-4.2617,-4.2344,-4.168,-4.1484,-4.1406,-4.1406,-4.1269,-4.1191,-4.1191,-4.1191,-4.1191,-4.1191,-4.1191,-4.1191,-4.1191,-4.1191,-4.1191,0.0,0.0,0.0,0.0,0.0,0.0,0.0,0.0,0.0,0.0,0.0,0.0,0.0,0.0,0.0,0.0,0.0,0.0,0.0,0.0,0.0,0.0,0.0,0.0,0.0,0.0,0.0,0.0,0.0,0.0,-4.7876,-4.7644,-4.687,-4.5345,-4.5307,-4.5286,-4.5235,-4.5235,-4.5267,-4.5309,-4.539,-4.5438,-4.5504,-4.5568,-4.5586,-4.5594,-4.5594,-4.5594,-4.5614,-4.5665,-4.5706,-4.57,-4.5765,-4.581,-4.58,-4.58,-4.5873,-4.6017,-4.6072,-4.6142,-4.6209,-4.6288,-4.6308,-4.6308,-4.6308,-4.6308,-4.6308,-4.6308,-4.6836,-4.7246,-4.6504,-4.6855,-4.7246,-4.6484,-4.6308,-4.6308,-4.6308,-4.6211,-4.6133,-4.6133,-4.6035,-4.5957,-4.5957,-4.5332,-4.4824,-4.4824,-4.418,-4.3691,-4.3691,-4.3594,-4.3574,-4.3691,-4.3594,-4.3535,-4.3535,-4.3535,-4.3476,-4.3379,-4.2656,-4.2246,-4.2246,-4.1562,-4.1191,-4.1191,-4.1191,-4.1191,-4.1191,-4.1191,-4.1191,-4.1191,-4.1191,-4.1191,0.0,0.0,0.0,0.0,0.0,0.0,0.0,0.0,0.0,0.0,0.0,0.0,0.0,0.0,0.0,0.0,0.0,0.0,0.0,0.0,0.0,0.0,0.0,0.0,0.0,0.0,0.0,0.0,0.0,-4.8754,-4.7954,-4.6998,-4.6156,-4.5367,-4.5367,-4.5338,-4.5307,-4.5338,-4.5389,-4.5458,-4.5495,-4.5513,-4.5559,-4.5586,-4.5594,-4.5594,-4.5594,-4.5631,-4.5657,-4.5698,-4.5719,-4.5765,-4.5783,-4.5793,-4.5807,-4.5807,-4.5902,-4.6052,-4.6087,-4.6162,-4.6265,-4.6289,-4.6621,-4.7031,-4.7031,-4.7363,-4.7754,-4.7754,-4.8027,-4.8242,-4.7851,-4.8047,-4.8223,-4.7851,-4.7754,-4.7754,-4.7754,-4.6992,-4.6308,-4.6308,-4.6308,-4.6308,-4.6308,-4.5976,-4.5723,-4.5723,-4.5391,-4.5156,-4.5156,-4.4726,-4.4629,-4.5098,-4.4726,-4.4433,-4.4433,-4.4433,-4.4219,-4.373,-4.334,-4.291,-4.2422,-4.2051,-4.166,-4.1211,-4.1191,-4.1191,-4.1191,-4.1191,-4.1191,-4.1191,-4.1191,-4.1191,0.0,0.0,0.0,0.0,0.0,0.0,0.0,0.0,0.0,0.0,0.0,0.0,0.0,0.0,0.0,0.0,0.0,0.0,0.0,0.0,0.0,0.0,0.0,0.0,0.0,0.0,0.0,0.0,0.0,-4.8249,-4.8018,-4.657,-4.5649,-4.5409,-4.5409,-4.5389,-4.5329,-4.5399,-4.5448,-4.5504,-4.5513,-4.5675,-4.5932,-4.5932,-4.6028,-4.622,-4.6009,-4.5967,-4.6009,-4.6012,-4.6078,-4.6116,-4.5889,-4.5807,-4.5807,-4.5848,-4.5958,-4.6121,-4.6375,-4.6536,-4.668,-4.6894,-4.7402,-4.793,-4.793,-4.8379,-4.8906,-4.8906,-4.9062,-4.918,-4.8965,-4.9062,-4.918,-4.8945,-4.8906,-4.8906,-4.8906,-4.7695,-4.6621,-4.6621,-4.6445,-4.6308,-4.6308,-4.6308,-4.6308,-4.6308,-4.6308,-4.6308,-4.6308,-4.5723,-4.5586,-4.623,-4.5723,-4.5332,-4.5332,-4.5332,-4.5058,-4.4394,-4.4141,-4.373,-4.3086,-4.2851,-4.2344,-4.1523,-4.1504,-4.1406,-4.1191,-4.1191,-4.1191,-4.1191,-4.1191,-4.1191,0.0,0.0,0.0,0.0,0.0,0.0,0.0,0.0,0.0,0.0,0.0,0.0,0.0,0.0,0.0,0.0,0.0,0.0,0.0,0.0,0.0,0.0,0.0,0.0,0.0,0.0,0.0,0.0,0.0,-4.8942,-4.8056,-4.7194,-4.6311,-4.5419,-4.54,-4.54,-4.54,-4.5467,-4.5495,-4.5504,-4.5568,-4.6028,-4.6827,-4.6827,-4.7259,-4.7932,-4.7163,-4.6824,-4.6838,-4.691,-4.6978,-4.6947,-4.6121,-4.5807,-4.5821,-4.5933,-4.6041,-4.6229,-4.7123,-4.7471,-4.7676,-4.8496,-4.8808,-4.8828,-4.8828,-4.8867,-4.8906,-4.8906,-4.9492,-4.9941,-4.9101,-4.9512,-4.9922,-4.9101,-4.8906,-4.8906,-4.8906,-4.8183,-4.7539,-4.7539,-4.6875,-4.6308,-4.6308,-4.6308,-4.6308,-4.6308,-4.6308,-4.6308,-4.6308,-4.6269,-4.625,-4.6308,-4.6269,-4.623,-4.623,-4.623,-4.6211,-4.6172,-4.5391,-4.4902,-4.4863,-4.4062,-4.3223,-4.2344,-4.2344,-4.1953,-4.1191,-4.1191,-4.1191,-4.1191,-4.1191,-4.1191,0.0,0.0,0.0,0.0,0.0,0.0,0.0,0.0,0.0,0.0,0.0,0.0,0.0,0.0,0.0,0.0,0.0,0.0,0.0,0.0,0.0,0.0,0.0,0.0,0.0,0.0,0.0,0.0,0.0,0.0,-4.8107,-4.7299,-4.6425,-4.5495,-4.5457,-4.5457,-4.5457,-4.5495,-4.5801,-4.6405,-4.6423,-4.6874,-4.7682,-4.7682,-4.7836,-4.8125,-4.8422,-4.8274,-4.7805,-4.7822,-4.7862,-4.7893,-4.7599,-4.7463,-4.7485,-4.7569,-4.7641,-4.7765,-4.8181,-4.837,-4.8496,-4.8808,-4.9277,-4.9726,-4.9726,-5.0098,-5.0508,-5.0508,-5.0723,-5.0898,-5.0586,-5.0742,-5.0898,-5.0586,-5.0508,-5.0508,-5.0508,-4.9414,-4.8437,-4.8437,-4.8183,-4.7969,-4.7969,-4.7969,-4.7773,-4.7226,-4.7129,-4.6933,-4.6367,-4.6308,-4.6308,-4.6308,-4.6308,-4.6308,-4.6308,-4.6308,-4.6308,-4.6308,-4.6016,-4.5586,-4.5019,-4.4707,-4.4121,-4.3242,-4.2676,-4.1992,-4.1191,-4.1191,-4.1191,-4.1191,-4.1191,-4.1191,0.0,0.0,0.0,0.0,0.0,0.0,0.0,0.0,0.0,0.0,0.0,0.0,0.0,0.0,0.0,0.0,0.0,0.0,0.0,0.0,0.0,0.0,0.0,0.0,0.0,0.0,0.0,0.0,0.0,0.0,-4.8144,-4.7586,-4.701,-4.6387,-4.6118,-4.6098,-4.6367,-4.6098,-4.6424,-4.7288,-4.7288,-4.774,-4.8548,-4.8548,-4.8711,-4.9018,-4.9623,-4.9457,-4.8698,-4.8734,-4.8775,-4.8817,-4.8508,-4.8409,-4.8432,-4.8505,-4.8584,-4.8719,-4.9139,-4.9293,-4.9375,-4.9648,-5.0137,-5.0605,-5.0605,-5.0976,-5.1406,-5.1406,-5.1406,-5.1406,-5.1406,-5.1406,-5.1406,-5.1406,-5.1406,-5.1406,-5.1406,-5.0312,-4.9336,-4.9336,-4.9101,-4.8906,-4.8906,-4.8906,-4.8691,-4.8125,-4.8047,-4.7715,-4.6855,-4.6738,-4.6621,-4.6328,-4.6308,-4.6308,-4.6308,-4.6308,-4.6308,-4.6308,-4.6308,-4.6035,-4.5469,-4.5449,-4.5039,-4.4141,-4.3574,-4.2715,-4.1601,-4.1328,-4.1191,-4.1191,-4.1191,-4.1191,0.0,0.0,0.0,0.0,0.0,0.0,0.0,0.0,0.0,0.0,0.0,0.0,0.0,0.0,0.0,0.0,0.0,0.0,0.0,0.0,0.0,0.0,0.0,0.0,0.0,0.0,0.0,0.0,0.0,-4.9067,-4.8182,-4.8105,-4.8105,-4.8105,-4.7327,-4.7317,-4.8086,-4.7336,-4.7336,-4.8144,-4.8144,-4.8586,-4.9433,-4.9433,-4.9904,-5.0701,-5.0701,-5.0266,-4.9547,-4.9608,-4.9687,-4.9649,-4.8798,-4.8528,-4.8582,-4.8639,-4.8755,-4.9002,-4.992,-5.0234,-5.0351,-5.1152,-5.1406,-5.1406,-5.1406,-5.1406,-5.1406,-5.1406,-5.1406,-5.1406,-5.1406,-5.1406,-5.1406,-5.1406,-5.1406,-5.1406,-5.1406,-5.0781,-5.0234,-5.0234,-4.9551,-4.8965,-4.8965,-4.8965,-4.8965,-4.8945,-4.8945,-4.8613,-4.7715,-4.7598,-4.7266,-4.6387,-4.6308,-4.6308,-4.6308,-4.6308,-4.6308,-4.6308,-4.6308,-4.6308,-4.6308,-4.6308,-4.5898,-4.5058,-4.5019,-4.4141,-4.2441,-4.1621,-4.1211,-4.1191,-4.1191,-4.1191,-4.2393,0.0,0.0,0.0,0.0,0.0,0.0,0.0,0.0,0.0,0.0,0.0,0.0,0.0,0.0,0.0,0.0,0.0,0.0,0.0,0.0,0.0,0.0,0.0,0.0,0.0,0.0,0.0,-5.0481,-4.9952,-4.9086,-4.8432,-4.8105,-4.8105,-4.7875,-4.7875,-4.8105,-4.7875,-4.8202,-4.9048,-4.9048,-4.949,-5.0346,-5.0346,-5.0462,-5.0701,-5.0738,-5.0666,-5.0516,-5.0532,-5.0557,-5.0531,-5.0299,-5.0285,-5.0384,-5.0469,-5.053,-5.0658,-5.0955,-5.1074,-5.1094,-5.1328,-5.1406,-5.1406,-5.1406,-5.1406,-5.1406,-5.1406,-5.1406,-5.1406,-5.1406,-5.1406,-5.1406,-5.1406,-5.1406,-5.1406,-5.1406,-5.123,-5.1074,-5.1074,-5.0879,-5.0703,-5.0703,-5.0703,-5.0508,-4.9922,-4.9844,-4.9297,-4.7793,-4.7598,-4.7266,-4.6387,-4.6308,-4.6308,-4.6308,-4.6308,-4.6308,-4.6308,-4.6308,-4.6308,-4.6308,-4.6308,-4.6191,-4.5957,-4.5312,-4.4453,-4.334,-4.248,-4.1777,-4.1191,-4.1191,-4.1191,0.0,0.0,0.0,0.0,0.0,0.0,0.0,0.0,0.0,0.0,0.0,0.0,0.0,0.0,0.0,0.0,0.0,0.0,0.0,0.0,0.0,0.0,0.0,0.0,0.0,0.0,0.0,-5.0712,-5.0712,-5.0481,-4.9971,-4.9125,-4.8817,-4.9163,-4.8836,-4.8817,-4.9183,-4.8817,-4.9086,-4.9933,-4.9933,-5.0212,-5.0712,-5.0712,-5.0731,-5.0738,-5.0784,-5.0836,-5.0905,-5.0905,-5.0901,-5.0898,-5.0898,-5.0998,-5.1142,-5.1183,-5.1266,-5.1358,-5.1386,-5.1406,-5.1406,-5.1406,-5.1406,-5.1406,-5.1406,-5.1406,-5.1406,-5.1406,-5.1406,-5.1406,-5.1406,-5.1406,-5.1406,-5.1406,-5.1406,-5.1406,-5.1406,-5.1406,-5.1406,-5.1406,-5.1406,-5.1406,-5.1406,-5.1406,-5.123,-5.0762,-5.0703,-5.0215,-4.8867,-4.8672,-4.8203,-4.6973,-4.6836,-4.6699,-4.6328,-4.6308,-4.6308,-4.6308,-4.6308,-4.6308,-4.6308,-4.6308,-4.6308,-4.6308,-4.5801,-4.4922,-4.3691,-4.2832,-4.1992,-4.1191,-4.1191,-4.1191,0.0,0.0,0.0,0.0,0.0,0.0,-4.674,-4.6932,0.0,0.0,0.0,0.0,0.0,0.0,0.0,0.0,0.0,0.0,0.0,0.0,0.0,0.0,0.0,0.0,0.0,-5.0712,-5.0712,-5.0712,-5.0712,-5.0712,-5.0712,-4.9971,-4.9894,-5.0673,-4.9952,-4.9913,-5.0693,-4.9933,-4.9933,-5.0712,-5.0712,-5.0712,-5.0712,-5.0693,-5.073,-5.0801,-5.0801,-5.0833,-5.0898,-5.0898,-5.0898,-5.0898,-5.0921,-5.1042,-5.1203,-5.1211,-5.1291,-5.1406,-5.1406,-5.1406,-5.1406,-5.1406,-5.1406,-5.1406,-5.1406,-5.1406,-5.1406,-5.1406,-5.1406,-5.1406,-5.1406,-5.1406,-5.1406,-5.1406,-5.1406,-5.1406,-5.1406,-5.1406,-5.1406,-5.1406,-5.1406,-5.1406,-5.1406,-5.1406,-5.1406,-5.1406,-5.1406,-5.1113,-5.0293,-5.0195,-4.9531,-4.7793,-4.7598,-4.7246,-4.6367,-4.6308,-4.6308,-4.6308,-4.6308,-4.6308,-4.6308,-4.6308,-4.6308,-4.6308,-4.6113,-4.5254,-4.3691,-4.2832,-4.1992,-4.1191,-4.1191,-4.1191,0.0,0.0,0.0,0.0,0.0,0.0,-4.3047,-4.3451,0.0,0.0,0.0,0.0,0.0,0.0,0.0,0.0,0.0,0.0,0.0,0.0,0.0,0.0,0.0,0.0,0.0,-5.0712,-5.0712,-5.0712,-5.0712,-5.0712,-5.0712,-5.0539,-5.0519,-5.0693,-5.0539,-5.0539,-5.0712,-5.0539,-5.0539,-5.0712,-5.0712,-5.0712,-5.0693,-5.0712,-5.0739,-5.0801,-5.0855,-5.0897,-5.0898,-5.0898,-5.0898,-5.0914,-5.1017,-5.1116,-5.1211,-5.1266,-5.1333,-5.1406,-5.1406,-5.1406,-5.1406,-5.1406,-5.1406,-5.1406,-5.1406,-5.1406,-5.1406,-5.1406,-5.1406,-5.1406,-5.1406,-5.1406,-5.1406,-5.1406,-5.1406,-5.1406,-5.1406,-5.1406,-5.1406,-5.1406,-5.1406,-5.1406,-5.1406,-5.1406,-5.1406,-5.1406,-5.1406,-5.1113,-5.0293,-5.0195,-4.9531,-4.7793,-4.7598,-4.7246,-4.6367,-4.6308,-4.6308,-4.6308,-4.6308,-4.6308,-4.6308,-4.6308,-4.6308,-4.6308,-4.4922,-4.4043,-4.3691,-4.2832,-4.1992,-4.1191,-4.1191,-4.1191,0.0,0.0,0.0,-4.3912,0.0,0.0,0.0,0.0,-4.3701,0.0,0.0,0.0,0.0,0.0,0.0,0.0,0.0,0.0,0.0,0.0,0.0,0.0,0.0,0.0,0.0,-5.0712,-5.0712,-5.0712,-5.0712,-5.0712,-5.0712,-5.0712,-5.0712,-5.0712,-5.0712,-5.0712,-5.0712,-5.0712,-5.0712,-5.0712,-5.0712,-5.0712,-5.0693,-5.0702,-5.0748,-5.0801,-5.0863,-5.0905,-5.0898,-5.0898,-5.0898,-5.0914,-5.105,-5.1137,-5.1211,-5.1279,-5.1338,-5.1406,-5.1406,-5.1406,-5.1406,-5.1406,-5.1406,-5.1406,-5.1406,-5.1406,-5.1406,-5.1406,-5.1406,-5.1406,-5.1406,-5.1406,-5.1406,-5.1406,-5.1406,-5.1406,-5.1406,-5.1406,-5.1406,-5.1406,-5.1406,-5.1406,-5.1406,-5.1406,-5.1406,-5.1406,-5.1406,-5.125,-5.0859,-5.0801,-5.0137,-4.8437,-4.8242,-4.7715,-4.6406,-4.6308,-4.6308,-4.6308,-4.6308,-4.6308,-4.6308,-4.6308,-4.6308,-4.6308,-4.5449,-4.4785,-4.4355,-4.3906,-4.2832,-4.1191,-4.1191,-4.1191,0.0,0.0,0.0,0.0,0.0,-4.3585,0.0,0.0,0.0,-4.5481,0.0,0.0,0.0,0.0,0.0,0.0,0.0,0.0,0.0,0.0,0.0,0.0,0.0,0.0,0.0,-5.0558,-5.0519,-5.0693,-5.0539,-5.0519,-5.0693,-5.0712,-5.0712,-5.0712,-5.0712,-5.0712,-5.0712,-5.0712,-5.0712,-5.0712,-5.0712,-5.0712,-5.0693,-5.0711,-5.0757,-5.0801,-5.0872,-5.0893,-5.0898,-5.0898,-5.0898,-5.0914,-5.105,-5.1137,-5.1211,-5.1279,-5.1338,-5.1406,-5.1406,-5.1406,-5.1406,-5.1406,-5.1406,-5.1406,-5.1406,-5.1406,-5.1406,-5.1406,-5.1406,-5.1406,-5.1406,-5.1406,-5.1406,-5.1406,-5.1406,-5.1406,-5.1406,-5.1406,-5.1406,-5.1406,-5.1406,-5.1406,-5.1406,-5.1406,-5.1406,-5.1406,-5.1406,-5.1406,-5.1406,-5.1406,-5.082,-4.9316,-4.9004,-4.8262,-4.668,-4.6406,-4.6308,-4.6308,-4.6308,-4.6308,-4.6308,-4.6308,-4.6308,-4.6308,-4.6133,-4.5703,-4.5,-4.4824,-4.3613,-4.1445,-4.1601,-4.1504,0.0,0.0,0.0,0.0,-4.4278,0.0,0.0,0.0,-4.2019,-4.2308,0.0,0.0,0.0,0.0,0.0,0.0,0.0,0.0,0.0,0.0,0.0,0.0,0.0,0.0,0.0,0.0,-4.9875,-5.0635,-4.9971,-4.9875,-5.0654,-5.0712,-5.0712,-5.0712,-5.0712,-5.0712,-5.0712,-5.0712,-5.0712,-5.0712,-5.0712,-5.0712,-5.0693,-5.0767,-5.0793,-5.0801,-5.0858,-5.0898,-5.0898,-5.0898,-5.0898,-5.0914,-5.105,-5.1137,-5.1211,-5.1279,-5.1338,-5.1406,-5.1406,-5.1406,-5.1406,-5.1406,-5.1406,-5.1406,-5.1406,-5.1406,-5.1406,-5.1406,-5.1406,-5.1406,-5.1406,-5.1406,-5.1406,-5.1406,-5.1406,-5.1406,-5.1406,-5.1406,-5.1406,-5.1406,-5.1406,-5.1406,-5.1406,-5.1406,-5.1406,-5.1406,-5.1406,-5.1406,-5.1406,-5.1406,-5.1055,-5.0156,-4.9355,-4.8516,-4.7539,-4.6738,-4.6308,-4.6308,-4.6308,-4.6308,-4.6308,-4.6308,-4.6308,-4.6308,-4.5547,-4.5098,-4.5,-4.4219,-4.3301,-4.2285,-4.3066,-4.2617,0.0,0.0,0.0,0.0,0.0,0.0,-4.1797,0.0,-4.1181,0.0,0.0,0.0,0.0,0.0,0.0,0.0,0.0,0.0,0.0,0.0,0.0,0.0,0.0,0.0,0.0,0.0,0.0,0.0,0.0,-4.9779,-5.0654,-5.0712,-5.0712,-5.0712,-5.0712,-5.0712,-5.0712,-5.0712,-5.0712,-5.0712,-5.0712,-5.0712,-5.0693,-5.0776,-5.0801,-5.0801,-5.0866,-5.0898,-5.0898,-5.0898,-5.0898,-5.0914,-5.105,-5.1137,-5.1218,-5.1327,-5.1385,-5.1406,-5.1406,-5.1406,-5.1406,-5.1406,-5.1406,-5.1406,-5.1406,-5.1406,-5.1406,-5.1406,-5.1406,-5.1406,-5.1406,-5.1406,-5.1406,-5.1406,-5.1406,-5.1406,-5.1406,-5.1406,-5.1406,-5.1406,-5.1406,-5.1406,-5.1406,-5.1406,-5.1406,-5.1406,-5.1406,-5.1406,-5.1406,-5.1406,-5.1094,-5.0293,-4.9863,-4.9101,-4.7715,-4.7266,-4.6836,-4.6328,-4.6308,-4.6308,-4.6308,-4.6308,-4.6308,-4.6308,-4.5937,-4.5742,-4.5742,-4.5391,-4.4766,-4.3906,-4.3769,-4.3047,-4.596,0.0,0.0,0.0,0.0,0.0,0.0,0.0,0.0,0.0,0.0,0.0,0.0,0.0,0.0,0.0,0.0,0.0,0.0,0.0,0.0,0.0,0.0,0.0,0.0,0.0,0.0,0.0,0.0,0.0,-5.0635,-5.0712,-5.0712,-5.0712,-5.0712,-5.0712,-5.0712,-5.0712,-5.0712,-5.0712,-5.0712,-5.0712,-5.0693,-5.0776,-5.0801,-5.0801,-5.0866,-5.0898,-5.0898,-5.0898,-5.0898,-5.0921,-5.1074,-5.1162,-5.1218,-5.1331,-5.1386,-5.1406,-5.1406,-5.1406,-5.1406,-5.1406,-5.1406,-5.1406,-5.1406,-5.1406,-5.1406,-5.1406,-5.1406,-5.1406,-5.1406,-5.1406,-5.1406,-5.1406,-5.1406,-5.1406,-5.1406,-5.1406,-5.1406,-5.1406,-5.1406,-5.1406,-5.1406,-5.1406,-5.1406,-5.1406,-5.1406,-5.1406,-5.1406,-5.1406,-5.1172,-5.0586,-5.0332,-4.9687,-4.8418,-4.8086,-4.7578,-4.6719,-4.6426,-4.6308,-4.6308,-4.6308,-4.6308,-4.6308,-4.6308,-4.6308,-4.6308,-4.6308,-4.5976,-4.5332,-4.4707,-4.3828,0.0,0.0,0.0,-4.397,0.0,0.0,0.0,0.0,-4.1769,0.0,0.0,0.0,0.0,0.0,0.0,0.0,0.0,0.0,0.0,0.0,0.0,0.0,0.0,0.0,0.0,0.0,0.0,0.0,0.0,0.0,-5.0616,-5.0712,-5.0712,-5.0712,-5.0712,-5.0712,-5.0712,-5.0712,-5.0712,-5.0712,-5.0712,-5.0712,-5.0693,-5.0776,-5.0801,-5.0801,-5.0866,-5.0898,-5.0898,-5.0898,-5.0898,-5.091,-5.1123,-5.1199,-5.1211,-5.1282,-5.1338,-5.1406,-5.1406,-5.1406,-5.1406,-5.1406,-5.1406,-5.1406,-5.1406,-5.1406,-5.1406,-5.1406,-5.1406,-5.1406,-5.1406,-5.1406,-5.1406,-5.1406,-5.1406,-5.1406,-5.1406,-5.1406,-5.1406,-5.1406,-5.1406,-5.1406,-5.1406,-5.1406,-5.1406,-5.1406,-5.1406,-5.1406,-5.1406,-5.1406,-5.1387,-5.1367,-5.0664,-5.0176,-5.0117,-4.9336,-4.8496,-4.7617,-4.6777,-4.6308,-4.6308,-4.6308,-4.6308,-4.6308,-4.6308,-4.6308,-4.6308,-4.6308,-4.6289,-4.6269,-4.623,-4.5293,0.0,0.0,-4.8279,-4.5451,0.0,0.0,0.0,0.0,0.0,0.0,0.0,0.0,0.0,0.0,0.0,0.0,0.0,0.0,0.0,0.0,0.0,0.0,0.0,0.0,0.0,0.0,0.0,0.0,0.0,0.0,0.0,-5.0712,-5.0712,-5.0712,-5.0712,-5.0712,-5.0712,-5.0712,-5.0712,-5.0712,-5.0712,-5.0702,-5.0702,-5.0766,-5.0819,-5.0863,-5.0893,-5.0898,-5.0898,-5.0898,-5.0898,-5.091,-5.1128,-5.1203,-5.1218,-5.133,-5.1386,-5.1406,-5.1406,-5.1406,-5.1406,-5.1406,-5.1406,-5.1406,-5.1406,-5.1406,-5.1406,-5.1406,-5.1406,-5.1406,-5.1406,-5.1406,-5.1406,-5.1406,-5.1406,-5.1406,-5.1406,-5.1406,-5.1406,-5.1406,-5.1406,-5.1406,-5.1406,-5.1406,-5.1406,-5.1406,-5.1406,-5.1406,-5.1406,-5.1406,-5.1406,-5.1406,-5.1152,-5.0781,-5.0254,-4.9394,-4.8769,-4.8476,-4.7637,-4.7168,-4.7168,-4.6601,-4.6308,-4.6308,-4.6308,-4.6308,-4.6308,-4.6308,-4.6308,-4.6308,-4.6308,-4.5683,-4.8279,-4.874,0.0,-4.6624,-4.6067,0.0,-4.3201,0.0,0.0,0.0,0.0,0.0,0.0,0.0,0.0,0.0,0.0,0.0,0.0,0.0,0.0,0.0,0.0,0.0,0.0,0.0,-4.7077,-4.8544,0.0,0.0,0.0,0.0,-5.0712,-5.0712,-5.0712,-5.0712,-5.0712,-5.0712,-5.0712,-5.0712,-5.0712,-5.0693,-5.0701,-5.0775,-5.0838,-5.0899,-5.0901,-5.0898,-5.0898,-5.0898,-5.0898,-5.091,-5.1128,-5.1203,-5.1222,-5.1359,-5.1406,-5.1406,-5.1406,-5.1406,-5.1406,-5.1406,-5.1406,-5.1406,-5.1406,-5.1406,-5.1406,-5.1406,-5.1406,-5.1406,-5.1406,-5.1406,-5.1406,-5.1406,-5.1406,-5.1406,-5.1406,-5.1406,-5.1406,-5.1406,-5.1406,-5.1406,-5.1406,-5.1406,-5.1406,-5.1406,-5.1406,-5.1406,-5.1406,-5.1406,-5.1406,-5.1406,-5.1406,-5.1191,-5.0664,-4.9844,-4.9355,-4.9355,-4.8535,-4.793,-4.7617,-4.7051,-4.6621,-4.6308,-4.6308,-4.6308,-4.6308,-4.6308,-4.6308,-4.6308,-4.6308,-4.5996]},{"header":{"parameterUnit":"m.s-1","parameterCategory":1,"la1":30.6,"la2":29.2853,"lo1":-89.7004,"lo2":-87.6739,"dy":0.0162,"dx":0.0183,"nx":112,"ny":82,"refTime":"2025-03-09T06:00:00:Z","depth":0,"parameterNumber":3,"parameterNumberName":"V-component_of_WINDS"},"data":[0.0,0.0,0.0,0.0,0.0,0.0,0.0,0.0,0.0,0.0,0.0,0.0,0.0,0.0,0.0,0.0,0.0,0.0,0.0,0.0,0.0,0.0,0.0,0.0,0.0,0.0,0.0,0.0,0.0,0.0,0.0,0.0,0.0,0.0,0.0,0.0,0.0,0.0,0.0,0.0,0.0,0.0,0.0,0.0,0.0,0.0,0.0,0.0,0.0,0.0,0.0,0.0,0.0,0.0,0.0,0.0,0.0,0.0,0.0,0.0,0.0,0.0,0.0,0.0,0.0,0.0,0.0,0.0,0.0,0.0,0.0,0.0,0.0,0.0,0.0,0.0,0.0,0.0,0.0,0.0,0.0,0.0,0.0,0.0,0.0,0.0,0.0,0.0,0.0,0.0,0.0,-0.3113,-0.2479,-0.2912,-0.4972,-0.5269,-0.6054,-0.7612,0.0,0.0,0.0,0.0,0.0,0.0,0.0,0.0,0.0,0.0,0.0,0.0,0.0,0.0,0.0,0.0,0.0,0.0,0.0,0.0,0.0,0.0,0.0,0.0,0.0,0.0,0.0,0.0,0.0,0.0,0.0,0.0,0.0,0.0,0.0,0.0,0.0,0.0,0.0,0.0,0.0,0.0,0.0,0.0,0.0,0.0,0.0,0.0,0.0,0.0,0.0,0.0,0.0,0.0,0.0,0.0,0.0,0.0,0.0,0.0,0.0,0.0,0.0,0.0,0.0,0.0,0.0,0.0,0.0,0.0,0.0,0.0,0.0,0.0,0.0,0.0,0.0,0.0,0.0,0.0,0.0,0.0,0.0,0.0,0.0,0.0,0.0,0.0,0.0,0.0,0.0,0.0,0.0,0.0,0.0,0.0,0.0,0.0,0.0,0.0,0.0,0.0,0.0,0.0,-0.2819,-0.2102,-0.2792,-0.3469,-0.3858,-0.548,-0.6498,-0.655,0.0,0.0,0.0,0.0,0.0,0.0,0.0,0.0,0.0,0.0,0.0,0.0,0.0,0.0,0.0,0.0,0.0,0.0,0.0,0.0,0.0,0.0,0.0,0.0,0.0,0.0,0.0,0.0,0.0,0.0,0.0,0.0,0.0,0.0,0.0,0.0,0.0,0.0,0.0,0.0,0.0,0.0,0.0,0.0,0.0,0.0,0.0,0.0,0.0,0.0,0.0,0.0,0.0,0.0,0.0,0.0,0.0,0.0,0.0,0.0,0.0,0.0,0.0,0.0,0.0,0.0,0.0,0.0,0.0,0.0,0.0,0.0,0.0,0.0,0.0,0.0,0.0,0.0,0.0,0.0,0.0,0.0,0.0,0.0,0.0,0.0,0.0,0.0,0.0,0.0,0.0,0.0,0.0,0.0,0.0,0.0,0.0,0.0,0.0,0.0,0.0,0.0,0.0,-0.2357,-0.2152,-0.184,-0.2298,-0.2912,-0.3525,-0.4928,-0.5905,-0.6297,-0.7272,0.0,0.0,0.0,0.0,0.0,0.0,0.0,0.0,0.0,0.0,0.0,0.0,0.0,0.0,0.0,0.0,0.0,0.0,0.0,0.0,0.0,0.0,0.0,0.0,0.0,0.0,0.0,0.0,0.0,0.0,0.0,0.0,0.0,0.0,0.0,0.0,0.0,0.0,0.0,0.0,0.0,0.0,0.0,0.0,0.0,0.0,0.0,0.0,0.0,0.0,0.0,0.0,0.0,0.0,0.0,0.0,0.0,0.0,0.0,0.0,0.0,0.0,0.0,0.0,0.0,0.0,0.0,0.0,0.0,0.0,0.0,0.0,0.0,0.0,0.0,0.0,0.0,0.0,0.0,0.0,0.0,0.0,0.0,0.0,0.0,0.0,0.0,0.0,0.0,0.0,0.0,0.0,0.0,0.0,0.0,0.0,0.0,0.0,0.0,0.0,0.0,0.0,-0.1516,-0.1544,-0.1674,-0.1683,-0.2071,-0.3117,-0.3972,-0.4852,-0.577,-0.6575,0.0,0.0,0.0,0.0,0.0,0.0,0.0,0.0,0.0,0.0,0.0,0.0,0.0,0.0,0.0,0.0,0.0,0.0,0.0,0.0,0.0,0.0,0.0,0.0,0.0,0.0,0.0,0.0,0.0,0.0,0.0,0.0,0.0,0.0,0.0,0.0,0.0,0.0,0.0,0.0,0.0,0.0,0.0,0.0,0.0,0.0,0.0,0.0,0.0,0.0,0.0,0.0,0.0,0.0,0.0,0.0,0.0,0.0,0.0,0.0,0.0,0.0,0.0,0.0,0.0,0.0,0.0,0.0,0.0,0.0,0.0,0.0,0.0,0.0,0.0,0.0,0.0,0.0,0.0,0.0,0.0,0.0,0.0,0.0,0.0,0.0,0.0,0.0,0.0,0.0,0.0,0.0,0.0,0.0,0.0,0.0,0.0,0.0,0.0,0.0,0.0,0.0,-0.1033,-0.1079,-0.1285,-0.1346,-0.1505,-0.192,-0.2765,-0.3631,-0.4302,-0.5268,0.0,0.0,0.0,0.0,0.0,0.0,0.0,0.0,0.0,0.0,0.0,0.0,0.0,0.0,0.0,0.0,0.0,0.0,0.0,0.0,0.0,0.0,0.0,0.0,0.0,0.0,0.0,0.0,0.0,0.0,0.0,0.0,0.0,0.0,0.0,0.0,0.0,0.0,0.0,0.0,0.0,0.0,0.0,0.0,0.0,0.0,0.0,0.0,0.0,0.0,0.0,0.0,0.0,0.0,0.0,0.0,0.0,0.0,0.0,0.0,0.0,0.0,0.0,0.0,0.0,0.0,0.0,0.0,0.0,0.0,0.0,0.0,0.0,0.0,0.0,0.0,0.0,0.0,0.0,0.0,0.0,0.0,0.0,0.0,0.0,0.0,0.0,0.0,0.0,0.0,0.0,0.0,0.0,0.0,0.0,0.0,0.0,0.0,0.0,0.0,0.0,0.0,-0.0868,-0.0904,0.0,-0.1214,-0.137,-0.1454,-0.2532,-0.3469,-0.4142,0.0,0.0,0.0,0.0,0.0,0.0,0.0,0.0,0.0,0.0,0.0,0.0,0.0,0.0,0.0,0.0,0.0,0.0,0.0,0.0,0.0,0.0,0.0,0.0,0.0,0.0,0.0,0.0,0.0,0.0,0.0,0.0,0.0,0.0,0.0,0.0,0.0,0.0,0.0,0.0,0.0,0.0,0.0,0.0,0.0,0.0,0.0,0.0,0.0,0.0,0.0,0.0,0.0,0.0,0.0,0.0,0.0,0.0,0.0,0.0,0.0,0.0,0.0,0.0,0.0,0.0,0.0,0.0,0.0,0.0,0.0,0.0,0.0,0.0,0.0,0.0,0.0,0.0,0.0,0.0,0.0,0.0,0.0,0.0,0.0,0.0,0.0,0.0,0.0,0.0,0.0,0.0,0.0,0.0,0.0,0.0,0.0,0.0,0.0,0.0,0.0,0.0,-0.067,-0.0605,-0.0578,0.0,-0.0922,-0.1077,-0.127,-0.2083,-0.2865,-0.366,0.0,0.0,0.0,0.0,0.0,0.0,0.0,0.0,0.0,0.0,0.0,0.0,0.0,0.0,0.0,0.0,0.0,0.0,0.0,0.0,0.0,0.0,0.0,0.0,0.0,0.0,0.0,0.0,0.0,0.0,0.0,0.0,0.0,0.0,0.0,0.0,0.0,0.0,0.0,0.0,0.0,0.0,0.0,0.0,0.0,0.0,0.0,0.0,0.0,0.0,0.0,0.0,0.0,0.0,0.0,0.0,0.0,0.0,0.0,0.0,0.0,0.0,0.0,0.0,0.0,0.0,0.0,0.0,0.0,0.0,0.0,0.0,0.0,0.0,0.0,0.0,0.0,0.0,0.0,0.0,0.0,0.0,0.0,0.0,0.0,0.0,0.0,0.0,0.0,0.0,0.0,0.0,0.0,0.0,0.0,0.0,0.0,0.0,0.0,0.0,0.0,0.0,-0.0277,-0.0099,-0.0105,-0.0373,-0.0373,-0.0635,-0.1248,-0.1184,-0.1532,0.0,0.0,0.0,0.0,0.0,0.0,0.0,0.0,0.0,0.0,0.0,0.0,0.0,0.0,0.0,0.0,0.0,0.0,0.0,0.0,0.0,0.0,0.0,0.0,0.0,0.0,0.0,0.0,0.0,0.0,0.0,0.0,0.0,0.0,0.0,0.0,0.0,0.0,0.0,0.0,0.0,0.0,0.0,0.0,0.0,0.0,0.0,0.0,0.0,0.0,0.0,0.0,0.0,0.0,0.0,0.0,0.0,0.0,0.0,0.0,0.0,0.0,0.0,0.0,0.0,0.0,0.0,0.0,0.0,0.0,0.0,0.0,0.0,0.0,0.0,0.0,0.0,0.0,0.0,0.0,0.0,0.0,0.0,0.0,0.0,0.0,0.0,0.0,0.0,0.0,0.0,0.0,0.0,0.0,0.0,0.0,0.0,0.0,0.0,0.0,0.0,0.0,0.0,-0.0092,-0.005,-0.0052,-0.0105,-0.0262,-0.0465,-0.0651,-0.0825,-0.1292,-0.2257,0.0,0.0,0.0,0.0,0.0,0.0,0.0,0.0,0.0,0.0,0.0,0.0,0.0,0.0,0.0,0.0,0.0,0.0,0.0,0.0,0.0,0.0,0.0,0.0,0.0,0.0,0.0,0.0,0.0,0.0,0.0,0.0,0.0,0.0,0.0,0.0,0.0,0.0,0.0,0.0,0.0,0.0,0.0,0.0,0.0,0.0,0.0,0.0,0.0,0.0,0.0,0.0,0.0,0.0,0.0,0.0,0.0,0.0,0.0,0.0,0.0,0.0,0.0,0.0,0.0,0.0,0.0,0.0,0.0,0.0,0.0,0.0,0.0,0.0,0.0,0.0,0.0,0.0,0.0,0.0,0.0,0.0,0.0,0.0,0.0,0.0,0.0,0.0,0.0,0.0,0.0,0.0,0.0,0.0,0.0,0.0,0.0,0.0,0.0,0.0,0.0,0.0,0.0,0.0,0.0,0.0,-0.0153,-0.0302,-0.0394,-0.0622,-0.1046,-0.1626,0.0,0.0,0.0,0.0,0.0,0.0,0.0,0.0,0.0,0.0,0.0,0.0,0.0,0.0,0.0,0.0,0.0,0.0,0.0,0.0,0.0,0.0,0.0,0.0,0.0,0.0,0.0,0.0,0.0,0.0,0.0,0.0,0.0,0.0,0.0,0.0,0.0,0.0,0.0,0.0,0.0,0.0,0.0,0.0,0.0,0.0,0.0,0.0,0.0,0.0,0.0,0.0,0.0,0.0,0.0,0.0,0.0,0.0,0.0,0.0,0.0,0.0,0.0,0.0,0.0,0.0,0.0,0.0,0.0,0.0,0.0,0.0,0.0,0.0,0.0,0.0,0.0,0.0,0.0,0.0,0.0,0.0,0.0,0.0,0.0,0.0,0.0,0.0,0.0,0.0,0.0,0.0,0.0,0.0,0.0,0.0,0.0,0.0,0.0,0.0,0.0,0.0,0.0,0.0,0.0,0.0,0.0,-0.0098,-0.0342,-0.0519,-0.0713,-0.0818,0.0,0.0,0.0,0.0,0.0,0.0,0.0,0.0,0.0,0.0,0.0,0.0,0.0,0.0,0.0,0.0,0.0,0.0,0.0,0.0,0.0,0.0,0.0,0.0,0.0,0.0,0.0,0.0,0.0,0.0,0.0,0.0,0.0,0.0,0.0,0.0,0.0,0.0,0.0,0.0,0.0,0.0,0.0,0.0,0.0,0.0,0.0,0.0,0.0,0.0,0.0,0.0,0.0,0.0,0.0,0.0,0.0,0.0,0.0,0.0,0.7091,0.0,0.0,0.0,0.0,0.0,0.0,0.0,0.0,0.0,0.0,0.0,0.0,0.0,0.0,0.0,0.0,0.0,0.0,0.0,0.0,0.0,0.0,0.0,0.0,0.0,0.0,0.0,0.0,0.0,0.0,0.0,0.0,0.0,0.0,0.0,0.0,0.0,0.0,0.0,0.0,0.0,0.0,0.0,0.0,0.0,0.0,0.0,-0.0094,-0.0138,-0.022,-0.0409,-0.0716,0.0,0.0,0.0,0.0,0.0,0.0,0.0,0.0,0.0,0.0,0.0,0.0,0.0,0.0,0.0,0.0,0.0,0.0,0.0,0.0,0.0,0.0,0.0,0.0,0.0,0.0,0.0,0.0,0.0,0.0,0.0,0.0,0.0,0.0,0.0,0.0,0.0,0.0,0.0,0.0,0.0,0.0,0.0,0.0,0.0,0.0,0.0,0.0,0.0,0.0,0.0,0.0,0.0,0.0,0.0,0.0,0.0,0.0,0.0,0.0,0.7158,0.0,0.0,0.0,0.0,0.0,0.0,0.0,0.0,0.0,0.0,0.0,0.0,0.0,0.0,0.0,0.0,0.0,0.0,0.0,0.0,0.0,0.0,0.0,0.0,0.0,0.0,0.0,0.0,0.0,0.0,0.0,0.0,0.0,0.0,0.0,0.0,0.0,0.0,0.0,0.0,0.1251,0.1364,0.122,0.0704,0.0692,0.0502,0.0046,-0.0134,-0.0216,-0.0286,-0.0442,0.0,0.0,0.0,0.0,0.0,0.0,0.0,0.0,0.0,0.0,0.0,0.0,0.0,0.0,0.0,0.0,0.0,0.0,0.0,0.0,0.0,0.0,0.0,0.0,0.0,0.0,0.0,0.0,0.0,0.0,0.0,0.0,0.0,0.0,0.0,0.0,0.0,0.0,0.0,0.0,0.0,0.0,0.0,0.0,0.0,0.0,0.0,0.0,0.0,0.0,0.0,0.0,0.0,1.224,1.2316,1.228,1.12,1.0743,1.0605,0.8752,0.772,0.7402,0.0,0.0,0.0,0.0,0.0,0.0,0.0,0.0,0.0,0.0,0.0,0.0,0.0,0.0,0.0,0.0,0.0,0.0,0.0,0.0,0.0,0.0,0.0,0.0,0.0,0.3202,0.2615,0.0,0.0,0.0,0.0,0.0,0.0,0.0,0.0,0.0,0.0,0.0,0.0,0.2737,0.2897,0.2646,0.178,0.1654,0.1327,0.0536,0.0131,-0.0085,0.0,-0.0326,-0.0587,0.0,0.0,0.0,0.0,0.0,0.0,0.0,0.0,0.0,0.0,0.0,0.0,0.0,0.0,0.0,0.0,0.0,0.0,0.0,0.0,0.0,0.0,0.0,0.0,0.0,0.0,0.0,0.0,0.0,0.0,0.0,0.0,1.3401,1.3342,0.0,0.0,0.0,0.0,0.0,0.0,0.0,0.0,0.0,0.0,0.0,0.0,0.0,1.2001,1.22,1.2343,1.2356,1.2245,1.2387,1.2387,1.228,1.2109,1.2051,1.2047,1.1745,0.0,0.8109,0.7805,0.0,0.0,0.0,0.0,0.0,0.0,0.0,0.0,0.0,0.0,0.0,0.0,0.0,0.0,0.0,0.0,0.0,0.0,0.0,0.0,0.0,0.0,0.4301,0.3411,0.3221,0.3129,0.0,0.2618,0.2491,0.2323,0.2303,0.0,0.0,0.0,0.0,0.0,0.0,0.0,0.3262,0.3269,0.3144,0.2838,0.2696,0.2548,0.2346,0.1581,0.1095,0.1172,0.0206,-0.0358,-0.0376,-0.0467,0.0,0.0,0.0,0.0,0.0,0.0,0.0,0.0,0.0,0.0,0.0,0.0,0.0,0.0,0.0,0.0,0.0,0.0,0.0,0.0,0.0,0.0,0.0,0.0,0.0,0.0,0.0,0.0,0.0,1.4721,1.5624,1.5462,1.5415,1.524,0.0,0.0,0.0,0.0,0.0,0.0,0.0,0.0,0.0,1.501,1.4902,1.4893,1.4995,1.5231,1.5173,1.5,1.5236,1.5295,1.5188,1.4491,1.4141,1.4131,1.3258,1.2117,1.0846,0.9584,0.8886,0.8572,0.0,0.0,0.0,0.0,0.711,0.7161,0.7179,0.7182,0.0,0.0,0.0,0.0,0.0,0.0,0.0,0.0,0.0,0.0,0.0,0.0,0.0,0.5526,0.54,0.5298,0.5237,0.5175,0.4745,0.0,0.3167,0.3102,0.2797,0.0,0.0,0.0,0.0,0.0,0.4663,0.4777,0.4566,0.3966,0.3852,0.3611,0.3139,0.2502,0.2194,0.2305,0.1643,0.1033,0.0454,0.037,0.0036,0.0,0.0,0.0,0.0,0.0,0.0,0.0,0.0,0.0,0.0,0.0,0.0,0.0,0.0,0.0,0.0,0.0,0.0,0.0,0.0,0.0,0.0,0.0,0.0,0.0,0.0,0.0,0.0,1.6738,1.7417,1.734,1.7505,1.7365,0.0,0.0,0.0,0.0,0.0,0.0,1.717,1.7189,1.7255,1.7575,1.7399,1.7341,1.7414,1.7483,1.7382,1.7195,1.7388,1.7485,1.7485,1.6526,1.6074,1.5948,1.4775,1.4129,1.3672,1.1449,1.0381,1.0014,0.8683,0.815,0.8115,0.7809,0.7725,0.7762,0.7826,0.7869,0.7839,0.7503,0.0,0.7137,0.6602,0.0,0.0,0.0,0.0,0.6922,0.7051,0.6942,0.6842,0.704,0.7015,0.6918,0.6815,0.6813,0.6308,0.0,0.4243,0.4197,0.3814,0.0,0.0,0.0,0.0,0.5202,0.5891,0.6081,0.5858,0.5109,0.4951,0.4695,0.4062,0.3516,0.3223,0.3318,0.2862,0.2229,0.1412,0.1401,0.0927,-0.0107,0.0,0.0,0.0,0.0,0.0,0.0,0.0,0.0,0.0,0.0,0.0,0.0,0.0,0.0,0.0,0.0,0.0,0.0,0.0,0.0,0.0,0.0,0.0,0.0,0.0,0.0,0.0,0.0,0.0,1.8014,1.8707,0.0,0.0,0.0,0.0,1.8033,1.8033,1.8154,1.837,1.8389,1.851,1.879,1.8236,1.8053,1.8332,1.7783,1.7473,1.7461,1.7473,1.7485,1.7485,1.742,1.7288,1.699,1.692,1.6627,1.593,1.321,1.1914,1.1566,1.0071,0.9436,0.9194,0.8115,0.778,0.7869,0.7753,0.7793,0.7872,0.7675,0.7363,0.7063,0.691,0.6774,0.0,0.0,0.6832,0.6824,0.6964,0.6897,0.6797,0.6812,0.6809,0.6803,0.6797,0.6882,0.6844,0.0,0.6153,0.6024,0.565,0.0,0.5617,0.5701,0.5844,0.6071,0.6414,0.6478,0.6401,0.6157,0.5953,0.581,0.5706,0.4856,0.425,0.414,0.3285,0.2687,0.2423,0.2443,0.1959,0.0941,0.0934,0.0,0.0,0.0,0.0,0.0,0.0,0.0,0.0,0.0,0.0,0.0,0.0,0.0,0.0,0.0,0.0,0.0,0.0,0.0,0.0,0.0,0.0,0.0,0.0,0.0,0.0,0.0,0.0,1.8568,1.9022,0.0,1.8263,1.8282,1.8416,1.8594,1.8607,1.8728,1.9003,1.9015,1.9066,1.9162,1.8946,1.8797,1.8662,1.8436,1.8239,1.8071,1.8071,1.8012,1.7843,1.7832,1.7586,1.7062,1.6716,1.6381,1.5958,1.459,1.3794,1.3222,1.1927,1.1393,1.1277,1.0857,1.0309,0.9701,0.9645,0.9115,0.8505,0.8883,0.8842,0.8701,0.9302,0.9005,0.8573,0.9131,0.8828,0.8339,0.8292,0.8203,0.8103,0.821,0.7698,0.7356,0.7943,0.7629,0.7176,0.6885,0.673,0.6603,0.6258,0.6199,0.6155,0.5952,0.6083,0.6236,0.6368,0.6375,0.6339,0.626,0.6213,0.6198,0.6261,0.5705,0.5416,0.5462,0.4914,0.4263,0.356,0.3531,0.3006,0.1844,0.1414,0.0981,0.0,0.0,0.0,0.0,0.0,0.0,0.0,0.0,0.0,0.0,0.0,0.0,0.0,0.0,0.0,0.0,0.0,0.0,0.0,0.0,0.0,0.0,0.0,0.0,0.0,0.0,1.908,1.9199,1.962,1.9646,1.8985,1.9095,1.9343,1.9471,1.949,1.9607,1.9892,1.9814,1.9762,1.9762,1.9453,1.92,1.8947,1.8799,1.8599,1.8421,1.8326,1.8165,1.7998,1.7881,1.7535,1.6931,1.6607,1.6212,1.5857,1.5399,1.4991,1.4509,1.3222,1.2782,1.2793,1.2421,1.1815,1.1252,1.1069,1.0126,0.9112,0.9841,0.9685,0.9436,1.042,1.0283,0.9836,1.0357,1.0045,0.9507,0.9427,0.9298,0.9187,0.9265,0.8759,0.8405,0.9023,0.845,0.7737,0.753,0.7163,0.6848,0.6593,0.6545,0.6429,0.6146,0.6235,0.63,0.63,0.63,0.63,0.63,0.63,0.6337,0.6433,0.6106,0.5947,0.6045,0.573,0.5231,0.4503,0.4465,0.3946,0.2802,0.177,0.1077,0.0741,0.0,0.0,0.0,0.0,0.0,0.0,0.0,0.0,0.0,0.0,0.0,0.0,0.0,0.0,0.0,0.0,0.0,0.0,0.0,0.0,0.0,0.0,0.0,1.854,1.9037,1.9522,1.984,2.0595,2.0775,1.992,2.0354,2.0688,2.0688,2.0688,2.0808,2.1082,2.0828,2.0668,2.0648,1.9772,1.9285,1.9272,1.8705,1.8396,1.8389,1.8122,1.7995,1.7983,1.7634,1.7203,1.6677,1.6704,1.6386,1.5897,1.5576,1.5469,1.5368,1.4004,1.364,1.3688,1.2529,1.2228,1.2337,1.1808,1.0744,0.9763,1.0437,0.996,0.9258,1.019,1.0468,1.0468,1.0463,1.0359,1.0244,1.0239,1.0078,0.9966,0.9966,0.9923,0.9923,0.9966,0.9231,0.8526,0.8389,0.7634,0.6907,0.6719,0.6566,0.646,0.632,0.63,0.0,0.63,0.63,0.63,0.63,0.63,0.63,0.63,0.6118,0.5915,0.5722,0.5596,0.5411,0.5228,0.5228,0.4718,0.3704,0.2019,0.0784,0.0032,0.0,0.0,0.0,0.0,0.0,0.0,0.0,0.0,0.0,0.0,0.0,0.0,0.0,0.0,0.0,0.0,0.0,0.0,0.0,0.0,0.0,0.0,1.9196,1.9409,1.994,2.0453,2.0722,2.0962,2.1015,2.0768,2.0895,2.0989,2.0989,2.0989,2.0935,2.0802,2.0722,2.0481,2.0054,1.9614,1.9263,1.8986,1.8645,1.8443,1.8443,1.842,1.8269,1.8013,1.7683,1.7256,1.6698,1.6291,1.5944,1.5592,1.5339,1.5208,1.5149,1.4793,1.4796,1.4966,1.4647,1.3942,1.2946,1.1642,1.0779,1.048,1.1268,1.1344,1.1293,1.2312,1.2083,1.1634,1.2193,1.1781,1.1107,1.1025,1.098,1.0928,1.0928,1.0404,1.0139,1.1015,1.0281,0.947,0.9667,0.9206,0.8305,0.6822,0.6453,0.6344,0.6306,0.63,0.0,0.63,0.63,0.63,0.63,0.63,0.63,0.63,0.6118,0.5993,0.5915,0.5778,0.5623,0.5411,0.5411,0.486,0.3712,0.2993,0.2034,0.0,0.0,0.0,0.0,0.0,0.0,0.0,0.0,0.0,0.0,0.0,0.0,0.0,0.0,0.0,0.0,0.0,0.0,0.0,0.0,0.0,0.0,1.9352,1.9833,2.0127,2.0461,2.0782,2.1076,2.1109,2.1109,2.1109,2.1109,2.1109,2.1109,2.0995,2.0855,2.0681,2.0441,2.0094,1.9633,1.9339,1.9038,1.8744,1.8577,1.849,1.849,1.8364,1.8121,1.7812,1.7556,1.7106,0.0,1.619,1.5908,1.5596,1.538,1.5267,0.0,0.0,0.0,0.0,0.0,1.4612,1.3445,1.2432,1.1624,1.1211,1.1986,1.1959,1.1825,1.286,1.2721,1.2331,1.2814,1.2461,1.1898,1.1402,1.1284,1.1192,1.0799,1.0335,1.0137,1.083,1.0396,0.9873,0.9983,0.9437,0.0,0.7368,0.7122,0.6945,0.6602,0.649,0.6412,0.6412,0.6335,0.63,0.63,0.63,0.63,0.63,0.6061,0.0,0.0,0.0,0.5585,0.5449,0.5376,0.0,0.0,0.0,0.0,0.0,0.0,0.0,0.0,-0.0068,-0.024,0.0,0.0,0.0,0.0,0.0,0.0,0.0,0.0,0.0,0.0,0.0,0.0,0.0,0.0,0.0,0.0,1.992,2.0388,2.0681,2.0728,2.0822,2.1082,2.1109,2.1109,2.1109,2.1109,2.1096,2.1062,2.0822,2.0648,2.0581,0.0,0.0,0.0,0.0,1.8704,1.8444,1.8404,1.837,1.8337,1.807,1.7782,1.7475,1.7233,1.6817,1.6321,1.6239,1.6072,1.5778,1.5588,1.554,1.5499,1.5258,1.5261,1.54,1.5161,1.4576,1.392,1.3653,0.0,0.0,1.2562,1.2186,1.1671,1.2448,1.2705,1.2705,1.2705,1.2619,1.2351,1.1509,1.1198,1.093,1.0077,0.9932,1.0006,1.0048,0.9962,0.9867,0.9783,0.9061,0.8404,0.8192,0.8042,0.774,0.7015,0.6753,0.6641,0.6641,0.649,0.6377,0.6338,0.0,0.0,0.63,0.5993,0.582,0.5803,0.5576,0.5429,0.5443,0.5222,0.4746,0.3976,0.3761,0.3258,0.2436,0.2443,0.2093,0.1384,0.0534,0.0107,0.0,0.0,0.0,0.0,0.0,0.0,0.0,0.0,0.0,0.0,0.0,0.0,0.0,0.0,0.0,1.9967,2.0361,2.0695,2.0982,2.1029,2.1049,2.1102,2.1109,2.1109,2.1109,2.1109,2.1009,2.0775,2.0708,2.0468,1.9993,1.9639,1.9312,1.9018,1.8435,1.8135,1.8075,1.7883,1.7695,1.746,0.0,0.0,1.6867,1.6623,1.6429,1.6259,1.6019,1.5879,1.5784,1.5778,1.573,1.5709,1.5519,1.5295,1.5091,1.5042,1.4666,1.4107,1.3862,1.3442,1.3077,1.3028,1.2881,1.2753,1.2705,1.2705,0.0,1.2705,1.2143,1.1493,1.1211,1.0574,0.9981,0.9836,0.9845,0.9943,1.0238,1.0143,1.0006,1.0178,0.9864,0.938,0.8703,0.7783,0.7092,0.6938,0.6865,0.6826,0.6826,0.6826,0.6714,0.6563,0.6525,0.649,0.63,0.6091,0.5932,0.581,0.564,0.5596,0.5711,0.5426,0.5192,0.5024,0.4714,0.4136,0.3278,0.3388,0.2977,0.2074,0.1378,0.0689,0.0,0.0,0.0,0.0,0.0,0.0,0.0,0.0,0.0,0.0,0.0,1.8844,1.9279,0.0,2.0,2.0625,2.0949,2.1256,2.1587,2.1607,2.1488,2.1172,2.1109,2.1172,2.1362,2.1227,2.1071,2.0929,2.0645,2.0288,1.9813,1.9386,1.9011,1.8718,1.8222,1.7916,1.7816,1.7515,1.7347,1.7199,1.7052,1.6774,1.6486,1.6339,1.6192,1.6046,1.5892,1.5784,1.5771,1.5671,1.5611,1.5565,1.5337,1.5058,1.479,1.4657,1.4262,1.3798,1.3652,1.3512,1.3355,1.3185,1.3094,1.3052,1.279,1.2705,1.2681,1.2542,1.1868,1.1048,1.0388,0.9542,0.8778,0.8353,0.8341,0.8515,0.872,0.908,0.9396,0.9463,0.9372,0.9188,0.8775,0.7859,0.7211,0.7211,0.7099,0.7061,0.7061,0.698,0.6865,0.6753,0.6753,0.6714,0.6602,0.6338,0.6079,0.5846,0.5696,0.5586,0.5617,0.5443,0.5301,0.5196,0.5025,0.4724,0.4246,0.4397,0.4044,0.3261,0.2964,0.2075,0.0,0.0,0.0,0.0,0.0,0.0,0.0,0.0,1.8831,1.9118,1.9178,1.9339,1.9873,2.0221,2.0598,2.1204,2.152,2.1796,2.2048,2.2111,2.1922,2.1362,2.1544,2.1664,2.167,2.1817,2.173,2.1265,2.0868,2.0382,1.975,1.9125,1.8704,1.841,1.811,1.7809,1.7502,1.732,1.7146,1.7032,1.674,1.6466,1.6186,1.6186,1.6052,1.5784,1.5784,1.5751,1.5732,1.5491,1.5364,1.5284,1.499,1.4781,1.4557,1.434,1.3968,1.3525,1.3525,1.3525,1.3483,1.3313,1.3179,1.3094,1.2875,1.2711,1.2542,1.2159,1.1432,1.0465,0.934,0.8431,0.7616,0.6862,0.6881,0.7066,0.7066,0.7815,0.8475,0.8399,0.8437,0.8475,0.8475,0.794,0.7484,0.7484,0.7373,0.7257,0.7257,0.7099,0.7019,0.698,0.6942,0.6942,0.6903,0.6532,0.6215,0.5997,0.5755,0.5579,0.5484,0.5453,0.5369,0.5199,0.5169,0.5114,0.503,0.5187,0.4952,0.4383,0.4392,0.332,1.0119,1.1217,0.0,1.46,1.6017,1.7129,0.0,0.0,1.974,2.0027,2.0027,2.0187,2.0521,2.0848,2.1218,2.1512,2.1839,2.2048,2.2111,2.2111,2.2048,2.1985,2.3029,2.3333,2.2167,2.3741,2.3826,2.1378,2.1597,2.1148,1.9558,1.8879,1.8404,1.8049,1.7796,1.7495,1.7253,1.7213,1.6938,1.6422,1.6339,1.6166,1.5879,1.5879,1.5865,1.5784,1.5784,1.5678,1.5444,1.5411,1.5244,1.5028,1.4683,1.4526,1.4526,1.4482,1.4283,1.3997,1.3997,1.3997,1.3997,1.3737,1.3519,1.3307,1.3137,1.271,1.2183,1.1436,1.0393,0.9289,0.8298,0.7373,0.6661,0.661,0.6754,0.6929,0.6929,0.7304,0.7599,0.7411,0.7522,0.7638,0.7638,0.7561,0.7484,0.7484,0.7484,0.7484,0.7484,0.7446,0.7369,0.718,0.718,0.7099,0.6903,0.6581,0.6342,0.6261,0.5937,0.5769,0.5745,0.563,0.5562,0.5528,0.543,0.5266,0.5079,0.5351,0.5345,0.5074,0.4624,0.34,1.0814,0.0,0.0,0.0,1.537,1.68,1.7595,1.8949,2.0134,2.0428,2.0494,2.0581,2.0875,2.1242,2.1526,0.0,2.2174,2.2487,2.2668,2.2675,2.2604,2.2417,2.3542,2.4085,2.3236,2.4464,2.4752,2.3372,2.2682,2.1771,2.0538,1.9348,1.8515,1.8002,1.7582,1.7326,1.7199,1.6857,1.6569,1.6321,1.6099,1.5952,1.5784,1.5784,1.5784,1.5771,1.5651,1.5504,1.5371,1.503,1.4816,1.4676,1.4382,1.4269,1.4269,1.4269,1.4195,1.4088,1.4088,1.4088,1.4046,1.3779,1.3458,1.3115,1.2948,1.2507,1.1891,1.0882,0.9922,0.8962,0.7947,0.7008,0.6371,0.6426,0.6563,0.6714,0.6714,0.7022,0.7296,0.7219,0.7373,0.7484,0.7484,0.7484,0.7484,0.7484,0.7484,0.7484,0.7484,0.7484,0.7484,0.7369,0.7257,0.718,0.7078,0.6822,0.6575,0.6279,0.5965,0.5741,0.5579,0.5521,0.5491,0.5491,0.5429,0.5359,0.5292,0.5472,0.5544,0.5555,0.538,0.4624,1.1344,0.0,0.0,1.285,1.4492,1.6126,1.7192,1.8711,2.0028,2.0686,2.0795,2.0862,2.1069,2.1355,2.1734,2.2048,2.2362,2.2731,2.3043,2.3032,2.2886,2.2652,2.3678,2.4297,2.3844,2.4769,2.5018,2.4024,2.2964,2.1892,2.0885,1.9546,1.8605,1.8137,1.7526,1.721,1.718,1.6576,1.6233,1.6146,1.5932,1.5784,1.5778,1.5698,1.5712,1.5691,1.5404,1.5231,1.5124,1.4696,1.4476,1.4382,1.4168,1.4088,1.4088,1.4088,1.4035,1.3968,1.3968,1.3908,1.3806,1.355,1.307,1.2531,1.2584,1.2063,1.1249,1.0236,0.9516,0.8693,0.7478,0.6721,0.63,0.63,0.6451,0.6602,0.6525,0.6834,0.7103,0.7026,0.7215,0.7326,0.7326,0.7326,0.7326,0.7326,0.7325,0.7389,0.7476,0.7446,0.7407,0.7407,0.7252,0.7135,0.7199,0.6948,0.6603,0.6229,0.5919,0.564,0.5399,0.5395,0.5395,0.5395,0.5395,0.5395,0.5395,0.5549,0.5661,0.5803,0.5922,0.5689,0.0,0.0,1.1817,1.1979,1.334,1.5018,1.6403,1.7926,1.9407,2.0773,2.1096,2.1096,2.1109,2.1355,2.1734,2.2048,2.2362,2.2731,2.3043,2.2835,2.2637,2.2623,2.353,2.3962,0.0,2.4669,2.4375,2.1986,2.1914,2.1374,1.9916,1.9019,1.8452,1.8398,1.7619,1.7167,1.7084,1.6574,1.6126,1.5798,1.5784,1.5784,1.5771,1.5538,1.5411,1.5391,1.5149,1.481,1.4543,1.4529,1.4355,1.4095,1.4088,1.4088,1.4088,1.4088,1.3908,1.362,1.362,1.3433,1.3194,1.2995,1.2212,1.1473,1.2138,1.139,1.0199,0.9365,0.8942,0.8327,0.676,0.63,0.63,0.63,0.6451,0.6563,0.6335,0.6637,0.6865,0.6637,0.6788,0.6903,0.6903,0.6903,0.6903,0.6903,0.6919,0.7061,0.746,0.7334,0.7223,0.7223,0.7028,0.7002,0.7187,0.6726,0.6352,0.6214,0.5813,0.5557,0.5395,0.5395,0.5395,0.5395,0.5395,0.5395,0.5395,0.5549,0.5661,0.5803,0.5922,0.6074,0.0,0.0,1.217,1.2341,1.3581,1.4928,1.5376,1.7301,1.91,1.9623,2.0313,2.0822,2.0822,2.0909,2.1204,2.1713,2.212,2.2421,2.2722,2.2879,2.271,2.2081,2.2513,0.0,0.0,0.0,0.0,2.354,2.2527,2.1626,2.0697,1.947,1.8547,1.8142,1.7313,1.687,1.6826,1.6277,1.5925,1.5784,1.5784,1.5784,1.5771,1.5531,1.5398,1.5371,1.4877,1.4609,1.4502,1.4309,1.4175,1.4088,1.4088,1.3968,1.3753,1.3753,1.3474,1.3106,1.3467,1.3333,1.2969,1.2929,1.1952,1.0892,1.11,1.0262,0.9072,0.8267,0.7987,0.7672,0.6567,0.63,0.63,0.63,0.6335,0.6374,0.63,0.6525,0.6676,0.6602,0.6872,0.7103,0.7103,0.7103,0.6984,0.6611,0.6663,0.6756,0.6959,0.6658,0.6511,0.6654,0.6496,0.6421,0.6529,0.6379,0.6127,0.5806,0.5678,0.5554,0.5395,0.5395,0.5395,0.5395,0.5395,0.5395,0.5395,0.5446,0.5597,0.5803,0.5854,0.6013,0.0,1.1909,1.2264,1.2503,1.3405,1.4263,1.4782,1.6263,1.7789,1.8661,1.9462,2.0071,2.0473,2.0544,2.0753,2.1546,2.1902,2.2183,2.2715,2.2784,2.255,2.1942,2.1854,0.0,0.0,0.0,0.0,2.2999,2.1961,2.114,2.065,1.9302,1.8485,1.8288,1.7161,1.6664,1.6822,1.617,1.5784,1.5784,1.5784,1.5724,1.5665,1.5378,1.5184,1.5057,1.4576,1.4362,1.4349,1.4162,1.4088,1.4075,1.3968,1.3773,1.3593,1.3487,1.3173,1.2837,1.3121,1.2936,1.2499,1.2065,1.1084,1.0021,0.9944,0.9149,0.8169,0.7633,0.7484,0.733,0.649,0.63,0.63,0.63,0.63,0.63,0.63,0.6412,0.649,0.649,0.6721,0.6876,0.6876,0.6876,0.676,0.6356,0.6288,0.6335,0.6388,0.6204,0.6169,0.6273,0.619,0.6117,0.6187,0.6124,0.5936,0.5624,0.555,0.5491,0.5395,0.5395,0.5395,0.5395,0.5395,0.5395,0.5395,0.545,0.56,0.5803,0.5857,0.6017,1.1275,1.1727,1.213,1.2475,1.2694,1.3149,1.452,1.4838,1.554,1.792,1.8476,1.8883,0.0,0.0,2.0449,2.1497,2.1621,2.1987,2.2915,2.2579,2.2198,0.0,0.0,0.0,0.0,0.0,0.0,2.0676,0.0,2.0055,1.9808,1.8667,1.8273,1.8767,1.7168,1.6558,1.7078,1.6211,1.5784,1.5784,1.5764,1.5665,1.5384,1.5077,1.4783,1.4502,1.4215,1.4088,1.4088,1.4075,1.4062,1.4035,1.3693,1.3573,1.3527,1.3287,1.3025,1.2726,1.2516,1.2213,1.1744,1.0588,0.9647,0.8884,0.8703,0.8093,0.7446,0.7446,0.7446,0.7253,0.649,0.63,0.63,0.63,0.63,0.63,0.63,0.63,0.63,0.63,0.63,0.63,0.63,0.6293,0.6263,0.6107,0.5907,0.5806,0.5793,0.5944,0.6072,0.6072,0.608,0.6127,0.6165,0.5985,0.5789,0.5617,0.5488,0.5395,0.5395,0.5395,0.5395,0.5395,0.5395,0.5395,0.5395,0.5549,0.5661,0.5803,0.5922,0.6074,1.1341,1.1818,1.2288,1.2507,1.2601,1.2795,1.3259,1.4012,1.4801,1.535,1.6691,1.7797,0.0,0.0,0.0,2.047,2.1039,0.0,2.2273,2.2425,0.0,0.0,0.0,2.1474,2.1233,2.0837,0.0,0.0,1.9842,1.9484,1.9403,1.8707,1.8333,1.843,1.726,1.6656,1.6755,1.6103,1.5784,1.5778,1.5611,1.5471,1.5378,1.487,1.4589,1.4502,1.4215,1.4088,1.4068,1.3848,1.372,1.3686,1.3393,1.318,1.3005,1.2931,1.271,1.2381,1.2045,1.1465,1.0826,1.0533,0.9253,0.7863,0.7825,0.7253,0.6606,0.6606,0.6606,0.6567,0.6338,0.63,0.63,0.63,0.63,0.63,0.63,0.63,0.63,0.63,0.6412,0.6528,0.6528,0.6388,0.6206,0.5906,0.5849,0.5755,0.5661,0.5679,0.5738,0.5738,0.5873,0.5955,0.5989,0.5778,0.565,0.5617,0.5488,0.5395,0.5395,0.5395,0.5395,0.5395,0.5395,0.5395,0.5395,0.5549,0.5661,0.5803,0.5922,0.5765,1.1179,1.1608,1.2019,1.2241,1.2446,1.2552,1.2495,1.3033,1.3663,1.3906,1.5299,0.0,0.0,0.0,0.0,0.0,0.0,0.0,2.1829,2.212,2.2089,0.0,2.1569,0.0,2.1028,2.0706,2.0377,0.0,1.9696,1.9478,1.9286,1.8585,1.8196,1.8306,1.7134,1.6389,1.6258,1.5967,1.5718,1.5638,1.5478,1.5264,1.5003,1.4669,1.4449,1.4322,0.0,1.4015,1.3881,1.3673,1.3527,1.3387,1.3126,1.2938,1.277,1.2636,1.2408,1.215,1.1892,1.095,0.982,0.9744,0.8689,0.7446,0.7061,0.6644,0.63,0.63,0.63,0.63,0.63,0.63,0.63,0.63,0.63,0.63,0.63,0.63,0.63,0.63,0.6374,0.6447,0.6447,0.6374,0.6187,0.5925,0.5902,0.5804,0.562,0.5663,0.5782,0.5854,0.603,0.6101,0.6034,0.5992,0.5863,0.569,0.5617,0.5562,0.5498,0.5494,0.5494,0.5494,0.5429,0.546,0.559,0.564,0.5759,0.5905,0.6057,0.5711,1.0842,1.1166,1.151,1.1867,1.2217,1.2354,1.2067,1.2154,1.2395,1.2981,0.0,0.0,1.6163,0.0,1.8791,1.9648,0.0,2.0913,2.1558,2.1647,2.1635,2.1693,2.1408,2.1079,2.0757,2.0428,2.0106,1.9837,1.9779,1.9632,1.9346,1.8463,1.7973,1.8076,1.6875,1.6123,1.5784,1.5784,1.5685,1.5398,1.5357,1.505,1.4522,1.4482,1.4322,1.4088,0.0,0.0,1.366,1.362,1.3433,1.318,1.2872,1.2764,1.2697,1.2361,1.212,1.1966,1.1818,1.0539,0.8965,0.8813,0.8093,0.7215,0.6528,0.63,0.63,0.63,0.63,0.63,0.63,0.63,0.63,0.63,0.63,0.63,0.63,0.63,0.63,0.63,0.63,0.63,0.63,0.63,0.6245,0.6016,0.6027,0.5965,0.5689,0.5807,0.6004,0.6165,0.6329,0.641,0.6314,0.6369,0.6242,0.5894,0.5838,0.5739,0.5596,0.5606,0.5599,0.5559,0.5501,0.5569,0.5772,0.5813,0.5825,0.5844,0.6033,0.5592,1.0762,1.086,1.1084,1.1682,1.1748,1.1772,1.2176,1.2056,0.0,0.0,0.0,1.339,1.4358,1.5775,0.0,1.8848,0.0,0.0,0.0,0.0,2.1379,0.0,0.0,0.0,0.0,0.0,0.0,0.0,0.0,1.9338,1.9279,1.8607,1.7813,1.6906,1.6644,1.6305,1.5784,1.5784,1.5685,1.5391,1.5202,1.4856,1.4466,1.4269,1.4135,1.4088,1.4088,0.0,1.3988,1.37,1.3433,1.314,1.2731,1.2499,1.2334,1.1948,1.1892,1.1855,1.085,0.983,0.8998,0.896,0.7821,0.649,0.6338,0.63,0.63,0.63,0.63,0.63,0.63,0.63,0.63,0.63,0.63,0.63,0.63,0.63,0.63,0.63,0.63,0.63,0.63,0.63,0.6245,0.6016,0.6139,0.6184,0.6043,0.6033,0.6082,0.6191,0.6401,0.6659,0.6836,0.6576,0.6365,0.63,0.5968,0.5739,0.5596,0.5701,0.565,0.544,0.5613,0.5691,0.5627,0.5871,0.5628,0.5012,0.5139,0.4421,1.0622,1.0608,1.0772,1.1245,1.1351,1.1329,1.1539,0.0,0.0,0.0,0.0,1.27,1.3132,0.0,0.0,0.0,0.0,0.0,0.0,0.0,0.0,0.0,0.0,0.0,0.0,0.0,0.0,0.0,0.0,1.9279,1.9279,1.8657,1.7763,1.665,1.6588,1.6353,1.5832,1.5678,1.5458,1.517,1.487,1.4576,1.4289,1.4155,1.4088,1.4088,1.4088,0.0,1.3848,1.366,1.338,1.2959,1.2633,1.2352,1.2114,1.1818,1.1706,1.1558,1.0539,0.9604,0.8775,0.8356,0.7369,0.63,0.63,0.63,0.63,0.63,0.63,0.63,0.63,0.63,0.63,0.63,0.63,0.63,0.63,0.63,0.63,0.63,0.63,0.63,0.63,0.63,0.6276,0.6162,0.6225,0.6245,0.6052,0.6141,0.6245,0.6378,0.6538,0.6657,0.6762,0.6622,0.6448,0.6361,0.6182,0.5976,0.5827,0.5884,0.5854,0.5711,0.5769,0.5847,0.5975,0.5585,0.5194,0.4879,0.4547,0.3638,1.0475,1.0471,1.0534,1.0845,1.0918,1.0923,1.1025,1.0996,0.0,0.0,0.0,1.2096,1.2358,0.0,0.0,0.0,0.0,0.0,0.0,0.0,0.0,0.0,0.0,0.0,0.0,0.0,0.0,0.0,0.0,0.0,1.9074,1.8511,1.7739,1.6704,1.6636,1.6353,1.5879,1.5605,1.5311,1.5008,1.473,1.4429,1.4088,1.4088,1.4088,1.4088,1.4088,0.0,0.0,1.37,1.338,1.2894,1.2615,1.233,1.1945,1.1509,1.1223,1.0993,0.997,0.9107,0.8322,0.7522,0.6795,0.63,0.63,0.63,0.63,0.63,0.63,0.63,0.63,0.63,0.63,0.63,0.63,0.63,0.63,0.63,0.63,0.63,0.63,0.63,0.63,0.63,0.63,0.63,0.63,0.6255,0.6095,0.6186,0.6367,0.6509,0.6569,0.6603,0.6678,0.6607,0.6545,0.6378,0.6343,0.6193,0.6,0.6023,0.6047,0.5946,0.5928,0.5929,0.5976,0.5202,0.4678,0.438,0.3754,0.2896,1.033,1.0323,1.0386,1.0703,1.0605,1.0504,1.1088,0.0,0.0,0.0,1.0802,1.1177,1.22,0.0,0.0,0.0,0.0,0.0,0.0,0.0,0.0,0.0,0.0,0.0,0.0,0.0,0.0,0.0,0.0,0.0,1.8408,1.8057,1.7562,1.6986,1.673,1.6447,1.6177,1.5906,1.5511,1.5008,1.4981,1.4629,1.4088,1.4088,1.4088,1.4088,1.4088,0.0,0.0,1.4048,1.373,1.3209,1.2748,1.2401,1.1922,1.0566,1.018,1.0062,0.8356,0.7672,0.7484,0.6683,0.6377,0.63,0.63,0.63,0.63,0.63,0.63,0.63,0.63,0.63,0.63,0.63,0.63,0.63,0.63,0.63,0.63,0.63,0.63,0.63,0.63,0.63,0.63,0.63,0.63,0.6293,0.6279,0.6289,0.6296,0.6318,0.6507,0.6654,0.6842,0.6707,0.6595,0.658,0.6405,0.6193,0.6,0.6166,0.6146,0.5827,0.6122,0.5816,0.4951,0.4977,0.4098,0.2469,0.2391,0.1764,1.0168,1.0209,1.0323,1.029,1.0101,0.9993,1.0412,0.0,0.0,1.0402,1.0582,1.0852,1.1286,1.2309,1.3467,0.0,0.0,0.0,0.0,0.0,0.0,0.0,0.0,0.0,0.0,0.0,0.0,0.0,0.0,0.0,1.8321,1.7991,1.7478,1.6791,1.6636,1.64,1.5974,1.5705,1.5364,1.5008,1.4783,1.4482,1.4088,1.4088,1.4088,1.4088,1.4088,0.0,0.0,1.4088,1.3789,1.3259,1.2945,1.2567,1.2008,1.0645,1.0251,1.0113,0.8256,0.7634,0.7481,0.6702,0.6368,0.63,0.63,0.63,0.63,0.63,0.63,0.63,0.63,0.63,0.63,0.63,0.63,0.63,0.63,0.63,0.63,0.63,0.63,0.63,0.63,0.63,0.63,0.63,0.63,0.63,0.63,0.63,0.63,0.63,0.6377,0.6451,0.6525,0.6447,0.6412,0.6412,0.6338,0.6272,0.6173,0.6269,0.6008,0.5315,0.5458,0.5096,0.4198,0.3622,0.2937,0.2195,0.153,0.0942,0.995,1.0127,1.0243,1.0027,0.9829,0.9668,0.0,0.0,1.0014,1.0225,1.0527,1.0692,1.0692,1.161,1.2792,0.0,1.5102,1.6392,0.0,0.0,0.0,0.0,0.0,0.0,0.0,0.0,0.0,0.0,0.0,0.0,0.0,1.7991,1.7478,1.6744,1.6636,1.64,1.5927,1.5631,1.5337,1.5008,1.475,1.4456,1.4088,1.4088,1.4088,1.4088,0.0,0.0,0.0,1.4088,1.3794,1.3265,1.2797,1.228,1.1635,1.0136,0.9667,0.9519,0.7917,0.7342,0.7255,0.6619,0.6381,0.63,0.63,0.63,0.63,0.63,0.63,0.63,0.63,0.63,0.63,0.63,0.63,0.63,0.63,0.63,0.63,0.63,0.63,0.63,0.63,0.63,0.63,0.63,0.63,0.63,0.63,0.6064,0.5906,0.5906,0.5709,0.567,0.5906,0.5906,0.5828,0.5592,0.5553,0.5553,0.5553,0.5553,0.5279,0.4652,0.4652,0.4222,0.3326,0.2585,0.1999,0.1608,0.0864,0.0393,0.9825,1.0046,1.0243,1.0027,0.9829,0.9668,0.0,0.9885,0.9871,1.0257,1.0527,1.0692,1.0692,1.161,1.2792,1.3917,1.5102,0.0,0.0,0.0,0.0,0.0,0.0,0.0,0.0,0.0,0.0,0.0,0.0,0.0,0.0,1.7991,1.7526,1.6986,1.6737,1.6447,1.6224,1.5927,1.5531,1.5008,1.5008,1.47,1.4088,1.4088,1.4088,0.0,0.0,0.0,0.0,1.4088,1.3822,1.3275,1.2099,1.1336,1.0689,0.8647,0.7926,0.7778,0.6844,0.6511,0.6491,0.6347,0.6303,0.63,0.63,0.63,0.63,0.63,0.63,0.63,0.63,0.63,0.63,0.63,0.63,0.63,0.63,0.63,0.63,0.63,0.63,0.63,0.63,0.63,0.63,0.63,0.63,0.63,0.63,0.5553,0.5004,0.5004,0.43,0.4144,0.4963,0.5004,0.4691,0.3869,0.383,0.383,0.383,0.383,0.383,0.383,0.383,0.3287,0.2235,0.2196,0.1568,0.0314,0.0314,0.0196,0.952,0.9669,0.9785,0.9632,0.9445,0.9354,0.9411,0.9613,0.9816,0.9926,1.0363,1.0692,1.0692,1.1017,1.161,1.2738,0.0,0.0,0.0,0.0,0.0,0.0,0.0,0.0,0.0,0.0,0.0,0.0,0.0,0.0,0.0,1.7901,1.7478,1.6744,1.6636,1.64,1.5927,1.5832,1.5638,1.5257,1.5102,1.4763,1.4376,1.4175,0.0,0.0,0.0,0.0,0.0,1.3913,1.3264,1.2394,1.1881,1.1075,1.0062,0.8674,0.8187,0.8036,0.7008,0.6559,0.6504,0.646,0.6378,0.6261,0.6099,0.6141,0.63,0.63,0.63,0.63,0.63,0.63,0.63,0.63,0.63,0.63,0.63,0.5828,0.5395,0.5395,0.4965,0.4574,0.4574,0.4574,0.4768,0.5318,0.4927,0.4807,0.5356,0.4533,0.3906,0.3906,0.3554,0.3554,0.4144,0.4183,0.4066,0.383,0.3791,0.3791,0.3791,0.3634,0.3285,0.2702,0.2585,0.2037,0.1099,0.0981,0.0628,0.0079,0.0079,0.0079,0.0,0.9408,0.95,0.9405,0.9323,0.921,0.921,0.9485,0.9816,0.9816,1.0253,1.0692,1.0692,1.0692,1.1067,1.22,0.0,0.0,0.0,0.0,0.0,0.0,0.0,0.0,0.0,0.0,0.0,0.0,0.0,0.0,0.0,1.7871,1.7416,1.6461,1.6541,1.6353,1.5832,1.5784,1.5685,1.5391,1.5149,1.481,1.4509,1.4222,0.0,0.0,0.0,0.0,0.0,1.3428,1.2699,1.1929,1.102,1.0106,0.9252,0.817,0.7769,0.7661,0.6958,0.66,0.6511,0.6511,0.6374,0.6195,0.6007,0.6028,0.618,0.6261,0.63,0.63,0.63,0.63,0.6222,0.5906,0.5828,0.5709,0.5434,0.4927,0.4535,0.4535,0.4064,0.3634,0.3634,0.3595,0.3711,0.4217,0.3867,0.3711,0.4219,0.3439,0.2817,0.2817,0.2425,0.2268,0.2582,0.2895,0.2935,0.2621,0.2582,0.2582,0.2582,0.2426,0.2115,0.1608,0.1491,0.1099,0.0471,0.0275,0.0118,0.0,0.0,0.0,0.0,0.9242,0.9351,0.9351,0.9299,0.9193,0.9193,0.9478,0.0,0.9816,1.0253,1.0692,1.0692,1.0692,1.1072,1.2096,0.0,0.0,0.0,0.0,0.0,0.0,0.0,0.0,0.0,0.0,0.0,0.0,0.0,0.0,0.0,1.7825,1.7288,1.6191,1.6447,1.6305,1.5832,1.5784,1.5691,1.5424,1.5156,1.4823,1.4543,1.4229,0.0,0.0,0.0,0.0,0.0,1.2766,1.2126,1.1666,0.9671,0.8671,0.8261,0.7292,0.6886,0.6852,0.6763,0.661,0.6515,0.6485,0.6291,0.6075,0.5998,0.5932,0.5954,0.6197,0.6268,0.6222,0.618,0.618,0.5944,0.5082,0.4846,0.4649,0.3908,0.3713,0.3675,0.3675,0.34,0.3203,0.3203,0.3047,0.2929,0.3007,0.2968,0.2929,0.3007,0.2309,0.1803,0.1803,0.1059,0.055,0.055,0.1333,0.1451,0.0668,0.0589,0.0589,0.0589,0.0589,0.0589,0.0589,0.055,0.0471,0.0275,0.0079,0.0,0.0,0.0,0.0,0.8866,0.0,0.9042,0.9042,0.9015,0.8988,0.0,0.9238,0.0,0.0,0.0,0.0,0.0,0.0,0.0,0.0,0.0,0.0,0.0,0.0,0.0,0.0,0.0,0.0,0.0,0.0,0.0,0.0,0.0,0.0,0.0,1.7016,1.6593,1.5933,1.617,1.6123,1.5784,1.5784,1.5751,1.5718,1.5211,1.4975,1.4843,1.4322,0.0,0.0,0.0,0.0,1.3695,1.2565,1.1526,1.0572,0.9148,0.8105,0.7397,0.7146,0.6906,0.6766,0.6848,0.6698,0.6491,0.6368,0.6115,0.5832,0.5942,0.5915,0.5821,0.5903,0.5832,0.5634,0.5002,0.4844,0.4647,0.3748,0.3554,0.3515,0.332,0.2776,0.2349,0.2349,0.1763,0.1255,0.1255,0.1216,0.1411,0.2075,0.1607,0.1411,0.2115,0.1294,0.0667,0.0667,0.0353,0.0157,0.0157,0.0628,0.0825,0.0628,0.0589,0.0589,0.0589,0.0471,0.0353,0.0353,0.0236,0.0118,0.0079,0.0039,0.0,0.0,0.0,0.0,0.8923,0.8988,0.8885,0.8885,0.8885,0.8885,0.8885,0.0,0.0,0.0,0.0,0.0,0.0,0.0,0.0,0.0,0.0,0.0,0.0,0.0,0.0,0.0,0.0,0.0,0.0,0.0,0.0,0.0,0.0,0.0,0.0,1.6904,1.6498,1.5838,1.5927,1.5927,1.5784,1.5784,1.5784,1.5771,1.5244,1.5008,1.4988,1.4398,1.4088,0.0,0.0,0.0,1.2984,1.1826,1.0707,0.9536,0.8321,0.7533,0.7088,0.7024,0.69,0.6817,0.6859,0.6733,0.6484,0.6231,0.596,0.5803,0.586,0.549,0.5118,0.5658,0.5452,0.4963,0.4528,0.4098,0.3593,0.2737,0.2542,0.2425,0.2034,0.1606,0.1295,0.1295,0.0864,0.0471,0.0471,0.0393,0.0471,0.0941,0.0628,0.051,0.098,0.051,0.0157,0.0157,0.0079,0.0,0.0,0.0196,0.0314,0.0314,0.0314,0.0314,0.0314,0.0236,0.0157,0.0157,0.0039,0.0,0.0,0.0,0.0,0.0,0.0,0.0,0.9074,0.91,0.8946,0.8977,0.8898,0.8885,0.0,0.0,0.0,0.0,0.0,0.0,0.0,0.0,0.0,0.0,0.0,0.0,0.0,0.0,0.0,0.0,0.0,0.0,0.0,0.0,0.0,0.0,0.0,0.0,0.0,1.6932,1.6549,1.5798,1.5784,1.5784,1.5784,1.5784,1.5784,1.5771,1.5244,1.5008,1.4988,1.4398,1.4088,0.0,0.0,0.0,1.2157,1.1042,0.9923,0.8715,0.7533,0.7095,0.7082,0.696,0.6906,0.6886,0.6886,0.6724,0.6479,0.6091,0.5918,0.5808,0.5567,0.4854,0.4257,0.5087,0.4733,0.4081,0.3964,0.3368,0.2618,0.1803,0.1608,0.1412,0.0667,0.051,0.051,0.051,0.0353,0.0236,0.0236,0.0118,0.0,0.0,0.0,0.0,0.0,0.0,0.0,0.0,0.0,0.0,0.0,0.0,0.0,0.0,0.0,0.0,0.0,0.0,0.0,0.0,0.0,0.0,0.0,0.0,0.0,0.0,0.0,0.0,0.917,0.933,0.9283,0.921,0.9028,0.8885,0.0,0.0,0.0,0.0,0.0,0.0,0.0,0.0,0.0,0.0,0.0,0.0,0.0,0.0,0.0,0.0,0.0,0.0,0.0,0.0,0.0,0.0,0.0,0.0,0.0,1.6281,1.5925,1.5784,1.5784,1.5784,1.5784,1.5784,1.5784,1.5771,1.5244,1.5008,1.4988,1.4398,1.4088,0.0,0.0,1.3307,1.1966,1.1004,0.9792,0.8456,0.7492,0.7095,0.7095,0.7071,0.6987,0.6886,0.6708,0.6567,0.6401,0.6139,0.5924,0.5573,0.4741,0.4322,0.3982,0.3353,0.2999,0.2619,0.1936,0.1669,0.1371,0.051,0.0275,0.0236,0.0118,0.0079,0.0079,0.0079,0.0079,0.0039,0.0039,0.0039,0.0,0.0,0.0,0.0,0.0,0.0,0.0,0.0,0.0,0.0,0.0,0.0,0.0,0.0,0.0,0.0,0.0,0.0,0.0,0.0,0.0,0.0,0.0,0.0,0.0,0.0,0.0,0.0,0.9121,0.9322,0.9364,0.935,0.9164,0.9032,0.0,0.0,0.0,0.0,0.0,0.0,0.0,0.0,0.0,0.0,0.0,0.0,0.0,0.0,0.0,0.0,0.0,0.0,0.0,0.0,0.0,0.0,0.0,0.0,0.0,0.0,1.5999,1.5832,1.5784,1.5784,1.5784,1.5784,1.5784,1.5778,1.5398,1.5162,1.4995,1.4516,1.415,1.387,0.0,1.2339,1.1009,1.0053,0.8925,0.7709,0.7272,0.7095,0.7095,0.7095,0.7014,0.6826,0.6558,0.6383,0.6213,0.5952,0.5463,0.4882,0.4433,0.3513,0.2561,0.212,0.1925,0.1778,0.1406,0.0944,0.0489,0.0082,0.0,0.0,0.0,0.0,0.0,0.0,0.0,0.0,0.0,0.0,0.0,0.0,0.0,0.0,0.0,0.0,0.0,0.0,0.0,0.0,0.0,0.0,0.0,0.0,0.0,0.0,0.0,0.0,0.0,0.0,0.0,0.0,0.0,0.0,0.0,0.0,0.0,0.0,0.899,0.9313,0.9418,0.9347,0.0,0.9083,0.0,0.0,0.0,0.0,0.0,0.0,0.0,0.0,0.0,0.0,0.0,0.0,0.0,0.0,0.0,0.0,0.0,0.0,0.0,0.0,0.0,0.0,0.0,0.0,0.0,0.0,1.6066,1.5791,1.5784,1.5784,1.5784,1.5784,1.5784,1.5778,1.5531,1.5244,1.4995,1.4656,1.4226,1.3646,1.2723,1.1558,1.0226,0.9279,0.8193,0.7095,0.7095,0.7095,0.7095,0.7054,0.6925,0.6748,0.6435,0.6213,0.6038,0.5777,0.5062,0.4253,0.403,0.2777,0.1345,0.1122,0.1052,0.0981,0.0976,0.0507,0.0,0.0,0.0,0.0,0.0,0.0,0.0,0.0,0.0,0.0,0.0,0.0,0.0,0.0,0.0,0.0,0.0,0.0,0.0,0.0,0.0,0.0,0.0,0.0,0.0,0.0,0.0,0.0,0.0,0.0,0.0,0.0,0.0,0.0,0.0,0.0,0.0,0.0,0.0,0.0,0.8958,0.9493,0.9523,0.9299,0.0,0.0,0.0,0.0,0.0,0.0,0.0,0.0,0.0,0.0,0.0,0.0,0.0,0.0,0.0,0.0,0.0,0.0,0.0,0.0,0.0,0.0,0.0,0.0,0.0,0.0,0.0,0.0,0.0,1.5784,1.5784,1.5784,1.5784,1.5784,1.5784,1.5778,1.5531,1.5244,1.4995,1.4656,1.4226,1.3646,1.2723,1.1558,1.0226,0.9279,0.8193,0.7095,0.7095,0.7095,0.7098,0.6881,0.6795,0.6751,0.626,0.6127,0.6038,0.5777,0.5062,0.4119,0.3269,0.224,0.1211,0.0359,0.009,0.0089,0.0087,0.0043,0.0,0.0,0.0,0.0,0.0,0.0,0.0,0.0,0.0,0.0,0.0,0.0,0.0,0.0,0.0,0.0,0.0,0.0,0.0,0.0,0.0,0.0,0.0,0.0,0.0,0.0,0.0,0.0,0.0,0.0,0.0,0.0,0.0,0.0,0.0,0.0,0.0,0.0,0.0,0.0,0.8485,0.8933,0.9164,0.9049,0.0,0.0,0.0,0.0,0.0,0.0,0.0,0.0,0.0,0.0,0.0,0.0,0.0,0.0,0.0,0.0,0.0,0.0,0.0,0.0,0.0,0.0,0.0,0.0,0.0,0.0,0.0,0.0,0.0,1.5778,1.5207,1.5159,1.5778,1.5784,1.5784,1.5784,1.5718,1.5418,1.5008,1.4888,1.3999,1.2571,1.1649,1.0481,0.9104,0.8145,0.7489,0.7095,0.7095,0.701,0.6925,0.6836,0.6618,0.6349,0.6171,0.6042,0.5836,0.506,0.4231,0.33,0.2279,0.1303,0.0465,0.0092,0.0,0.0,0.0,0.0,0.0,0.0,0.0,0.0,0.0,0.0,0.0,0.0,0.0,0.0,0.0,0.0,0.0,0.0,0.0,0.0,0.0,0.0,0.0,0.0,0.0,0.0,0.0,0.0,0.0,0.0,0.0,0.0,0.0,0.0,0.0,0.0,0.0,0.0,0.0,0.0,0.0,0.0,0.0,0.0,0.8121,0.8536,0.8885,0.0,0.0,0.0,0.0,0.0,0.0,0.0,0.0,0.0,0.0,0.0,0.0,0.0,0.0,0.0,0.0,0.0,0.0,0.0,0.0,0.0,0.0,0.0,0.0,0.0,0.0,0.0,0.0,0.0,0.0,0.0,1.4825,1.4777,1.5778,1.5784,1.5784,1.5784,1.5493,1.5244,1.5097,1.4637,1.3609,1.2037,1.0646,0.9449,0.8412,0.7492,0.7095,0.7095,0.7095,0.6996,0.6863,0.677,0.6526,0.6195,0.6065,0.5997,0.5768,0.4664,0.3693,0.2804,0.1712,0.0762,0.0,0.0,0.0,0.0,0.0,0.0,0.0,0.0,0.0,0.0,0.0,0.0,0.0,0.0,0.0,0.0,0.0,0.0,0.0,0.0,0.0,0.0,0.0,0.0,0.0,0.0,0.0,0.0,0.0,0.0,0.0,0.0,0.0,0.0,0.0,0.0,0.0,0.0,0.0,0.0,0.0,0.0,0.0,0.0,0.0,0.0,0.7971,0.8603,0.0,0.0,0.0,0.0,0.0,0.0,0.0,0.0,0.0,0.0,0.0,0.0,0.0,0.0,0.0,0.0,0.0,0.0,0.0,0.0,0.0,0.0,0.0,0.0,0.0,0.0,0.0,0.0,0.0,0.0,0.0,0.0,1.4825,1.4777,1.5784,1.5784,1.5784,1.5784,1.4777,1.4681,1.5338,1.3844,1.2896,1.2236,0.989,0.8763,0.8412,0.7492,0.7095,0.7098,0.7098,0.7062,0.6966,0.6685,0.6534,0.6344,0.6037,0.5986,0.5876,0.4688,0.3693,0.2806,0.1714,0.0715,0.0,0.0,0.0,0.0,0.0,0.0,0.0,0.0,0.0,0.0,0.0,0.0,0.0,0.0,0.0,0.0,0.0,0.0,0.0,0.0,0.0,0.0,0.0,0.0,0.0,0.0,0.0,0.0,0.0,0.0,0.0,0.0,0.0,0.0,0.0,0.0,0.0,0.0,0.0,0.0,0.0,0.0,0.0,0.0,0.0,0.0,0.7611,0.0,0.0,0.0,0.0,0.0,0.0,0.0,0.0,0.0,0.0,0.0,0.0,0.0,0.0,0.0,0.0,0.0,0.0,0.0,0.0,0.0,0.0,0.0,0.0,0.0,0.0,0.0,0.0,0.0,0.0,0.0,0.0,0.0,1.3312,1.3703,1.4723,1.5445,1.5445,1.4729,1.4442,1.429,1.4248,1.2908,1.1631,1.0442,0.9467,0.8547,0.7697,0.7272,0.7204,0.7302,0.7125,0.6939,0.683,0.654,0.6332,0.6172,0.6089,0.5633,0.4945,0.3758,0.2778,0.1834,0.0744,0.0199,0.0,0.0,0.0,0.0,0.0,0.0,0.0,0.0,0.0,0.0,0.0,0.0,0.0,0.0,0.0,0.0,0.0,0.0,0.0,0.0,0.0,0.0,0.0,0.0,0.0,0.0,0.0,0.0,0.0,0.0,0.0,0.0,0.0,0.0,0.0,0.0,0.0,0.0,0.0,0.0,0.0,0.0,0.0,0.0,0.0,0.0,0.7734,0.0,0.0,0.0,0.0,0.0,0.0,0.0,0.0,0.0,0.0,0.0,0.0,0.0,0.0,0.0,0.0,0.0,0.0,0.0,0.0,0.0,0.0,0.0,0.0,0.0,0.0,0.0,0.0,0.0,0.0,0.0,0.0,0.0,1.229,1.2829,1.4298,1.4921,1.4921,1.4298,1.3854,1.3281,1.2596,1.1652,1.074,0.9865,0.8894,0.8096,0.7455,0.736,0.7377,0.7461,0.7184,0.6992,0.6828,0.6584,0.6373,0.6168,0.5691,0.5211,0.4498,0.2895,0.2035,0.1412,0.0303,0.0,0.0,0.0,0.0,0.0,0.0,0.0,0.0,0.0,0.0,0.0,0.0,0.0,0.0,0.0,0.0,0.0,0.0,0.0,0.0,0.0,0.0,0.0,0.0,0.0,0.0,0.0,0.0,0.0,0.0,0.0,0.0,0.0,0.0,0.0,0.0,0.0,0.0,0.0,0.0,0.0,0.0,0.0,0.0,0.0,0.0,0.0,0.0,0.0,0.0,0.0,0.0,0.0,0.0,0.0,0.0,0.0,0.0,0.0,0.0,0.0,0.0,0.0,0.0,0.0,0.0,0.0,0.0,0.0,0.0,0.0,0.0,0.0,0.0,0.0,0.0,0.0,0.0,0.0,0.0,1.2344,1.1609,1.2101,1.4004,1.41,1.41,0.0,1.3022,1.1901,1.0632,1.0254,1.0018,0.9897,0.8284,0.7611,0.76,0.76,0.7607,0.757,0.7284,0.7085,0.6967,0.6669,0.6492,0.6221,0.5083,0.4666,0.4318,0.2123,0.1442,0.1261,0.0303,0.0,0.0,0.0,0.0,0.0,0.0,0.0,0.0,0.0,0.0,0.0,0.0,0.0,0.0,0.0,0.0,0.0,0.0,0.0,0.0,0.0,0.0,0.0,0.0,0.0,0.0,0.0,0.0,0.0,0.0,0.0,0.0,0.0,0.0,0.0,0.0,0.0,0.0,0.0,0.0,0.0,0.0,0.0,0.0,0.0,0.0,0.0,0.0,0.0,0.0,0.0,0.0,0.0,0.0,0.0,0.0,0.0,0.0,0.0,0.0,0.0,0.0,0.0,0.0,0.0,0.0,0.0,0.0,0.0,0.0,0.0,0.0,0.0,0.0,0.0,0.0,0.0,0.0,0.0,0.0,1.0265,1.0886,1.1414,1.1853,1.2635,1.2635,0.0,1.1609,1.0837,0.9525,0.9231,0.8796,0.8286,0.7921,0.7702,0.76,0.76,0.7523,0.7433,0.7144,0.6936,0.6804,0.655,0.6415,0.6232,0.5161,0.4216,0.3321,0.2006,0.1006,0.0303,0.0051,0.0,0.0,0.0,0.0,0.0,0.0,0.0,0.0,0.0,0.0,0.0,0.0,0.0,0.0,0.0,0.0,0.0,0.0,0.0,0.0,0.0,0.0,0.0,0.0,0.0,0.0,0.0,0.0,0.0,0.0,0.0,0.0,0.0,0.0,0.0,0.0,0.0,0.0,0.0,0.0,0.0,0.0,0.0,0.0,0.0,0.0,0.0,0.0,0.0,0.0,0.0,0.0,0.0,0.0,0.0,0.0,0.0,0.0,0.0,0.0,0.0,0.0,0.0,0.0,0.0,0.0,0.0,0.0,0.0,0.0,0.0,0.0,0.0,0.0,0.0,0.0,0.0,0.0,0.9908,0.9721,0.9579,1.0158,1.069,1.117,1.1707,1.1707,1.1219,1.1072,1.0248,0.8832,0.868,0.8336,0.7919,0.7919,0.7879,0.7762,0.7666,0.7566,0.7435,0.7042,0.6886,0.6742,0.6487,0.6087,0.5484,0.4429,0.3324,0.2267,0.116,0.0454,0.0,0.0,0.0,0.0,0.0,0.0,0.0,0.0,0.0,0.0,0.0,0.0,0.0,0.0,0.0,0.0,0.0,0.0,0.0,0.0,0.0,0.0,0.0,0.0,0.0,0.0,0.0,0.0,0.0,0.0,0.0,0.0,0.0,0.0,0.0,0.0,0.0,0.0,0.0,0.0,0.0,0.0,0.0,0.0,0.0,0.0,0.0,0.0,0.0,0.0,0.0,0.0,0.0,0.0,0.0,0.0,0.0,0.0,0.0,0.0,0.0,0.0,0.0,0.0,0.0,0.0,0.0,0.0,0.0,0.0,0.0,0.0,0.0,0.0,0.0,0.0,0.0,0.0,0.0,1.0216,0.9829,0.9594,0.9579,0.9579,1.0015,1.093,1.093,1.0881,1.0832,1.0538,0.9706,0.8382,0.8333,0.8187,0.7988,0.7988,0.7988,0.7992,0.7693,0.7596,0.7494,0.6995,0.6792,0.6692,0.6487,0.5734,0.4634,0.3575,0.2519,0.1412,0.0353,0.0,0.0,0.0,0.0,0.0,0.0,0.0,0.0,0.0,0.0,0.0,0.0,0.0,0.0,0.0,0.0,0.0,0.0,0.0,0.0,0.0,0.0,0.0,0.0,0.0,0.0,0.0,0.0,0.0,0.0,0.0,0.0,0.0,0.0,0.0,0.0,0.0,0.0,0.0,0.0,0.0,0.0,0.0,0.0,0.0,0.0,0.0,0.0,0.0,0.0,0.0,0.0,0.0,0.0,0.0,0.0,0.0,0.0,0.0,0.0,0.0,0.0,0.0,0.0,0.0,0.0,0.0,0.0,0.0,0.0,0.0,0.0,0.0,0.0,0.0,0.0,0.0,0.0,0.0,0.0,1.0176,0.9856,0.9642,0.9587,0.9579,0.9677,0.9821,0.9821,0.9673,0.9476,0.8977,0.8627,0.8382,0.8137,0.8038,0.7988,0.7988,0.7988,0.7992,0.7693,0.7444,0.7238,0.6942,0.6642,0.6437,0.6437,0.5734,0.4634,0.3575,0.2519,0.1412,0.0353,0.0,0.0,0.0,0.0,0.0,0.0,0.0,0.0,0.0,0.0,0.0,0.0,0.0,0.0,0.0,0.0,0.0,0.0,0.0,0.0,0.0,0.0,0.0,0.0,0.0,0.0,0.0,0.0,0.0,0.0,0.0,0.0,0.0,0.0,0.0,0.0,0.0,0.0,0.0,0.0,0.0,0.0,0.0,0.0,0.0,0.0,0.0,0.0,0.0,0.0,0.0,0.0,0.0,0.0,0.0,0.0,0.0,0.0,0.0,0.0,0.0,0.0,0.0,0.0,0.0,0.0,0.0,0.0,0.0,0.0,0.0,0.0,0.0,0.0,0.0,0.0,0.0,0.0,0.0,0.9587,0.9702,0.9402,0.9233,0.9385,0.9385,0.943,0.9579,0.943,0.9183,0.8733,0.8535,0.8333,0.8187,0.8038,0.7988,0.7988,0.7988,0.7892,0.7743,0.7494,0.7241,0.6942,0.6689,0.6487,0.6387,0.6387,0.5331,0.3827,0.3374,0.2116,0.0606,0.0151,0.0,0.0,0.0,0.0,0.0,0.0,0.0,0.0,0.0,0.0,0.0,0.0,0.0,0.0,0.0,0.0,0.0,0.0,0.0,0.0,0.0,0.0,0.0,0.0,0.0,0.0,0.0,0.0,0.0,0.0,0.0,0.0,0.0,0.0,0.0,0.0,0.0,0.0,0.0,0.0,0.0,0.0,0.0,0.0,0.0,0.0,0.0,0.0,0.0,0.0,0.0,0.0,0.0,0.0,0.0,0.0,0.0,0.0,0.0,0.0,0.0,0.0,0.0,0.0,0.0,0.0,0.0,0.0,0.0,0.0,0.0,0.0,0.0,0.0,0.0,0.0,0.0,0.0,0.0,0.9215,0.9279,0.8947,0.8873,0.9084,0.9084,0.9183,0.9377,0.9133,0.8783,0.8382,0.8333,0.8208,0.8099,0.8099,0.8116,0.815,0.8113,0.7899,0.7648,0.739,0.7092,0.6841,0.65,0.6387,0.6387,0.6087,0.483,0.3175,0.2887,0.1574,0.0,0.0,0.0,0.0,0.0,0.0,0.0,0.0,0.0,0.0,0.0,0.0,0.0,0.0,0.0,0.0,0.0,0.0,0.0,0.0,0.0,0.0,0.0,0.0,0.0,0.0,0.0,0.0,0.0,0.0,0.0,0.0,0.0,0.0,0.0,0.0,0.0,0.0,0.0,0.0,0.0,0.0,0.0,0.0,0.0,0.0,0.0,0.0,0.0,0.0,0.0,0.0,0.0,0.0,0.0,0.0,0.0,0.0,0.0,0.0,0.0,0.0,0.0,0.0,0.0,0.0,0.0,0.0,0.0,0.0,0.0,0.0,0.0,0.0,0.0,0.0,0.0,0.0,0.0,0.0,0.0,0.8905,0.9287,0.8907,0.874,0.8829,0.8825,0.8825,0.8825,0.8581,0.8432,0.8382,0.8137,0.8116,0.831,0.831,0.8333,0.8452,0.8316,0.8098,0.7785,0.7587,0.7283,0.6964,0.6533,0.6387,0.6287,0.5233,0.418,0.303,0.2057,0.0932,0.0,0.0,0.0,0.0,0.0,0.0,0.0,0.0,0.0,0.0,0.0,0.0,0.0,0.0,0.0,0.0,0.0,0.0,0.0,0.0,0.0,0.0,0.0,0.0,0.0,0.0,0.0,0.0,0.0,0.0,0.0,0.0,0.0,0.0,0.0,0.0,0.0,0.0,0.0,0.0,0.0,0.0,0.0,0.0,0.0,0.0,0.0,0.0,0.0,0.0,0.0,0.0,0.0,0.0,0.0,0.0,0.0,0.0,0.0,0.0,0.0,0.0,0.0,0.0,0.0,0.0,0.0,0.0,0.0,0.0,0.0,0.0,0.0,0.0,0.0,0.0,0.0,0.0,0.0,0.0,0.0,0.0,0.8808,0.8553,0.8447,0.8535,0.8528,0.8528,0.8528,0.8432,0.8385,0.8339,0.8238,0.8265,0.8408,0.8408,0.8435,0.8486,0.8375,0.8078,0.7679,0.7574,0.7313,0.6838,0.669,0.6671,0.6515,0.5367,0.4273,0.3183,0.1998,0.0897,0.0,0.0,0.0,0.0,0.0,0.0,0.0,0.0,0.0,0.0,0.0,0.0,0.0,0.0,0.0,0.0,0.0,0.0,0.0,0.0,0.0,0.0,0.0,0.0,0.0,0.0,0.0,0.0,0.0,0.0,0.0,0.0,0.0,0.0,0.0,0.0,0.0,0.0,0.0,0.0,0.0,0.0,0.0,0.0,0.0,0.0,0.0,0.0,0.0,0.0,0.0,0.0,0.0,0.0,0.0,0.0,0.0,0.0,0.0,0.0,0.0,0.0,0.0,0.0,0.0,0.0,0.0,0.0,0.0,0.0,0.0,0.0,0.0,0.0,0.0,0.0,0.0,0.0,0.0,0.0,0.0,0.0,0.8489,0.8391,0.8395,0.844,0.8391,0.8388,0.8437,0.8388,0.8343,0.8391,0.8391,0.8418,0.856,0.856,0.8534,0.8478,0.8415,0.811,0.7659,0.7555,0.7289,0.6861,0.6817,0.6534,0.6054,0.4884,0.377,0.2607,0.1448,0.0592,0.0,0.0,0.0,0.0,0.0,0.0,0.0,0.0,0.0,0.0,0.0,0.0,0.0,0.0,0.0,0.0,0.0,0.0,0.0,0.0,0.0,0.0,0.0,0.0,0.0,0.0,0.0,0.0,0.0,0.0,0.0,0.0,0.0,0.0,0.0,0.0,0.0,0.0,0.0,0.0,0.0,0.0,0.0,0.0,0.0,0.0,0.0,0.0,0.0,0.0,0.0,0.0,0.0,0.0,0.0,0.0,0.0,0.0,0.0,0.0,0.0,0.0,0.0,0.0,0.0,0.0,0.0,0.0,0.0,0.0,0.0,0.0,0.0,0.0,0.0,0.0,0.0,0.0,0.0,0.0,0.0,0.8652,0.8496,0.8482,0.8482,0.8482,0.8398,0.8343,0.8479,0.8347,0.8347,0.8489,0.8489,0.8567,0.8716,0.8716,0.8631,0.8484,0.8484,0.8243,0.7792,0.7525,0.726,0.6978,0.6858,0.6066,0.4892,0.3828,0.2662,0.1444,0.0381,0.0,0.0,0.0,0.0,0.0,0.0,0.0,0.0,0.0,0.0,0.0,0.0,0.0,0.0,0.0,0.0,0.0,0.0,0.0,0.0,0.0,0.0,0.0,0.0,0.0,0.0,0.0,0.0,0.0,0.0,0.0,0.0,0.0,0.0,0.0,0.0,0.0,0.0,0.0,0.0,0.0,0.0,0.0,0.0,0.0,0.0,0.0,0.0,0.0,0.0,0.0,0.0,0.0,0.7475,0.0,0.0,0.0,0.0,0.0,0.0,0.0,0.0,0.0,0.0,0.0,0.0,0.0,0.0,0.0,0.0,0.0,0.0,0.0,0.0,0.0,0.0,0.0,0.0,0.0,0.0,0.0,0.8844,0.8808,0.8655,0.854,0.8482,0.8482,0.8442,0.8442,0.8482,0.8442,0.8499,0.8648,0.8648,0.8726,0.8821,0.8821,0.8728,0.8484,0.8263,0.7968,0.7662,0.7552,0.7387,0.7158,0.7125,0.6341,0.5129,0.3972,0.2759,0.1603,0.0389,0.0,0.0,0.0,0.0,0.0,0.0,0.0,0.0,0.0,0.0,0.0,0.0,0.0,0.0,0.0,0.0,0.0,0.0,0.0,0.0,0.0,0.0,0.0,0.0,0.0,0.0,0.0,0.0,0.0,0.0,0.0,0.0,0.0,0.0,0.0,0.0,0.0,0.0,0.0,0.0,0.0,0.0,0.0,0.0,0.0,0.0,0.0,0.0,0.0,0.0,0.0,0.0,0.0,0.0,0.0,0.0,0.0,0.0,0.0,0.0,0.0,0.0,0.0,0.0,0.0,0.0,0.0,0.0,0.0,0.0,0.0,0.0,0.0,0.0,0.0,0.0,0.0,0.0,0.0,0.0,0.8885,0.8885,0.8844,0.8811,0.8662,0.8608,0.8669,0.8611,0.8608,0.8672,0.8608,0.8655,0.8804,0.8804,0.8797,0.8885,0.8885,0.866,0.8263,0.81,0.7768,0.7438,0.7438,0.7324,0.721,0.721,0.6149,0.4587,0.386,0.2519,0.0953,0.0224,0.0,0.0,0.0,0.0,0.0,0.0,0.0,0.0,0.0,0.0,0.0,0.0,0.0,0.0,0.0,0.0,0.0,0.0,0.0,0.0,0.0,0.0,0.0,0.0,0.0,0.0,0.0,0.0,0.0,0.0,0.0,0.0,0.0,0.0,0.0,0.0,0.0,0.0,0.0,0.0,0.0,0.0,0.0,0.0,0.0,0.0,0.0,0.0,0.0,0.0,0.0,0.0,0.0,0.0,0.0,0.0,0.0,0.0,0.0,0.8241,0.8275,0.0,0.0,0.0,0.0,0.0,0.0,0.0,0.0,0.0,0.0,0.0,0.0,0.0,0.0,0.0,0.0,0.0,0.8885,0.8885,0.8885,0.8885,0.8885,0.8885,0.8811,0.8798,0.8878,0.8808,0.8801,0.8881,0.8804,0.8804,0.8885,0.8885,0.8885,0.8885,0.8881,0.8546,0.7989,0.7989,0.7654,0.721,0.721,0.721,0.721,0.7043,0.559,0.358,0.3469,0.1959,0.0,0.0,0.0,0.0,0.0,0.0,0.0,0.0,0.0,0.0,0.0,0.0,0.0,0.0,0.0,0.0,0.0,0.0,0.0,0.0,0.0,0.0,0.0,0.0,0.0,0.0,0.0,0.0,0.0,0.0,0.0,0.0,0.0,0.0,0.0,0.0,0.0,0.0,0.0,0.0,0.0,0.0,0.0,0.0,0.0,0.0,0.0,0.0,0.0,0.0,0.0,0.0,0.0,0.0,0.0,0.0,0.0,0.0,0.0,0.0,0.0,0.759,0.7662,0.0,0.0,0.0,0.0,0.0,0.0,0.0,0.0,0.0,0.0,0.0,0.0,0.0,0.0,0.0,0.0,0.0,0.8885,0.8885,0.8885,0.8885,0.8885,0.8885,0.8854,0.8851,0.8881,0.8854,0.8854,0.8885,0.8854,0.8854,0.8885,0.8885,0.8885,0.8881,0.8657,0.8377,0.7989,0.7771,0.7493,0.721,0.721,0.721,0.7099,0.6151,0.4866,0.3469,0.2519,0.1232,0.0,0.0,0.0,0.0,0.0,0.0,0.0,0.0,0.0,0.0,0.0,0.0,0.0,0.0,0.0,0.0,0.0,0.0,0.0,0.0,0.0,0.0,0.0,0.0,0.0,0.0,0.0,0.0,0.0,0.0,0.0,0.0,0.0,0.0,0.0,0.0,0.0,0.0,0.0,0.0,0.0,0.0,0.0,0.0,0.0,0.0,0.0,0.0,0.0,0.0,0.0,0.0,0.0,0.0,0.0,0.0,0.0,0.0,0.7743,0.0,0.0,0.0,0.0,0.7706,0.0,0.0,0.0,0.0,0.0,0.0,0.0,0.0,0.0,0.0,0.0,0.0,0.0,0.0,0.0,0.0,0.8885,0.8885,0.8885,0.8885,0.8885,0.8885,0.8885,0.8885,0.8885,0.8885,0.8885,0.8885,0.8885,0.8885,0.8885,0.8885,0.8885,0.8881,0.8598,0.8322,0.7989,0.7715,0.7438,0.721,0.721,0.721,0.7099,0.5873,0.4643,0.3469,0.2239,0.1008,0.0,0.0,0.0,0.0,0.0,0.0,0.0,0.0,0.0,0.0,0.0,0.0,0.0,0.0,0.0,0.0,0.0,0.0,0.0,0.0,0.0,0.0,0.0,0.0,0.0,0.0,0.0,0.0,0.0,0.0,0.0,0.0,0.0,0.0,0.0,0.0,0.0,0.0,0.0,0.0,0.0,0.0,0.0,0.0,0.0,0.0,0.0,0.0,0.0,0.0,0.0,0.0,0.0,0.0,0.0,0.0,0.0,0.0,0.0,0.0,0.7685,0.0,0.0,0.0,0.8071,0.0,0.0,0.0,0.0,0.0,0.0,0.0,0.0,0.0,0.0,0.0,0.0,0.0,0.0,0.0,0.8858,0.8851,0.8881,0.8854,0.8851,0.8881,0.8885,0.8885,0.8885,0.8885,0.8885,0.8885,0.8885,0.8885,0.8885,0.8885,0.8885,0.8881,0.8543,0.8266,0.7989,0.766,0.7379,0.721,0.721,0.721,0.7099,0.5873,0.4643,0.3469,0.2239,0.1008,0.0,0.0,0.0,0.0,0.0,0.0,0.0,0.0,0.0,0.0,0.0,0.0,0.0,0.0,0.0,0.0,0.0,0.0,0.0,0.0,0.0,0.0,0.0,0.0,0.0,0.0,0.0,0.0,0.0,0.0,0.0,0.0,0.0,0.0,0.0,0.0,0.0,0.0,0.0,0.0,0.0,0.0,0.0,0.0,0.0,0.0,0.0,0.0,0.0,0.0,0.0,0.0,0.0,0.0,0.0,0.0,0.0,0.0,0.0,0.7807,0.0,0.0,0.0,0.7456,0.7508,0.0,0.0,0.0,0.0,0.0,0.0,0.0,0.0,0.0,0.0,0.0,0.0,0.0,0.0,0.0,0.0,0.8794,0.8871,0.8811,0.8794,0.8875,0.8885,0.8885,0.8885,0.8885,0.8885,0.8885,0.8885,0.8885,0.8885,0.8885,0.8885,0.8881,0.8325,0.8045,0.7989,0.7487,0.721,0.721,0.721,0.721,0.7099,0.5873,0.4643,0.3469,0.2239,0.1008,0.0,0.0,0.0,0.0,0.0,0.0,0.0,0.0,0.0,0.0,0.0,0.0,0.0,0.0,0.0,0.0,0.0,0.0,0.0,0.0,0.0,0.0,0.0,0.0,0.0,0.0,0.0,0.0,0.0,0.0,0.0,0.0,0.0,0.0,0.0,0.0,0.0,0.0,0.0,0.0,0.0,0.0,0.0,0.0,0.0,0.0,0.0,0.0,0.0,0.0,0.0,0.0,0.0,0.0,0.0,0.0,0.0,0.0,0.0,0.0,0.0,0.737,0.0,0.7261,0.0,0.0,0.0,0.0,0.0,0.0,0.0,0.0,0.0,0.0,0.0,0.0,0.0,0.0,0.0,0.0,0.0,0.0,0.0,0.0,0.8777,0.8875,0.8885,0.8885,0.8885,0.8885,0.8885,0.8885,0.8885,0.8885,0.8885,0.8885,0.8885,0.8881,0.8269,0.7989,0.7989,0.7432,0.721,0.721,0.721,0.721,0.7099,0.5873,0.4643,0.3357,0.1456,0.0448,0.0,0.0,0.0,0.0,0.0,0.0,0.0,0.0,0.0,0.0,0.0,0.0,0.0,0.0,0.0,0.0,0.0,0.0,0.0,0.0,0.0,0.0,0.0,0.0,0.0,0.0,0.0,0.0,0.0,0.0,0.0,0.0,0.0,0.0,0.0,0.0,0.0,0.0,0.0,0.0,0.0,0.0,0.0,0.0,0.0,0.0,0.0,0.0,0.0,0.0,0.0,0.0,0.0,0.0,0.0,0.8052,0.0,0.0,0.0,0.0,0.0,0.0,0.0,0.0,0.0,0.0,0.0,0.0,0.0,0.0,0.0,0.0,0.0,0.0,0.0,0.0,0.0,0.0,0.0,0.0,0.0,0.0,0.0,0.0,0.0,0.8871,0.8885,0.8885,0.8885,0.8885,0.8885,0.8885,0.8885,0.8885,0.8885,0.8885,0.8885,0.8881,0.8269,0.7989,0.7989,0.7432,0.721,0.721,0.721,0.721,0.7043,0.5481,0.4364,0.3357,0.1288,0.028,0.0,0.0,0.0,0.0,0.0,0.0,0.0,0.0,0.0,0.0,0.0,0.0,0.0,0.0,0.0,0.0,0.0,0.0,0.0,0.0,0.0,0.0,0.0,0.0,0.0,0.0,0.0,0.0,0.0,0.0,0.0,0.0,0.0,0.0,0.0,0.0,0.0,0.0,0.0,0.0,0.0,0.0,0.0,0.0,0.0,0.0,0.0,0.0,0.0,0.0,0.0,0.0,0.0,0.0,0.0,0.0,0.0,0.0,0.7753,0.0,0.0,0.0,0.0,0.7412,0.0,0.0,0.0,0.0,0.0,0.0,0.0,0.0,0.0,0.0,0.0,0.0,0.0,0.0,0.0,0.0,0.0,0.0,0.0,0.0,0.0,0.8868,0.8885,0.8885,0.8885,0.8885,0.8885,0.8885,0.8885,0.8885,0.8885,0.8885,0.8885,0.8881,0.8269,0.7989,0.7989,0.7432,0.721,0.721,0.721,0.721,0.6985,0.4585,0.3636,0.3469,0.2183,0.1008,0.0,0.0,0.0,0.0,0.0,0.0,0.0,0.0,0.0,0.0,0.0,0.0,0.0,0.0,0.0,0.0,0.0,0.0,0.0,0.0,0.0,0.0,0.0,0.0,0.0,0.0,0.0,0.0,0.0,0.0,0.0,0.0,0.0,0.0,0.0,0.0,0.0,0.0,0.0,0.0,0.0,0.0,0.0,0.0,0.0,0.0,0.0,0.0,0.0,0.0,0.0,0.0,0.0,0.0,0.0,0.0,0.0,0.8513,0.8014,0.0,0.0,0.0,0.0,0.0,0.0,0.0,0.0,0.0,0.0,0.0,0.0,0.0,0.0,0.0,0.0,0.0,0.0,0.0,0.0,0.0,0.0,0.0,0.0,0.0,0.0,0.0,0.8885,0.8885,0.8885,0.8885,0.8885,0.8885,0.8885,0.8885,0.8885,0.8885,0.8826,0.8598,0.8211,0.7878,0.7715,0.7379,0.721,0.721,0.721,0.721,0.6985,0.4529,0.358,0.3357,0.1344,0.0336,0.0,0.0,0.0,0.0,0.0,0.0,0.0,0.0,0.0,0.0,0.0,0.0,0.0,0.0,0.0,0.0,0.0,0.0,0.0,0.0,0.0,0.0,0.0,0.0,0.0,0.0,0.0,0.0,0.0,0.0,0.0,0.0,0.0,0.0,0.0,0.0,0.0,0.0,0.0,0.0,0.0,0.0,0.0,0.0,0.0,0.0,0.0,0.0,0.0,0.0,0.0,0.0,0.0,0.0,0.0,0.8513,0.8594,0.0,0.8221,0.8123,0.0,0.7617,0.0,0.0,0.0,0.0,0.0,0.0,0.0,0.0,0.0,0.0,0.0,0.0,0.0,0.0,0.0,0.0,0.0,0.0,0.0,0.7773,0.8123,0.0,0.0,0.0,0.0,0.8885,0.8885,0.8885,0.8885,0.8885,0.8885,0.8885,0.8885,0.8885,0.8768,0.8484,0.8156,0.7881,0.7607,0.7324,0.721,0.721,0.721,0.721,0.6985,0.4529,0.358,0.3301,0.0896,0.0,0.0,0.0,0.0,0.0,0.0,0.0,0.0,0.0,0.0,0.0,0.0,0.0,0.0,0.0,0.0,0.0,0.0,0.0,0.0,0.0,0.0,0.0,0.0,0.0,0.0,0.0,0.0,0.0,0.0,0.0,0.0,0.0,0.0,0.0,0.0,0.0,0.0,0.0,0.0,0.0,0.0,0.0,0.0,0.0,0.0,0.0,0.0,0.0,0.0,0.0,0.0,0.0,0.0,0.0,0.0]}]]